<?xml version="1.0" encoding="UTF-8" standalone="no" ?>
<gpx xmlns="http://www.topografix.com/GPX/1/1" xmlns:xsi="http://www.w3.org/2001/XMLSchema-instance" xsi:schemaLocation="http://www.topografix.com/GPX/1/1 http://www.topografix.com/GPX/1/1/gpx.xsd" version="1.1" creator="VisuGPX - https://www.visugpx.com">
  <metadata>
    <name>GR 2013-3</name>
    <desc><![CDATA[Démarrage depuis le parking du Site mémorial du Camp des Milles. Traversée d\'Aix puis jonction des terres Rouges à Beaurecueil.]]></desc>
  </metadata>
  <trk>
    <name><![CDATA[GR 2013-3_1]]></name>
    <trkseg>
      <trkpt lat="43.50242" lon="5.38169">
        <ele>117</ele>
        <time>2013-04-07T07:22:58Z</time>
      </trkpt>
      <trkpt lat="43.50215" lon="5.38176">
        <ele>119</ele>
        <time>2013-04-07T07:23:24Z</time>
      </trkpt>
      <trkpt lat="43.50206" lon="5.38166">
        <ele>119</ele>
        <time>2013-04-07T07:23:33Z</time>
      </trkpt>
      <trkpt lat="43.50198" lon="5.38155">
        <ele>119</ele>
        <time>2013-04-07T07:23:43Z</time>
      </trkpt>
      <trkpt lat="43.50189" lon="5.38142">
        <ele>119</ele>
        <time>2013-04-07T07:23:52Z</time>
      </trkpt>
      <trkpt lat="43.50184" lon="5.38134">
        <ele>119</ele>
        <time>2013-04-07T07:24:03Z</time>
      </trkpt>
      <trkpt lat="43.50177" lon="5.38124">
        <ele>119</ele>
        <time>2013-04-07T07:24:13Z</time>
      </trkpt>
      <trkpt lat="43.50176" lon="5.38125">
        <ele>119</ele>
        <time>2013-04-07T07:24:24Z</time>
      </trkpt>
      <trkpt lat="43.50177" lon="5.38127">
        <ele>119</ele>
        <time>2013-04-07T07:24:33Z</time>
      </trkpt>
      <trkpt lat="43.50176" lon="5.38129">
        <ele>119</ele>
        <time>2013-04-07T07:24:45Z</time>
      </trkpt>
      <trkpt lat="43.50177" lon="5.3813">
        <ele>119</ele>
        <time>2013-04-07T07:24:58Z</time>
      </trkpt>
      <trkpt lat="43.50174" lon="5.38124">
        <ele>119</ele>
        <time>2013-04-07T07:25:07Z</time>
      </trkpt>
      <trkpt lat="43.50168" lon="5.38115">
        <ele>119</ele>
        <time>2013-04-07T07:25:17Z</time>
      </trkpt>
      <trkpt lat="43.50168" lon="5.38116">
        <ele>119</ele>
        <time>2013-04-07T07:25:28Z</time>
      </trkpt>
      <trkpt lat="43.50175" lon="5.38125">
        <ele>119</ele>
        <time>2013-04-07T07:25:38Z</time>
      </trkpt>
      <trkpt lat="43.50179" lon="5.38129">
        <ele>119</ele>
        <time>2013-04-07T07:25:47Z</time>
      </trkpt>
      <trkpt lat="43.50182" lon="5.38135">
        <ele>119</ele>
        <time>2013-04-07T07:26:02Z</time>
      </trkpt>
      <trkpt lat="43.50188" lon="5.38143">
        <ele>119</ele>
        <time>2013-04-07T07:26:11Z</time>
      </trkpt>
      <trkpt lat="43.50191" lon="5.38135">
        <ele>119</ele>
        <time>2013-04-07T07:26:22Z</time>
      </trkpt>
      <trkpt lat="43.50192" lon="5.38123">
        <ele>119</ele>
        <time>2013-04-07T07:26:37Z</time>
      </trkpt>
      <trkpt lat="43.50189" lon="5.38126">
        <ele>119</ele>
        <time>2013-04-07T07:26:54Z</time>
      </trkpt>
      <trkpt lat="43.50188" lon="5.38127">
        <ele>119</ele>
        <time>2013-04-07T07:27:11Z</time>
      </trkpt>
      <trkpt lat="43.5019" lon="5.38128">
        <ele>119</ele>
        <time>2013-04-07T07:27:20Z</time>
      </trkpt>
      <trkpt lat="43.50191" lon="5.38127">
        <ele>119</ele>
        <time>2013-04-07T07:27:29Z</time>
      </trkpt>
      <trkpt lat="43.50193" lon="5.38126">
        <ele>119</ele>
        <time>2013-04-07T07:27:39Z</time>
      </trkpt>
      <trkpt lat="43.50195" lon="5.38124">
        <ele>119</ele>
        <time>2013-04-07T07:27:49Z</time>
      </trkpt>
      <trkpt lat="43.50206" lon="5.3812">
        <ele>119</ele>
        <time>2013-04-07T07:27:59Z</time>
      </trkpt>
      <trkpt lat="43.50215" lon="5.38118">
        <ele>119</ele>
        <time>2013-04-07T07:28:09Z</time>
      </trkpt>
      <trkpt lat="43.50226" lon="5.38117">
        <ele>119</ele>
        <time>2013-04-07T07:28:19Z</time>
      </trkpt>
      <trkpt lat="43.50238" lon="5.38116">
        <ele>118</ele>
        <time>2013-04-07T07:28:30Z</time>
      </trkpt>
      <trkpt lat="43.50248" lon="5.38114">
        <ele>117</ele>
        <time>2013-04-07T07:28:39Z</time>
      </trkpt>
      <trkpt lat="43.50259" lon="5.38113">
        <ele>116</ele>
        <time>2013-04-07T07:28:49Z</time>
      </trkpt>
      <trkpt lat="43.50269" lon="5.38111">
        <ele>116</ele>
        <time>2013-04-07T07:28:58Z</time>
      </trkpt>
      <trkpt lat="43.50281" lon="5.3811">
        <ele>116</ele>
        <time>2013-04-07T07:29:08Z</time>
      </trkpt>
      <trkpt lat="43.50293" lon="5.38109">
        <ele>116</ele>
        <time>2013-04-07T07:29:17Z</time>
      </trkpt>
      <trkpt lat="43.50304" lon="5.38111">
        <ele>116</ele>
        <time>2013-04-07T07:29:28Z</time>
      </trkpt>
      <trkpt lat="43.50303" lon="5.38124">
        <ele>116</ele>
        <time>2013-04-07T07:29:37Z</time>
      </trkpt>
      <trkpt lat="43.50304" lon="5.38138">
        <ele>116</ele>
        <time>2013-04-07T07:29:46Z</time>
      </trkpt>
      <trkpt lat="43.50305" lon="5.38152">
        <ele>116</ele>
        <time>2013-04-07T07:29:55Z</time>
      </trkpt>
      <trkpt lat="43.50306" lon="5.38167">
        <ele>116</ele>
        <time>2013-04-07T07:30:05Z</time>
      </trkpt>
      <trkpt lat="43.50309" lon="5.38182">
        <ele>116</ele>
        <time>2013-04-07T07:30:14Z</time>
      </trkpt>
      <trkpt lat="43.50309" lon="5.38197">
        <ele>116</ele>
        <time>2013-04-07T07:30:23Z</time>
      </trkpt>
      <trkpt lat="43.50312" lon="5.38212">
        <ele>116</ele>
        <time>2013-04-07T07:30:32Z</time>
      </trkpt>
      <trkpt lat="43.50316" lon="5.38227">
        <ele>116</ele>
        <time>2013-04-07T07:30:41Z</time>
      </trkpt>
      <trkpt lat="43.50318" lon="5.3824">
        <ele>116</ele>
        <time>2013-04-07T07:30:50Z</time>
      </trkpt>
      <trkpt lat="43.50319" lon="5.38256">
        <ele>116</ele>
        <time>2013-04-07T07:31:00Z</time>
      </trkpt>
      <trkpt lat="43.50321" lon="5.38263">
        <ele>116</ele>
        <time>2013-04-07T07:31:09Z</time>
      </trkpt>
      <trkpt lat="43.50322" lon="5.38279">
        <ele>116</ele>
        <time>2013-04-07T07:31:19Z</time>
      </trkpt>
      <trkpt lat="43.50325" lon="5.38292">
        <ele>116</ele>
        <time>2013-04-07T07:31:28Z</time>
      </trkpt>
      <trkpt lat="43.50326" lon="5.38306">
        <ele>116</ele>
        <time>2013-04-07T07:31:37Z</time>
      </trkpt>
      <trkpt lat="43.50326" lon="5.38315">
        <ele>116</ele>
        <time>2013-04-07T07:31:47Z</time>
      </trkpt>
      <trkpt lat="43.50331" lon="5.38328">
        <ele>116</ele>
        <time>2013-04-07T07:31:56Z</time>
      </trkpt>
      <trkpt lat="43.50333" lon="5.38341">
        <ele>116</ele>
        <time>2013-04-07T07:32:05Z</time>
      </trkpt>
      <trkpt lat="43.50334" lon="5.38356">
        <ele>116</ele>
        <time>2013-04-07T07:32:15Z</time>
      </trkpt>
      <trkpt lat="43.50338" lon="5.38372">
        <ele>116</ele>
        <time>2013-04-07T07:32:24Z</time>
      </trkpt>
      <trkpt lat="43.50343" lon="5.38383">
        <ele>116</ele>
        <time>2013-04-07T07:32:33Z</time>
      </trkpt>
      <trkpt lat="43.50347" lon="5.38398">
        <ele>116</ele>
        <time>2013-04-07T07:32:42Z</time>
      </trkpt>
      <trkpt lat="43.50354" lon="5.38415">
        <ele>116</ele>
        <time>2013-04-07T07:32:52Z</time>
      </trkpt>
      <trkpt lat="43.50363" lon="5.38429">
        <ele>116</ele>
        <time>2013-04-07T07:33:01Z</time>
      </trkpt>
      <trkpt lat="43.50365" lon="5.38443">
        <ele>116</ele>
        <time>2013-04-07T07:33:11Z</time>
      </trkpt>
      <trkpt lat="43.50369" lon="5.38455">
        <ele>116</ele>
        <time>2013-04-07T07:33:20Z</time>
      </trkpt>
      <trkpt lat="43.5037" lon="5.3847">
        <ele>118</ele>
        <time>2013-04-07T07:33:29Z</time>
      </trkpt>
      <trkpt lat="43.50374" lon="5.38483">
        <ele>123</ele>
        <time>2013-04-07T07:33:38Z</time>
      </trkpt>
      <trkpt lat="43.50384" lon="5.38499">
        <ele>123</ele>
        <time>2013-04-07T07:33:48Z</time>
      </trkpt>
      <trkpt lat="43.5039" lon="5.38514">
        <ele>121</ele>
        <time>2013-04-07T07:33:58Z</time>
      </trkpt>
      <trkpt lat="43.50399" lon="5.38528">
        <ele>119</ele>
        <time>2013-04-07T07:34:08Z</time>
      </trkpt>
      <trkpt lat="43.50406" lon="5.38539">
        <ele>119</ele>
        <time>2013-04-07T07:34:17Z</time>
      </trkpt>
      <trkpt lat="43.50417" lon="5.38554">
        <ele>119</ele>
        <time>2013-04-07T07:34:27Z</time>
      </trkpt>
      <trkpt lat="43.50426" lon="5.38568">
        <ele>119</ele>
        <time>2013-04-07T07:34:37Z</time>
      </trkpt>
      <trkpt lat="43.50434" lon="5.38581">
        <ele>119</ele>
        <time>2013-04-07T07:34:48Z</time>
      </trkpt>
      <trkpt lat="43.5044" lon="5.3859">
        <ele>119</ele>
        <time>2013-04-07T07:34:58Z</time>
      </trkpt>
      <trkpt lat="43.50449" lon="5.38601">
        <ele>118</ele>
        <time>2013-04-07T07:35:08Z</time>
      </trkpt>
      <trkpt lat="43.50454" lon="5.38607">
        <ele>114</ele>
        <time>2013-04-07T07:35:21Z</time>
      </trkpt>
      <trkpt lat="43.50463" lon="5.38614">
        <ele>113</ele>
        <time>2013-04-07T07:35:31Z</time>
      </trkpt>
      <trkpt lat="43.5047" lon="5.38628">
        <ele>113</ele>
        <time>2013-04-07T07:35:41Z</time>
      </trkpt>
      <trkpt lat="43.50475" lon="5.38641">
        <ele>113</ele>
        <time>2013-04-07T07:35:50Z</time>
      </trkpt>
      <trkpt lat="43.50482" lon="5.38657">
        <ele>111</ele>
        <time>2013-04-07T07:36:01Z</time>
      </trkpt>
      <trkpt lat="43.50491" lon="5.38666">
        <ele>109</ele>
        <time>2013-04-07T07:36:10Z</time>
      </trkpt>
      <trkpt lat="43.50503" lon="5.38674">
        <ele>108</ele>
        <time>2013-04-07T07:36:19Z</time>
      </trkpt>
      <trkpt lat="43.50513" lon="5.38686">
        <ele>107</ele>
        <time>2013-04-07T07:36:29Z</time>
      </trkpt>
      <trkpt lat="43.50516" lon="5.38698">
        <ele>107</ele>
        <time>2013-04-07T07:36:39Z</time>
      </trkpt>
      <trkpt lat="43.5051" lon="5.38707">
        <ele>107</ele>
        <time>2013-04-07T07:36:49Z</time>
      </trkpt>
      <trkpt lat="43.50507" lon="5.3872">
        <ele>108</ele>
        <time>2013-04-07T07:36:58Z</time>
      </trkpt>
      <trkpt lat="43.5051" lon="5.3873">
        <ele>110</ele>
        <time>2013-04-07T07:37:08Z</time>
      </trkpt>
      <trkpt lat="43.50508" lon="5.38737">
        <ele>112</ele>
        <time>2013-04-07T07:37:22Z</time>
      </trkpt>
      <trkpt lat="43.50495" lon="5.38741">
        <ele>114</ele>
        <time>2013-04-07T07:37:32Z</time>
      </trkpt>
      <trkpt lat="43.50497" lon="5.38742">
        <ele>114</ele>
        <time>2013-04-07T07:37:42Z</time>
      </trkpt>
      <trkpt lat="43.50508" lon="5.38738">
        <ele>114</ele>
        <time>2013-04-07T07:37:53Z</time>
      </trkpt>
      <trkpt lat="43.50518" lon="5.38735">
        <ele>114</ele>
        <time>2013-04-07T07:38:03Z</time>
      </trkpt>
      <trkpt lat="43.50527" lon="5.38728">
        <ele>113</ele>
        <time>2013-04-07T07:38:12Z</time>
      </trkpt>
      <trkpt lat="43.50536" lon="5.3872">
        <ele>113</ele>
        <time>2013-04-07T07:38:22Z</time>
      </trkpt>
      <trkpt lat="43.50547" lon="5.38712">
        <ele>113</ele>
        <time>2013-04-07T07:38:32Z</time>
      </trkpt>
      <trkpt lat="43.50549" lon="5.38709">
        <ele>113</ele>
        <time>2013-04-07T07:38:44Z</time>
      </trkpt>
      <trkpt lat="43.50549" lon="5.38708">
        <ele>113</ele>
        <time>2013-04-07T07:38:55Z</time>
      </trkpt>
      <trkpt lat="43.50553" lon="5.38707">
        <ele>113</ele>
        <time>2013-04-07T07:39:04Z</time>
      </trkpt>
      <trkpt lat="43.5056" lon="5.38707">
        <ele>113</ele>
        <time>2013-04-07T07:39:14Z</time>
      </trkpt>
      <trkpt lat="43.50571" lon="5.387">
        <ele>113</ele>
        <time>2013-04-07T07:39:23Z</time>
      </trkpt>
      <trkpt lat="43.50584" lon="5.38692">
        <ele>113</ele>
        <time>2013-04-07T07:39:33Z</time>
      </trkpt>
      <trkpt lat="43.50595" lon="5.38688">
        <ele>113</ele>
        <time>2013-04-07T07:39:42Z</time>
      </trkpt>
      <trkpt lat="43.50609" lon="5.38683">
        <ele>113</ele>
        <time>2013-04-07T07:39:52Z</time>
      </trkpt>
      <trkpt lat="43.50622" lon="5.3868">
        <ele>113</ele>
        <time>2013-04-07T07:40:02Z</time>
      </trkpt>
      <trkpt lat="43.50636" lon="5.38678">
        <ele>113</ele>
        <time>2013-04-07T07:40:12Z</time>
      </trkpt>
      <trkpt lat="43.50647" lon="5.38672">
        <ele>113</ele>
        <time>2013-04-07T07:40:22Z</time>
      </trkpt>
      <trkpt lat="43.5066" lon="5.38669">
        <ele>113</ele>
        <time>2013-04-07T07:40:32Z</time>
      </trkpt>
      <trkpt lat="43.50673" lon="5.38666">
        <ele>113</ele>
        <time>2013-04-07T07:40:41Z</time>
      </trkpt>
      <trkpt lat="43.50685" lon="5.38661">
        <ele>113</ele>
        <time>2013-04-07T07:40:50Z</time>
      </trkpt>
      <trkpt lat="43.50696" lon="5.38658">
        <ele>113</ele>
        <time>2013-04-07T07:40:59Z</time>
      </trkpt>
      <trkpt lat="43.50708" lon="5.38654">
        <ele>113</ele>
        <time>2013-04-07T07:41:08Z</time>
      </trkpt>
      <trkpt lat="43.5072" lon="5.3865">
        <ele>113</ele>
        <time>2013-04-07T07:41:17Z</time>
      </trkpt>
      <trkpt lat="43.50732" lon="5.38647">
        <ele>113</ele>
        <time>2013-04-07T07:41:26Z</time>
      </trkpt>
      <trkpt lat="43.50745" lon="5.38643">
        <ele>113</ele>
        <time>2013-04-07T07:41:36Z</time>
      </trkpt>
      <trkpt lat="43.50756" lon="5.38637">
        <ele>113</ele>
        <time>2013-04-07T07:41:45Z</time>
      </trkpt>
      <trkpt lat="43.50766" lon="5.38631">
        <ele>113</ele>
        <time>2013-04-07T07:41:55Z</time>
      </trkpt>
      <trkpt lat="43.50767" lon="5.38614">
        <ele>113</ele>
        <time>2013-04-07T07:42:04Z</time>
      </trkpt>
      <trkpt lat="43.5077" lon="5.38599">
        <ele>113</ele>
        <time>2013-04-07T07:42:13Z</time>
      </trkpt>
      <trkpt lat="43.50767" lon="5.38582">
        <ele>113</ele>
        <time>2013-04-07T07:42:23Z</time>
      </trkpt>
      <trkpt lat="43.50763" lon="5.38565">
        <ele>113</ele>
        <time>2013-04-07T07:42:32Z</time>
      </trkpt>
      <trkpt lat="43.50761" lon="5.38548">
        <ele>113</ele>
        <time>2013-04-07T07:42:41Z</time>
      </trkpt>
      <trkpt lat="43.50766" lon="5.38534">
        <ele>115</ele>
        <time>2013-04-07T07:42:50Z</time>
      </trkpt>
      <trkpt lat="43.50763" lon="5.38514">
        <ele>115</ele>
        <time>2013-04-07T07:43:00Z</time>
      </trkpt>
      <trkpt lat="43.50759" lon="5.38495">
        <ele>115</ele>
        <time>2013-04-07T07:43:09Z</time>
      </trkpt>
      <trkpt lat="43.5076" lon="5.38479">
        <ele>115</ele>
        <time>2013-04-07T07:43:18Z</time>
      </trkpt>
      <trkpt lat="43.50763" lon="5.38465">
        <ele>115</ele>
        <time>2013-04-07T07:43:27Z</time>
      </trkpt>
      <trkpt lat="43.50769" lon="5.3845">
        <ele>114</ele>
        <time>2013-04-07T07:43:37Z</time>
      </trkpt>
      <trkpt lat="43.50775" lon="5.38437">
        <ele>114</ele>
        <time>2013-04-07T07:43:46Z</time>
      </trkpt>
      <trkpt lat="43.50783" lon="5.38424">
        <ele>113</ele>
        <time>2013-04-07T07:43:57Z</time>
      </trkpt>
      <trkpt lat="43.50793" lon="5.38419">
        <ele>113</ele>
        <time>2013-04-07T07:44:07Z</time>
      </trkpt>
      <trkpt lat="43.50804" lon="5.38416">
        <ele>113</ele>
        <time>2013-04-07T07:44:16Z</time>
      </trkpt>
      <trkpt lat="43.50816" lon="5.38415">
        <ele>113</ele>
        <time>2013-04-07T07:44:25Z</time>
      </trkpt>
      <trkpt lat="43.50829" lon="5.38416">
        <ele>113</ele>
        <time>2013-04-07T07:44:35Z</time>
      </trkpt>
      <trkpt lat="43.50842" lon="5.38417">
        <ele>113</ele>
        <time>2013-04-07T07:44:44Z</time>
      </trkpt>
      <trkpt lat="43.50855" lon="5.38416">
        <ele>113</ele>
        <time>2013-04-07T07:44:54Z</time>
      </trkpt>
      <trkpt lat="43.50867" lon="5.38415">
        <ele>113</ele>
        <time>2013-04-07T07:45:03Z</time>
      </trkpt>
      <trkpt lat="43.50881" lon="5.38412">
        <ele>113</ele>
        <time>2013-04-07T07:45:13Z</time>
      </trkpt>
      <trkpt lat="43.50893" lon="5.3841">
        <ele>113</ele>
        <time>2013-04-07T07:45:22Z</time>
      </trkpt>
      <trkpt lat="43.50904" lon="5.3841">
        <ele>113</ele>
        <time>2013-04-07T07:45:31Z</time>
      </trkpt>
      <trkpt lat="43.50916" lon="5.38409">
        <ele>113</ele>
        <time>2013-04-07T07:45:40Z</time>
      </trkpt>
      <trkpt lat="43.50928" lon="5.38407">
        <ele>113</ele>
        <time>2013-04-07T07:45:49Z</time>
      </trkpt>
      <trkpt lat="43.50942" lon="5.38405">
        <ele>113</ele>
        <time>2013-04-07T07:45:59Z</time>
      </trkpt>
      <trkpt lat="43.50956" lon="5.38405">
        <ele>113</ele>
        <time>2013-04-07T07:46:09Z</time>
      </trkpt>
      <trkpt lat="43.50969" lon="5.38406">
        <ele>113</ele>
        <time>2013-04-07T07:46:18Z</time>
      </trkpt>
      <trkpt lat="43.5098" lon="5.38405">
        <ele>113</ele>
        <time>2013-04-07T07:46:27Z</time>
      </trkpt>
      <trkpt lat="43.50992" lon="5.38404">
        <ele>113</ele>
        <time>2013-04-07T07:46:36Z</time>
      </trkpt>
      <trkpt lat="43.51003" lon="5.38402">
        <ele>113</ele>
        <time>2013-04-07T07:46:45Z</time>
      </trkpt>
      <trkpt lat="43.51016" lon="5.38398">
        <ele>113</ele>
        <time>2013-04-07T07:46:54Z</time>
      </trkpt>
      <trkpt lat="43.51029" lon="5.38393">
        <ele>113</ele>
        <time>2013-04-07T07:47:03Z</time>
      </trkpt>
      <trkpt lat="43.5104" lon="5.38388">
        <ele>113</ele>
        <time>2013-04-07T07:47:13Z</time>
      </trkpt>
      <trkpt lat="43.51054" lon="5.38382">
        <ele>113</ele>
        <time>2013-04-07T07:47:23Z</time>
      </trkpt>
      <trkpt lat="43.51067" lon="5.38376">
        <ele>113</ele>
        <time>2013-04-07T07:47:32Z</time>
      </trkpt>
      <trkpt lat="43.51078" lon="5.38369">
        <ele>114</ele>
        <time>2013-04-07T07:47:41Z</time>
      </trkpt>
      <trkpt lat="43.51088" lon="5.38362">
        <ele>114</ele>
        <time>2013-04-07T07:47:50Z</time>
      </trkpt>
      <trkpt lat="43.51099" lon="5.38353">
        <ele>114</ele>
        <time>2013-04-07T07:48:00Z</time>
      </trkpt>
      <trkpt lat="43.51109" lon="5.38344">
        <ele>114</ele>
        <time>2013-04-07T07:48:09Z</time>
      </trkpt>
      <trkpt lat="43.51119" lon="5.38335">
        <ele>114</ele>
        <time>2013-04-07T07:48:18Z</time>
      </trkpt>
      <trkpt lat="43.51131" lon="5.38328">
        <ele>114</ele>
        <time>2013-04-07T07:48:27Z</time>
      </trkpt>
      <trkpt lat="43.51143" lon="5.38318">
        <ele>114</ele>
        <time>2013-04-07T07:48:37Z</time>
      </trkpt>
      <trkpt lat="43.51154" lon="5.38309">
        <ele>115</ele>
        <time>2013-04-07T07:48:46Z</time>
      </trkpt>
      <trkpt lat="43.51165" lon="5.38299">
        <ele>116</ele>
        <time>2013-04-07T07:48:56Z</time>
      </trkpt>
      <trkpt lat="43.51177" lon="5.38292">
        <ele>117</ele>
        <time>2013-04-07T07:49:05Z</time>
      </trkpt>
      <trkpt lat="43.51189" lon="5.38283">
        <ele>118</ele>
        <time>2013-04-07T07:49:15Z</time>
      </trkpt>
      <trkpt lat="43.51199" lon="5.38276">
        <ele>119</ele>
        <time>2013-04-07T07:49:24Z</time>
      </trkpt>
      <trkpt lat="43.5121" lon="5.38271">
        <ele>120</ele>
        <time>2013-04-07T07:49:33Z</time>
      </trkpt>
      <trkpt lat="43.51223" lon="5.38266">
        <ele>121</ele>
        <time>2013-04-07T07:49:43Z</time>
      </trkpt>
      <trkpt lat="43.51235" lon="5.38261">
        <ele>122</ele>
        <time>2013-04-07T07:49:52Z</time>
      </trkpt>
      <trkpt lat="43.51247" lon="5.38256">
        <ele>122</ele>
        <time>2013-04-07T07:50:01Z</time>
      </trkpt>
      <trkpt lat="43.5126" lon="5.38254">
        <ele>122</ele>
        <time>2013-04-07T07:50:10Z</time>
      </trkpt>
      <trkpt lat="43.51271" lon="5.38248">
        <ele>123</ele>
        <time>2013-04-07T07:50:19Z</time>
      </trkpt>
      <trkpt lat="43.51283" lon="5.38243">
        <ele>123</ele>
        <time>2013-04-07T07:50:28Z</time>
      </trkpt>
      <trkpt lat="43.51295" lon="5.38238">
        <ele>124</ele>
        <time>2013-04-07T07:50:37Z</time>
      </trkpt>
      <trkpt lat="43.51308" lon="5.38233">
        <ele>125</ele>
        <time>2013-04-07T07:50:47Z</time>
      </trkpt>
      <trkpt lat="43.51321" lon="5.38228">
        <ele>126</ele>
        <time>2013-04-07T07:50:57Z</time>
      </trkpt>
      <trkpt lat="43.51332" lon="5.38223">
        <ele>126</ele>
        <time>2013-04-07T07:51:06Z</time>
      </trkpt>
      <trkpt lat="43.51344" lon="5.38218">
        <ele>126</ele>
        <time>2013-04-07T07:51:15Z</time>
      </trkpt>
      <trkpt lat="43.51357" lon="5.38214">
        <ele>127</ele>
        <time>2013-04-07T07:51:25Z</time>
      </trkpt>
      <trkpt lat="43.51369" lon="5.3821">
        <ele>127</ele>
        <time>2013-04-07T07:51:34Z</time>
      </trkpt>
      <trkpt lat="43.51381" lon="5.38206">
        <ele>127</ele>
        <time>2013-04-07T07:51:43Z</time>
      </trkpt>
      <trkpt lat="43.51393" lon="5.38201">
        <ele>127</ele>
        <time>2013-04-07T07:51:53Z</time>
      </trkpt>
      <trkpt lat="43.51405" lon="5.38194">
        <ele>127</ele>
        <time>2013-04-07T07:52:03Z</time>
      </trkpt>
      <trkpt lat="43.51416" lon="5.38188">
        <ele>128</ele>
        <time>2013-04-07T07:52:12Z</time>
      </trkpt>
      <trkpt lat="43.51424" lon="5.38186">
        <ele>128</ele>
        <time>2013-04-07T07:52:23Z</time>
      </trkpt>
      <trkpt lat="43.51432" lon="5.38198">
        <ele>128</ele>
        <time>2013-04-07T07:52:32Z</time>
      </trkpt>
      <trkpt lat="43.51433" lon="5.38214">
        <ele>128</ele>
        <time>2013-04-07T07:52:42Z</time>
      </trkpt>
      <trkpt lat="43.51432" lon="5.38229">
        <ele>128</ele>
        <time>2013-04-07T07:52:51Z</time>
      </trkpt>
      <trkpt lat="43.51427" lon="5.38244">
        <ele>128</ele>
        <time>2013-04-07T07:53:01Z</time>
      </trkpt>
      <trkpt lat="43.51419" lon="5.38255">
        <ele>128</ele>
        <time>2013-04-07T07:53:10Z</time>
      </trkpt>
      <trkpt lat="43.51408" lon="5.38265">
        <ele>128</ele>
        <time>2013-04-07T07:53:20Z</time>
      </trkpt>
      <trkpt lat="43.51398" lon="5.38276">
        <ele>130</ele>
        <time>2013-04-07T07:53:29Z</time>
      </trkpt>
      <trkpt lat="43.51389" lon="5.38285">
        <ele>130</ele>
        <time>2013-04-07T07:53:39Z</time>
      </trkpt>
      <trkpt lat="43.51382" lon="5.38296">
        <ele>130</ele>
        <time>2013-04-07T07:53:48Z</time>
      </trkpt>
      <trkpt lat="43.51374" lon="5.38309">
        <ele>131</ele>
        <time>2013-04-07T07:53:57Z</time>
      </trkpt>
      <trkpt lat="43.51368" lon="5.38325">
        <ele>132</ele>
        <time>2013-04-07T07:54:07Z</time>
      </trkpt>
      <trkpt lat="43.5136" lon="5.38338">
        <ele>132</ele>
        <time>2013-04-07T07:54:16Z</time>
      </trkpt>
      <trkpt lat="43.51355" lon="5.38351">
        <ele>132</ele>
        <time>2013-04-07T07:54:25Z</time>
      </trkpt>
      <trkpt lat="43.51348" lon="5.38365">
        <ele>132</ele>
        <time>2013-04-07T07:54:34Z</time>
      </trkpt>
      <trkpt lat="43.51341" lon="5.38377">
        <ele>135</ele>
        <time>2013-04-07T07:54:43Z</time>
      </trkpt>
      <trkpt lat="43.51335" lon="5.38391">
        <ele>136</ele>
        <time>2013-04-07T07:54:53Z</time>
      </trkpt>
      <trkpt lat="43.51331" lon="5.38403">
        <ele>137</ele>
        <time>2013-04-07T07:55:02Z</time>
      </trkpt>
      <trkpt lat="43.51331" lon="5.38417">
        <ele>137</ele>
        <time>2013-04-07T07:55:12Z</time>
      </trkpt>
      <trkpt lat="43.51329" lon="5.38431">
        <ele>137</ele>
        <time>2013-04-07T07:55:22Z</time>
      </trkpt>
      <trkpt lat="43.51329" lon="5.38446">
        <ele>139</ele>
        <time>2013-04-07T07:55:33Z</time>
      </trkpt>
      <trkpt lat="43.51331" lon="5.38461">
        <ele>140</ele>
        <time>2013-04-07T07:55:44Z</time>
      </trkpt>
      <trkpt lat="43.51332" lon="5.38476">
        <ele>145</ele>
        <time>2013-04-07T07:55:53Z</time>
      </trkpt>
      <trkpt lat="43.51337" lon="5.38483">
        <ele>146</ele>
        <time>2013-04-07T07:56:03Z</time>
      </trkpt>
      <trkpt lat="43.5134" lon="5.38497">
        <ele>150</ele>
        <time>2013-04-07T07:56:12Z</time>
      </trkpt>
      <trkpt lat="43.51345" lon="5.38508">
        <ele>150</ele>
        <time>2013-04-07T07:56:21Z</time>
      </trkpt>
      <trkpt lat="43.51352" lon="5.38516">
        <ele>150</ele>
        <time>2013-04-07T07:56:30Z</time>
      </trkpt>
      <trkpt lat="43.51358" lon="5.38526">
        <ele>150</ele>
        <time>2013-04-07T07:56:40Z</time>
      </trkpt>
      <trkpt lat="43.51363" lon="5.38537">
        <ele>149</ele>
        <time>2013-04-07T07:56:50Z</time>
      </trkpt>
      <trkpt lat="43.5137" lon="5.38546">
        <ele>149</ele>
        <time>2013-04-07T07:57:00Z</time>
      </trkpt>
      <trkpt lat="43.51375" lon="5.38558">
        <ele>149</ele>
        <time>2013-04-07T07:57:10Z</time>
      </trkpt>
      <trkpt lat="43.51382" lon="5.38568">
        <ele>149</ele>
        <time>2013-04-07T07:57:19Z</time>
      </trkpt>
      <trkpt lat="43.5139" lon="5.3858">
        <ele>149</ele>
        <time>2013-04-07T07:57:29Z</time>
      </trkpt>
      <trkpt lat="43.51397" lon="5.3859">
        <ele>149</ele>
        <time>2013-04-07T07:57:39Z</time>
      </trkpt>
      <trkpt lat="43.51403" lon="5.38603">
        <ele>149</ele>
        <time>2013-04-07T07:57:48Z</time>
      </trkpt>
      <trkpt lat="43.51409" lon="5.38618">
        <ele>149</ele>
        <time>2013-04-07T07:57:57Z</time>
      </trkpt>
      <trkpt lat="43.51416" lon="5.38631">
        <ele>151</ele>
        <time>2013-04-07T07:58:07Z</time>
      </trkpt>
      <trkpt lat="43.51421" lon="5.38645">
        <ele>153</ele>
        <time>2013-04-07T07:58:16Z</time>
      </trkpt>
      <trkpt lat="43.51427" lon="5.38659">
        <ele>153</ele>
        <time>2013-04-07T07:58:25Z</time>
      </trkpt>
      <trkpt lat="43.51432" lon="5.38672">
        <ele>154</ele>
        <time>2013-04-07T07:58:34Z</time>
      </trkpt>
      <trkpt lat="43.51439" lon="5.38685">
        <ele>155</ele>
        <time>2013-04-07T07:58:43Z</time>
      </trkpt>
      <trkpt lat="43.51447" lon="5.38697">
        <ele>158</ele>
        <time>2013-04-07T07:58:53Z</time>
      </trkpt>
      <trkpt lat="43.51457" lon="5.38708">
        <ele>158</ele>
        <time>2013-04-07T07:59:04Z</time>
      </trkpt>
      <trkpt lat="43.51469" lon="5.38717">
        <ele>158</ele>
        <time>2013-04-07T07:59:14Z</time>
      </trkpt>
      <trkpt lat="43.51481" lon="5.38724">
        <ele>159</ele>
        <time>2013-04-07T07:59:24Z</time>
      </trkpt>
      <trkpt lat="43.51491" lon="5.38731">
        <ele>159</ele>
        <time>2013-04-07T07:59:34Z</time>
      </trkpt>
      <trkpt lat="43.51503" lon="5.38737">
        <ele>159</ele>
        <time>2013-04-07T07:59:43Z</time>
      </trkpt>
      <trkpt lat="43.51516" lon="5.38745">
        <ele>159</ele>
        <time>2013-04-07T07:59:53Z</time>
      </trkpt>
      <trkpt lat="43.51526" lon="5.38754">
        <ele>159</ele>
        <time>2013-04-07T08:00:02Z</time>
      </trkpt>
      <trkpt lat="43.51537" lon="5.38762">
        <ele>159</ele>
        <time>2013-04-07T08:00:11Z</time>
      </trkpt>
      <trkpt lat="43.51546" lon="5.38773">
        <ele>159</ele>
        <time>2013-04-07T08:00:21Z</time>
      </trkpt>
      <trkpt lat="43.51556" lon="5.38782">
        <ele>159</ele>
        <time>2013-04-07T08:00:30Z</time>
      </trkpt>
      <trkpt lat="43.51567" lon="5.3879">
        <ele>159</ele>
        <time>2013-04-07T08:00:39Z</time>
      </trkpt>
      <trkpt lat="43.51575" lon="5.38799">
        <ele>159</ele>
        <time>2013-04-07T08:00:48Z</time>
      </trkpt>
      <trkpt lat="43.51585" lon="5.38808">
        <ele>159</ele>
        <time>2013-04-07T08:00:58Z</time>
      </trkpt>
      <trkpt lat="43.51595" lon="5.3882">
        <ele>159</ele>
        <time>2013-04-07T08:01:08Z</time>
      </trkpt>
      <trkpt lat="43.51603" lon="5.38832">
        <ele>159</ele>
        <time>2013-04-07T08:01:17Z</time>
      </trkpt>
      <trkpt lat="43.5161" lon="5.38845">
        <ele>159</ele>
        <time>2013-04-07T08:01:26Z</time>
      </trkpt>
      <trkpt lat="43.51615" lon="5.38859">
        <ele>159</ele>
        <time>2013-04-07T08:01:36Z</time>
      </trkpt>
      <trkpt lat="43.51619" lon="5.38871">
        <ele>159</ele>
        <time>2013-04-07T08:01:45Z</time>
      </trkpt>
      <trkpt lat="43.51623" lon="5.38885">
        <ele>160</ele>
        <time>2013-04-07T08:01:54Z</time>
      </trkpt>
      <trkpt lat="43.51627" lon="5.389">
        <ele>163</ele>
        <time>2013-04-07T08:02:04Z</time>
      </trkpt>
      <trkpt lat="43.5163" lon="5.38914">
        <ele>164</ele>
        <time>2013-04-07T08:02:14Z</time>
      </trkpt>
      <trkpt lat="43.51633" lon="5.38928">
        <ele>165</ele>
        <time>2013-04-07T08:02:23Z</time>
      </trkpt>
      <trkpt lat="43.51636" lon="5.38941">
        <ele>166</ele>
        <time>2013-04-07T08:02:32Z</time>
      </trkpt>
      <trkpt lat="43.51638" lon="5.38955">
        <ele>167</ele>
        <time>2013-04-07T08:02:42Z</time>
      </trkpt>
      <trkpt lat="43.51641" lon="5.38967">
        <ele>170</ele>
        <time>2013-04-07T08:02:51Z</time>
      </trkpt>
      <trkpt lat="43.51646" lon="5.3898">
        <ele>175</ele>
        <time>2013-04-07T08:03:00Z</time>
      </trkpt>
      <trkpt lat="43.51657" lon="5.38986">
        <ele>176</ele>
        <time>2013-04-07T08:03:09Z</time>
      </trkpt>
      <trkpt lat="43.51668" lon="5.38989">
        <ele>176</ele>
        <time>2013-04-07T08:03:18Z</time>
      </trkpt>
      <trkpt lat="43.51677" lon="5.3899">
        <ele>176</ele>
        <time>2013-04-07T08:03:27Z</time>
      </trkpt>
      <trkpt lat="43.51687" lon="5.38998">
        <ele>176</ele>
        <time>2013-04-07T08:03:36Z</time>
      </trkpt>
      <trkpt lat="43.51694" lon="5.39009">
        <ele>175</ele>
        <time>2013-04-07T08:03:45Z</time>
      </trkpt>
      <trkpt lat="43.51702" lon="5.39022">
        <ele>174</ele>
        <time>2013-04-07T08:03:55Z</time>
      </trkpt>
      <trkpt lat="43.5171" lon="5.39036">
        <ele>173</ele>
        <time>2013-04-07T08:04:05Z</time>
      </trkpt>
      <trkpt lat="43.51718" lon="5.39049">
        <ele>172</ele>
        <time>2013-04-07T08:04:16Z</time>
      </trkpt>
      <trkpt lat="43.51727" lon="5.39063">
        <ele>172</ele>
        <time>2013-04-07T08:04:26Z</time>
      </trkpt>
      <trkpt lat="43.51735" lon="5.39077">
        <ele>172</ele>
        <time>2013-04-07T08:04:35Z</time>
      </trkpt>
      <trkpt lat="43.51743" lon="5.39089">
        <ele>172</ele>
        <time>2013-04-07T08:04:45Z</time>
      </trkpt>
      <trkpt lat="43.51751" lon="5.39103">
        <ele>172</ele>
        <time>2013-04-07T08:04:55Z</time>
      </trkpt>
      <trkpt lat="43.51759" lon="5.39116">
        <ele>172</ele>
        <time>2013-04-07T08:05:04Z</time>
      </trkpt>
      <trkpt lat="43.51767" lon="5.39129">
        <ele>172</ele>
        <time>2013-04-07T08:05:14Z</time>
      </trkpt>
      <trkpt lat="43.51779" lon="5.39141">
        <ele>172</ele>
        <time>2013-04-07T08:05:23Z</time>
      </trkpt>
      <trkpt lat="43.51788" lon="5.39154">
        <ele>172</ele>
        <time>2013-04-07T08:05:34Z</time>
      </trkpt>
      <trkpt lat="43.51796" lon="5.39169">
        <ele>172</ele>
        <time>2013-04-07T08:05:44Z</time>
      </trkpt>
      <trkpt lat="43.51806" lon="5.39184">
        <ele>172</ele>
        <time>2013-04-07T08:05:54Z</time>
      </trkpt>
      <trkpt lat="43.51814" lon="5.39197">
        <ele>172</ele>
        <time>2013-04-07T08:06:04Z</time>
      </trkpt>
      <trkpt lat="43.51823" lon="5.39211">
        <ele>172</ele>
        <time>2013-04-07T08:06:15Z</time>
      </trkpt>
      <trkpt lat="43.5183" lon="5.39223">
        <ele>173</ele>
        <time>2013-04-07T08:06:24Z</time>
      </trkpt>
      <trkpt lat="43.51837" lon="5.39233">
        <ele>176</ele>
        <time>2013-04-07T08:06:33Z</time>
      </trkpt>
      <trkpt lat="43.51847" lon="5.39247">
        <ele>179</ele>
        <time>2013-04-07T08:06:44Z</time>
      </trkpt>
      <trkpt lat="43.51848" lon="5.39253">
        <ele>179</ele>
        <time>2013-04-07T08:06:53Z</time>
      </trkpt>
      <trkpt lat="43.51848" lon="5.39256">
        <ele>178</ele>
        <time>2013-04-07T08:07:07Z</time>
      </trkpt>
      <trkpt lat="43.5185" lon="5.39257">
        <ele>175</ele>
        <time>2013-04-07T08:07:19Z</time>
      </trkpt>
      <trkpt lat="43.51855" lon="5.39267">
        <ele>175</ele>
        <time>2013-04-07T08:07:28Z</time>
      </trkpt>
      <trkpt lat="43.51863" lon="5.39279">
        <ele>175</ele>
        <time>2013-04-07T08:07:38Z</time>
      </trkpt>
      <trkpt lat="43.5187" lon="5.39291">
        <ele>175</ele>
        <time>2013-04-07T08:07:49Z</time>
      </trkpt>
      <trkpt lat="43.51878" lon="5.39307">
        <ele>171</ele>
        <time>2013-04-07T08:07:58Z</time>
      </trkpt>
      <trkpt lat="43.51892" lon="5.39321">
        <ele>171</ele>
        <time>2013-04-07T08:08:08Z</time>
      </trkpt>
      <trkpt lat="43.51906" lon="5.39336">
        <ele>171</ele>
        <time>2013-04-07T08:08:17Z</time>
      </trkpt>
      <trkpt lat="43.51911" lon="5.39349">
        <ele>170</ele>
        <time>2013-04-07T08:08:26Z</time>
      </trkpt>
      <trkpt lat="43.51917" lon="5.39363">
        <ele>170</ele>
        <time>2013-04-07T08:08:35Z</time>
      </trkpt>
      <trkpt lat="43.51922" lon="5.39378">
        <ele>169</ele>
        <time>2013-04-07T08:08:45Z</time>
      </trkpt>
      <trkpt lat="43.51933" lon="5.39393">
        <ele>169</ele>
        <time>2013-04-07T08:08:55Z</time>
      </trkpt>
      <trkpt lat="43.51944" lon="5.39408">
        <ele>169</ele>
        <time>2013-04-07T08:09:04Z</time>
      </trkpt>
      <trkpt lat="43.51954" lon="5.39423">
        <ele>169</ele>
        <time>2013-04-07T08:09:13Z</time>
      </trkpt>
      <trkpt lat="43.51961" lon="5.39436">
        <ele>170</ele>
        <time>2013-04-07T08:09:22Z</time>
      </trkpt>
      <trkpt lat="43.51968" lon="5.39451">
        <ele>172</ele>
        <time>2013-04-07T08:09:31Z</time>
      </trkpt>
      <trkpt lat="43.51974" lon="5.39464">
        <ele>174</ele>
        <time>2013-04-07T08:09:40Z</time>
      </trkpt>
      <trkpt lat="43.5198" lon="5.39477">
        <ele>175</ele>
        <time>2013-04-07T08:09:49Z</time>
      </trkpt>
      <trkpt lat="43.51987" lon="5.39491">
        <ele>175</ele>
        <time>2013-04-07T08:09:58Z</time>
      </trkpt>
      <trkpt lat="43.51991" lon="5.39504">
        <ele>175</ele>
        <time>2013-04-07T08:10:07Z</time>
      </trkpt>
      <trkpt lat="43.51996" lon="5.39517">
        <ele>175</ele>
        <time>2013-04-07T08:10:16Z</time>
      </trkpt>
      <trkpt lat="43.52003" lon="5.39532">
        <ele>175</ele>
        <time>2013-04-07T08:10:27Z</time>
      </trkpt>
      <trkpt lat="43.5201" lon="5.39547">
        <ele>175</ele>
        <time>2013-04-07T08:10:37Z</time>
      </trkpt>
      <trkpt lat="43.52017" lon="5.39561">
        <ele>175</ele>
        <time>2013-04-07T08:10:48Z</time>
      </trkpt>
      <trkpt lat="43.52023" lon="5.39575">
        <ele>175</ele>
        <time>2013-04-07T08:10:58Z</time>
      </trkpt>
      <trkpt lat="43.5203" lon="5.39587">
        <ele>175</ele>
        <time>2013-04-07T08:11:07Z</time>
      </trkpt>
      <trkpt lat="43.52031" lon="5.39591">
        <ele>175</ele>
        <time>2013-04-07T08:11:19Z</time>
      </trkpt>
      <trkpt lat="43.52028" lon="5.39589">
        <ele>175</ele>
        <time>2013-04-07T08:11:33Z</time>
      </trkpt>
      <trkpt lat="43.52027" lon="5.39587">
        <ele>175</ele>
        <time>2013-04-07T08:11:44Z</time>
      </trkpt>
      <trkpt lat="43.52026" lon="5.3959">
        <ele>175</ele>
        <time>2013-04-07T08:11:54Z</time>
      </trkpt>
      <trkpt lat="43.52028" lon="5.39588">
        <ele>175</ele>
        <time>2013-04-07T08:12:12Z</time>
      </trkpt>
      <trkpt lat="43.52034" lon="5.39593">
        <ele>174</ele>
        <time>2013-04-07T08:12:22Z</time>
      </trkpt>
      <trkpt lat="43.52041" lon="5.39608">
        <ele>174</ele>
        <time>2013-04-07T08:12:32Z</time>
      </trkpt>
      <trkpt lat="43.52047" lon="5.39622">
        <ele>174</ele>
        <time>2013-04-07T08:12:41Z</time>
      </trkpt>
      <trkpt lat="43.52053" lon="5.39634">
        <ele>174</ele>
        <time>2013-04-07T08:12:50Z</time>
      </trkpt>
      <trkpt lat="43.52055" lon="5.39642">
        <ele>174</ele>
        <time>2013-04-07T08:13:00Z</time>
      </trkpt>
      <trkpt lat="43.5206" lon="5.39649">
        <ele>174</ele>
        <time>2013-04-07T08:13:10Z</time>
      </trkpt>
      <trkpt lat="43.52065" lon="5.39658">
        <ele>176</ele>
        <time>2013-04-07T08:13:19Z</time>
      </trkpt>
      <trkpt lat="43.52069" lon="5.39665">
        <ele>177</ele>
        <time>2013-04-07T08:13:30Z</time>
      </trkpt>
      <trkpt lat="43.5207" lon="5.39666">
        <ele>177</ele>
        <time>2013-04-07T08:14:06Z</time>
      </trkpt>
      <trkpt lat="43.52078" lon="5.39679">
        <ele>177</ele>
        <time>2013-04-07T08:14:16Z</time>
      </trkpt>
      <trkpt lat="43.52086" lon="5.39692">
        <ele>177</ele>
        <time>2013-04-07T08:14:27Z</time>
      </trkpt>
      <trkpt lat="43.52091" lon="5.39701">
        <ele>177</ele>
        <time>2013-04-07T08:14:36Z</time>
      </trkpt>
      <trkpt lat="43.521" lon="5.39713">
        <ele>177</ele>
        <time>2013-04-07T08:14:46Z</time>
      </trkpt>
      <trkpt lat="43.52108" lon="5.39726">
        <ele>177</ele>
        <time>2013-04-07T08:14:55Z</time>
      </trkpt>
      <trkpt lat="43.52117" lon="5.39741">
        <ele>177</ele>
        <time>2013-04-07T08:15:06Z</time>
      </trkpt>
      <trkpt lat="43.52125" lon="5.39755">
        <ele>178</ele>
        <time>2013-04-07T08:15:16Z</time>
      </trkpt>
      <trkpt lat="43.52134" lon="5.39768">
        <ele>179</ele>
        <time>2013-04-07T08:15:26Z</time>
      </trkpt>
      <trkpt lat="43.52143" lon="5.39782">
        <ele>179</ele>
        <time>2013-04-07T08:15:36Z</time>
      </trkpt>
      <trkpt lat="43.52152" lon="5.39793">
        <ele>179</ele>
        <time>2013-04-07T08:15:45Z</time>
      </trkpt>
      <trkpt lat="43.52161" lon="5.39804">
        <ele>179</ele>
        <time>2013-04-07T08:15:55Z</time>
      </trkpt>
      <trkpt lat="43.52169" lon="5.39818">
        <ele>180</ele>
        <time>2013-04-07T08:16:05Z</time>
      </trkpt>
      <trkpt lat="43.52178" lon="5.3983">
        <ele>180</ele>
        <time>2013-04-07T08:16:15Z</time>
      </trkpt>
      <trkpt lat="43.52187" lon="5.39841">
        <ele>180</ele>
        <time>2013-04-07T08:16:26Z</time>
      </trkpt>
      <trkpt lat="43.52195" lon="5.39853">
        <ele>180</ele>
        <time>2013-04-07T08:16:36Z</time>
      </trkpt>
      <trkpt lat="43.52203" lon="5.39867">
        <ele>180</ele>
        <time>2013-04-07T08:16:47Z</time>
      </trkpt>
      <trkpt lat="43.52213" lon="5.3988">
        <ele>180</ele>
        <time>2013-04-07T08:16:58Z</time>
      </trkpt>
      <trkpt lat="43.52222" lon="5.39893">
        <ele>180</ele>
        <time>2013-04-07T08:17:08Z</time>
      </trkpt>
      <trkpt lat="43.52233" lon="5.39904">
        <ele>181</ele>
        <time>2013-04-07T08:17:18Z</time>
      </trkpt>
      <trkpt lat="43.52241" lon="5.39917">
        <ele>182</ele>
        <time>2013-04-07T08:17:28Z</time>
      </trkpt>
      <trkpt lat="43.52249" lon="5.3993">
        <ele>182</ele>
        <time>2013-04-07T08:17:38Z</time>
      </trkpt>
      <trkpt lat="43.52259" lon="5.39943">
        <ele>184</ele>
        <time>2013-04-07T08:17:49Z</time>
      </trkpt>
      <trkpt lat="43.52267" lon="5.39954">
        <ele>184</ele>
        <time>2013-04-07T08:17:58Z</time>
      </trkpt>
      <trkpt lat="43.52278" lon="5.39967">
        <ele>184</ele>
        <time>2013-04-07T08:18:09Z</time>
      </trkpt>
      <trkpt lat="43.52288" lon="5.39979">
        <ele>184</ele>
        <time>2013-04-07T08:18:20Z</time>
      </trkpt>
      <trkpt lat="43.52296" lon="5.39988">
        <ele>184</ele>
        <time>2013-04-07T08:18:29Z</time>
      </trkpt>
      <trkpt lat="43.52306" lon="5.39996">
        <ele>184</ele>
        <time>2013-04-07T08:18:39Z</time>
      </trkpt>
      <trkpt lat="43.52317" lon="5.40002">
        <ele>184</ele>
        <time>2013-04-07T08:18:48Z</time>
      </trkpt>
      <trkpt lat="43.5233" lon="5.40008">
        <ele>184</ele>
        <time>2013-04-07T08:18:57Z</time>
      </trkpt>
      <trkpt lat="43.52341" lon="5.40014">
        <ele>184</ele>
        <time>2013-04-07T08:19:07Z</time>
      </trkpt>
      <trkpt lat="43.52354" lon="5.40018">
        <ele>184</ele>
        <time>2013-04-07T08:19:17Z</time>
      </trkpt>
      <trkpt lat="43.52366" lon="5.40022">
        <ele>184</ele>
        <time>2013-04-07T08:19:27Z</time>
      </trkpt>
      <trkpt lat="43.52377" lon="5.40026">
        <ele>186</ele>
        <time>2013-04-07T08:19:36Z</time>
      </trkpt>
      <trkpt lat="43.52386" lon="5.40032">
        <ele>186</ele>
        <time>2013-04-07T08:19:46Z</time>
      </trkpt>
      <trkpt lat="43.52397" lon="5.40039">
        <ele>186</ele>
        <time>2013-04-07T08:19:55Z</time>
      </trkpt>
      <trkpt lat="43.52409" lon="5.4005">
        <ele>186</ele>
        <time>2013-04-07T08:20:05Z</time>
      </trkpt>
      <trkpt lat="43.52419" lon="5.40059">
        <ele>186</ele>
        <time>2013-04-07T08:20:14Z</time>
      </trkpt>
      <trkpt lat="43.5243" lon="5.40066">
        <ele>186</ele>
        <time>2013-04-07T08:20:23Z</time>
      </trkpt>
      <trkpt lat="43.52443" lon="5.40076">
        <ele>186</ele>
        <time>2013-04-07T08:20:33Z</time>
      </trkpt>
      <trkpt lat="43.52454" lon="5.40083">
        <ele>186</ele>
        <time>2013-04-07T08:20:42Z</time>
      </trkpt>
      <trkpt lat="43.52467" lon="5.40091">
        <ele>186</ele>
        <time>2013-04-07T08:20:51Z</time>
      </trkpt>
      <trkpt lat="43.52478" lon="5.40097">
        <ele>186</ele>
        <time>2013-04-07T08:21:00Z</time>
      </trkpt>
      <trkpt lat="43.52489" lon="5.40101">
        <ele>186</ele>
        <time>2013-04-07T08:21:09Z</time>
      </trkpt>
      <trkpt lat="43.52501" lon="5.40107">
        <ele>186</ele>
        <time>2013-04-07T08:21:18Z</time>
      </trkpt>
      <trkpt lat="43.52512" lon="5.40112">
        <ele>186</ele>
        <time>2013-04-07T08:21:27Z</time>
      </trkpt>
      <trkpt lat="43.52523" lon="5.40114">
        <ele>186</ele>
        <time>2013-04-07T08:21:36Z</time>
      </trkpt>
      <trkpt lat="43.52534" lon="5.4011">
        <ele>186</ele>
        <time>2013-04-07T08:21:45Z</time>
      </trkpt>
      <trkpt lat="43.52541" lon="5.40114">
        <ele>186</ele>
        <time>2013-04-07T08:21:54Z</time>
      </trkpt>
      <trkpt lat="43.52552" lon="5.40118">
        <ele>186</ele>
        <time>2013-04-07T08:22:03Z</time>
      </trkpt>
      <trkpt lat="43.52561" lon="5.40114">
        <ele>186</ele>
        <time>2013-04-07T08:22:12Z</time>
      </trkpt>
      <trkpt lat="43.52572" lon="5.40109">
        <ele>186</ele>
        <time>2013-04-07T08:22:21Z</time>
      </trkpt>
      <trkpt lat="43.52583" lon="5.40104">
        <ele>187</ele>
        <time>2013-04-07T08:22:30Z</time>
      </trkpt>
      <trkpt lat="43.52595" lon="5.40098">
        <ele>187</ele>
        <time>2013-04-07T08:22:41Z</time>
      </trkpt>
      <trkpt lat="43.52605" lon="5.40094">
        <ele>187</ele>
        <time>2013-04-07T08:22:51Z</time>
      </trkpt>
      <trkpt lat="43.52616" lon="5.40101">
        <ele>187</ele>
        <time>2013-04-07T08:23:01Z</time>
      </trkpt>
      <trkpt lat="43.52624" lon="5.40116">
        <ele>187</ele>
        <time>2013-04-07T08:23:12Z</time>
      </trkpt>
      <trkpt lat="43.52631" lon="5.4013">
        <ele>187</ele>
        <time>2013-04-07T08:23:21Z</time>
      </trkpt>
      <trkpt lat="43.52632" lon="5.40148">
        <ele>187</ele>
        <time>2013-04-07T08:23:31Z</time>
      </trkpt>
      <trkpt lat="43.52642" lon="5.40164">
        <ele>187</ele>
        <time>2013-04-07T08:23:42Z</time>
      </trkpt>
      <trkpt lat="43.52651" lon="5.40176">
        <ele>187</ele>
        <time>2013-04-07T08:23:51Z</time>
      </trkpt>
      <trkpt lat="43.52661" lon="5.40192">
        <ele>187</ele>
        <time>2013-04-07T08:24:01Z</time>
      </trkpt>
      <trkpt lat="43.52668" lon="5.40205">
        <ele>187</ele>
        <time>2013-04-07T08:24:10Z</time>
      </trkpt>
      <trkpt lat="43.52677" lon="5.40216">
        <ele>187</ele>
        <time>2013-04-07T08:24:27Z</time>
      </trkpt>
      <trkpt lat="43.52683" lon="5.40232">
        <ele>187</ele>
        <time>2013-04-07T08:24:37Z</time>
      </trkpt>
      <trkpt lat="43.52693" lon="5.40236">
        <ele>182</ele>
        <time>2013-04-07T08:24:46Z</time>
      </trkpt>
      <trkpt lat="43.52701" lon="5.40263">
        <ele>177</ele>
        <time>2013-04-07T08:24:55Z</time>
      </trkpt>
      <trkpt lat="43.52704" lon="5.40284">
        <ele>183</ele>
        <time>2013-04-07T08:25:04Z</time>
      </trkpt>
      <trkpt lat="43.52709" lon="5.403">
        <ele>185</ele>
        <time>2013-04-07T08:25:14Z</time>
      </trkpt>
      <trkpt lat="43.52715" lon="5.40313">
        <ele>185</ele>
        <time>2013-04-07T08:25:23Z</time>
      </trkpt>
      <trkpt lat="43.5272" lon="5.40327">
        <ele>185</ele>
        <time>2013-04-07T08:25:32Z</time>
      </trkpt>
      <trkpt lat="43.52726" lon="5.40344">
        <ele>185</ele>
        <time>2013-04-07T08:25:43Z</time>
      </trkpt>
      <trkpt lat="43.52733" lon="5.40356">
        <ele>185</ele>
        <time>2013-04-07T08:25:52Z</time>
      </trkpt>
      <trkpt lat="43.52738" lon="5.40372">
        <ele>185</ele>
        <time>2013-04-07T08:26:02Z</time>
      </trkpt>
      <trkpt lat="43.52744" lon="5.40386">
        <ele>185</ele>
        <time>2013-04-07T08:26:11Z</time>
      </trkpt>
      <trkpt lat="43.5275" lon="5.40401">
        <ele>185</ele>
        <time>2013-04-07T08:26:21Z</time>
      </trkpt>
      <trkpt lat="43.52755" lon="5.40415">
        <ele>185</ele>
        <time>2013-04-07T08:26:30Z</time>
      </trkpt>
      <trkpt lat="43.52761" lon="5.40428">
        <ele>185</ele>
        <time>2013-04-07T08:26:39Z</time>
      </trkpt>
      <trkpt lat="43.52767" lon="5.40442">
        <ele>185</ele>
        <time>2013-04-07T08:26:48Z</time>
      </trkpt>
      <trkpt lat="43.52774" lon="5.40455">
        <ele>185</ele>
        <time>2013-04-07T08:26:57Z</time>
      </trkpt>
      <trkpt lat="43.52781" lon="5.40471">
        <ele>185</ele>
        <time>2013-04-07T08:27:08Z</time>
      </trkpt>
      <trkpt lat="43.5279" lon="5.40486">
        <ele>185</ele>
        <time>2013-04-07T08:27:18Z</time>
      </trkpt>
      <trkpt lat="43.52798" lon="5.40499">
        <ele>185</ele>
        <time>2013-04-07T08:27:27Z</time>
      </trkpt>
      <trkpt lat="43.52806" lon="5.40514">
        <ele>185</ele>
        <time>2013-04-07T08:27:37Z</time>
      </trkpt>
      <trkpt lat="43.5281" lon="5.40528">
        <ele>185</ele>
        <time>2013-04-07T08:27:47Z</time>
      </trkpt>
      <trkpt lat="43.52814" lon="5.40543">
        <ele>185</ele>
        <time>2013-04-07T08:27:57Z</time>
      </trkpt>
      <trkpt lat="43.52821" lon="5.40555">
        <ele>185</ele>
        <time>2013-04-07T08:28:06Z</time>
      </trkpt>
      <trkpt lat="43.52823" lon="5.4056">
        <ele>185</ele>
        <time>2013-04-07T08:28:16Z</time>
      </trkpt>
      <trkpt lat="43.52813" lon="5.40561">
        <ele>185</ele>
        <time>2013-04-07T08:28:26Z</time>
      </trkpt>
      <trkpt lat="43.52809" lon="5.40572">
        <ele>185</ele>
        <time>2013-04-07T08:28:35Z</time>
      </trkpt>
      <trkpt lat="43.52803" lon="5.40572">
        <ele>185</ele>
        <time>2013-04-07T08:28:45Z</time>
      </trkpt>
      <trkpt lat="43.5279" lon="5.40572">
        <ele>184</ele>
        <time>2013-04-07T08:28:55Z</time>
      </trkpt>
      <trkpt lat="43.52777" lon="5.40573">
        <ele>184</ele>
        <time>2013-04-07T08:29:05Z</time>
      </trkpt>
      <trkpt lat="43.52767" lon="5.40579">
        <ele>184</ele>
        <time>2013-04-07T08:29:14Z</time>
      </trkpt>
      <trkpt lat="43.5276" lon="5.40584">
        <ele>182</ele>
        <time>2013-04-07T08:29:23Z</time>
      </trkpt>
      <trkpt lat="43.52753" lon="5.40592">
        <ele>181</ele>
        <time>2013-04-07T08:29:32Z</time>
      </trkpt>
      <trkpt lat="43.52745" lon="5.40604">
        <ele>181</ele>
        <time>2013-04-07T08:29:42Z</time>
      </trkpt>
      <trkpt lat="43.52739" lon="5.40617">
        <ele>180</ele>
        <time>2013-04-07T08:29:51Z</time>
      </trkpt>
      <trkpt lat="43.52731" lon="5.40629">
        <ele>180</ele>
        <time>2013-04-07T08:30:01Z</time>
      </trkpt>
      <trkpt lat="43.52723" lon="5.40639">
        <ele>180</ele>
        <time>2013-04-07T08:30:10Z</time>
      </trkpt>
      <trkpt lat="43.52712" lon="5.40649">
        <ele>180</ele>
        <time>2013-04-07T08:30:21Z</time>
      </trkpt>
      <trkpt lat="43.52703" lon="5.40655">
        <ele>177</ele>
        <time>2013-04-07T08:30:31Z</time>
      </trkpt>
      <trkpt lat="43.52695" lon="5.40663">
        <ele>174</ele>
        <time>2013-04-07T08:30:41Z</time>
      </trkpt>
      <trkpt lat="43.52684" lon="5.40672">
        <ele>174</ele>
        <time>2013-04-07T08:30:51Z</time>
      </trkpt>
      <trkpt lat="43.52675" lon="5.40681">
        <ele>174</ele>
        <time>2013-04-07T08:31:01Z</time>
      </trkpt>
      <trkpt lat="43.52665" lon="5.40686">
        <ele>174</ele>
        <time>2013-04-07T08:31:10Z</time>
      </trkpt>
      <trkpt lat="43.52655" lon="5.40691">
        <ele>174</ele>
        <time>2013-04-07T08:31:20Z</time>
      </trkpt>
      <trkpt lat="43.52646" lon="5.40695">
        <ele>174</ele>
        <time>2013-04-07T08:31:31Z</time>
      </trkpt>
      <trkpt lat="43.52634" lon="5.40697">
        <ele>174</ele>
        <time>2013-04-07T08:31:40Z</time>
      </trkpt>
      <trkpt lat="43.52621" lon="5.40698">
        <ele>174</ele>
        <time>2013-04-07T08:31:50Z</time>
      </trkpt>
      <trkpt lat="43.52609" lon="5.40699">
        <ele>174</ele>
        <time>2013-04-07T08:31:59Z</time>
      </trkpt>
      <trkpt lat="43.52599" lon="5.40703">
        <ele>174</ele>
        <time>2013-04-07T08:32:08Z</time>
      </trkpt>
      <trkpt lat="43.52587" lon="5.40712">
        <ele>174</ele>
        <time>2013-04-07T08:32:18Z</time>
      </trkpt>
      <trkpt lat="43.52578" lon="5.40724">
        <ele>174</ele>
        <time>2013-04-07T08:32:27Z</time>
      </trkpt>
      <trkpt lat="43.52573" lon="5.40739">
        <ele>174</ele>
        <time>2013-04-07T08:32:37Z</time>
      </trkpt>
      <trkpt lat="43.52577" lon="5.40753">
        <ele>174</ele>
        <time>2013-04-07T08:32:46Z</time>
      </trkpt>
      <trkpt lat="43.52581" lon="5.40766">
        <ele>175</ele>
        <time>2013-04-07T08:32:55Z</time>
      </trkpt>
      <trkpt lat="43.52588" lon="5.40781">
        <ele>175</ele>
        <time>2013-04-07T08:33:06Z</time>
      </trkpt>
      <trkpt lat="43.52594" lon="5.40788">
        <ele>175</ele>
        <time>2013-04-07T08:33:15Z</time>
      </trkpt>
      <trkpt lat="43.52601" lon="5.40802">
        <ele>175</ele>
        <time>2013-04-07T08:33:25Z</time>
      </trkpt>
      <trkpt lat="43.52605" lon="5.40816">
        <ele>174</ele>
        <time>2013-04-07T08:33:34Z</time>
      </trkpt>
      <trkpt lat="43.5261" lon="5.40831">
        <ele>173</ele>
        <time>2013-04-07T08:33:43Z</time>
      </trkpt>
      <trkpt lat="43.52618" lon="5.40844">
        <ele>170</ele>
        <time>2013-04-07T08:33:52Z</time>
      </trkpt>
      <trkpt lat="43.52625" lon="5.40858">
        <ele>168</ele>
        <time>2013-04-07T08:34:03Z</time>
      </trkpt>
      <trkpt lat="43.52636" lon="5.40873">
        <ele>168</ele>
        <time>2013-04-07T08:34:13Z</time>
      </trkpt>
      <trkpt lat="43.52633" lon="5.40875">
        <ele>168</ele>
        <time>2013-04-07T08:34:25Z</time>
      </trkpt>
      <trkpt lat="43.5263" lon="5.40878">
        <ele>168</ele>
        <time>2013-04-07T08:34:55Z</time>
      </trkpt>
      <trkpt lat="43.52622" lon="5.4089">
        <ele>168</ele>
        <time>2013-04-07T08:35:04Z</time>
      </trkpt>
      <trkpt lat="43.5262" lon="5.40894">
        <ele>168</ele>
        <time>2013-04-07T08:35:22Z</time>
      </trkpt>
      <trkpt lat="43.52616" lon="5.40908">
        <ele>168</ele>
        <time>2013-04-07T08:35:31Z</time>
      </trkpt>
      <trkpt lat="43.5261" lon="5.40926">
        <ele>168</ele>
        <time>2013-04-07T08:35:42Z</time>
      </trkpt>
      <trkpt lat="43.5261" lon="5.40936">
        <ele>166</ele>
        <time>2013-04-07T08:35:51Z</time>
      </trkpt>
      <trkpt lat="43.5261" lon="5.4094">
        <ele>165</ele>
        <time>2013-04-07T08:36:09Z</time>
      </trkpt>
      <trkpt lat="43.52609" lon="5.40938">
        <ele>165</ele>
        <time>2013-04-07T08:36:23Z</time>
      </trkpt>
      <trkpt lat="43.52611" lon="5.40941">
        <ele>165</ele>
        <time>2013-04-07T08:36:34Z</time>
      </trkpt>
      <trkpt lat="43.52614" lon="5.40944">
        <ele>165</ele>
        <time>2013-04-07T08:36:43Z</time>
      </trkpt>
      <trkpt lat="43.52614" lon="5.40948">
        <ele>165</ele>
        <time>2013-04-07T08:37:06Z</time>
      </trkpt>
      <trkpt lat="43.52608" lon="5.40962">
        <ele>164</ele>
        <time>2013-04-07T08:37:16Z</time>
      </trkpt>
      <trkpt lat="43.52603" lon="5.40974">
        <ele>163</ele>
        <time>2013-04-07T08:37:26Z</time>
      </trkpt>
      <trkpt lat="43.52595" lon="5.40983">
        <ele>162</ele>
        <time>2013-04-07T08:37:36Z</time>
      </trkpt>
      <trkpt lat="43.52591" lon="5.40995">
        <ele>161</ele>
        <time>2013-04-07T08:37:46Z</time>
      </trkpt>
      <trkpt lat="43.52582" lon="5.41002">
        <ele>161</ele>
        <time>2013-04-07T08:37:55Z</time>
      </trkpt>
      <trkpt lat="43.52573" lon="5.41013">
        <ele>161</ele>
        <time>2013-04-07T08:38:05Z</time>
      </trkpt>
      <trkpt lat="43.52562" lon="5.41019">
        <ele>161</ele>
        <time>2013-04-07T08:38:14Z</time>
      </trkpt>
      <trkpt lat="43.52553" lon="5.41025">
        <ele>159</ele>
        <time>2013-04-07T08:38:23Z</time>
      </trkpt>
      <trkpt lat="43.52545" lon="5.41031">
        <ele>158</ele>
        <time>2013-04-07T08:38:32Z</time>
      </trkpt>
      <trkpt lat="43.52536" lon="5.41038">
        <ele>158</ele>
        <time>2013-04-07T08:38:41Z</time>
      </trkpt>
      <trkpt lat="43.52525" lon="5.41049">
        <ele>158</ele>
        <time>2013-04-07T08:38:50Z</time>
      </trkpt>
      <trkpt lat="43.52513" lon="5.41053">
        <ele>161</ele>
        <time>2013-04-07T08:38:59Z</time>
      </trkpt>
      <trkpt lat="43.52502" lon="5.41056">
        <ele>161</ele>
        <time>2013-04-07T08:39:09Z</time>
      </trkpt>
      <trkpt lat="43.52489" lon="5.41062">
        <ele>160</ele>
        <time>2013-04-07T08:39:19Z</time>
      </trkpt>
      <trkpt lat="43.52488" lon="5.41069">
        <ele>158</ele>
        <time>2013-04-07T08:39:28Z</time>
      </trkpt>
      <trkpt lat="43.52494" lon="5.41078">
        <ele>160</ele>
        <time>2013-04-07T08:39:37Z</time>
      </trkpt>
      <trkpt lat="43.52497" lon="5.41088">
        <ele>165</ele>
        <time>2013-04-07T08:39:47Z</time>
      </trkpt>
      <trkpt lat="43.52499" lon="5.411">
        <ele>169</ele>
        <time>2013-04-07T08:39:57Z</time>
      </trkpt>
      <trkpt lat="43.52503" lon="5.4111">
        <ele>171</ele>
        <time>2013-04-07T08:40:07Z</time>
      </trkpt>
      <trkpt lat="43.52506" lon="5.41121">
        <ele>173</ele>
        <time>2013-04-07T08:40:17Z</time>
      </trkpt>
      <trkpt lat="43.52512" lon="5.4113">
        <ele>174</ele>
        <time>2013-04-07T08:40:29Z</time>
      </trkpt>
      <trkpt lat="43.52515" lon="5.41143">
        <ele>176</ele>
        <time>2013-04-07T08:40:38Z</time>
      </trkpt>
      <trkpt lat="43.52522" lon="5.41156">
        <ele>176</ele>
        <time>2013-04-07T08:40:48Z</time>
      </trkpt>
      <trkpt lat="43.5253" lon="5.41164">
        <ele>176</ele>
        <time>2013-04-07T08:40:57Z</time>
      </trkpt>
      <trkpt lat="43.52535" lon="5.41174">
        <ele>176</ele>
        <time>2013-04-07T08:41:07Z</time>
      </trkpt>
      <trkpt lat="43.52533" lon="5.4118">
        <ele>176</ele>
        <time>2013-04-07T08:41:17Z</time>
      </trkpt>
      <trkpt lat="43.52525" lon="5.41189">
        <ele>176</ele>
        <time>2013-04-07T08:41:27Z</time>
      </trkpt>
      <trkpt lat="43.52516" lon="5.41198">
        <ele>177</ele>
        <time>2013-04-07T08:41:36Z</time>
      </trkpt>
      <trkpt lat="43.52506" lon="5.41206">
        <ele>177</ele>
        <time>2013-04-07T08:41:45Z</time>
      </trkpt>
      <trkpt lat="43.52495" lon="5.41211">
        <ele>177</ele>
        <time>2013-04-07T08:41:55Z</time>
      </trkpt>
      <trkpt lat="43.52485" lon="5.41216">
        <ele>177</ele>
        <time>2013-04-07T08:42:04Z</time>
      </trkpt>
      <trkpt lat="43.52474" lon="5.41219">
        <ele>177</ele>
        <time>2013-04-07T08:42:15Z</time>
      </trkpt>
      <trkpt lat="43.52462" lon="5.41222">
        <ele>177</ele>
        <time>2013-04-07T08:42:26Z</time>
      </trkpt>
      <trkpt lat="43.52451" lon="5.41223">
        <ele>175</ele>
        <time>2013-04-07T08:42:36Z</time>
      </trkpt>
      <trkpt lat="43.52438" lon="5.41225">
        <ele>175</ele>
        <time>2013-04-07T08:42:46Z</time>
      </trkpt>
      <trkpt lat="43.52428" lon="5.41228">
        <ele>172</ele>
        <time>2013-04-07T08:42:55Z</time>
      </trkpt>
      <trkpt lat="43.52422" lon="5.41232">
        <ele>168</ele>
        <time>2013-04-07T08:43:04Z</time>
      </trkpt>
      <trkpt lat="43.52413" lon="5.41238">
        <ele>168</ele>
        <time>2013-04-07T08:43:14Z</time>
      </trkpt>
      <trkpt lat="43.52408" lon="5.4125">
        <ele>171</ele>
        <time>2013-04-07T08:43:23Z</time>
      </trkpt>
      <trkpt lat="43.52411" lon="5.41256">
        <ele>176</ele>
        <time>2013-04-07T08:43:33Z</time>
      </trkpt>
      <trkpt lat="43.52417" lon="5.41261">
        <ele>184</ele>
        <time>2013-04-07T08:43:45Z</time>
      </trkpt>
      <trkpt lat="43.52422" lon="5.41266">
        <ele>186</ele>
        <time>2013-04-07T08:43:55Z</time>
      </trkpt>
      <trkpt lat="43.52426" lon="5.41271">
        <ele>188</ele>
        <time>2013-04-07T08:44:06Z</time>
      </trkpt>
      <trkpt lat="43.52423" lon="5.41279">
        <ele>190</ele>
        <time>2013-04-07T08:44:16Z</time>
      </trkpt>
      <trkpt lat="43.52425" lon="5.41283">
        <ele>190</ele>
        <time>2013-04-07T08:44:25Z</time>
      </trkpt>
      <trkpt lat="43.5243" lon="5.41289">
        <ele>191</ele>
        <time>2013-04-07T08:44:35Z</time>
      </trkpt>
      <trkpt lat="43.52427" lon="5.41305">
        <ele>191</ele>
        <time>2013-04-07T08:44:45Z</time>
      </trkpt>
      <trkpt lat="43.52427" lon="5.41317">
        <ele>191</ele>
        <time>2013-04-07T08:44:58Z</time>
      </trkpt>
      <trkpt lat="43.52425" lon="5.41328">
        <ele>191</ele>
        <time>2013-04-07T08:45:07Z</time>
      </trkpt>
      <trkpt lat="43.52419" lon="5.41335">
        <ele>187</ele>
        <time>2013-04-07T08:45:19Z</time>
      </trkpt>
      <trkpt lat="43.5242" lon="5.41343">
        <ele>185</ele>
        <time>2013-04-07T08:45:28Z</time>
      </trkpt>
      <trkpt lat="43.52425" lon="5.41357">
        <ele>184</ele>
        <time>2013-04-07T08:45:38Z</time>
      </trkpt>
      <trkpt lat="43.5243" lon="5.4137">
        <ele>184</ele>
        <time>2013-04-07T08:45:47Z</time>
      </trkpt>
      <trkpt lat="43.52436" lon="5.41385">
        <ele>184</ele>
        <time>2013-04-07T08:45:58Z</time>
      </trkpt>
      <trkpt lat="43.52442" lon="5.41398">
        <ele>184</ele>
        <time>2013-04-07T08:46:07Z</time>
      </trkpt>
      <trkpt lat="43.52448" lon="5.41406">
        <ele>184</ele>
        <time>2013-04-07T08:46:16Z</time>
      </trkpt>
      <trkpt lat="43.52459" lon="5.41416">
        <ele>184</ele>
        <time>2013-04-07T08:46:27Z</time>
      </trkpt>
      <trkpt lat="43.52461" lon="5.4142">
        <ele>184</ele>
        <time>2013-04-07T08:46:38Z</time>
      </trkpt>
      <trkpt lat="43.52468" lon="5.41431">
        <ele>184</ele>
        <time>2013-04-07T08:46:48Z</time>
      </trkpt>
      <trkpt lat="43.5248" lon="5.41442">
        <ele>184</ele>
        <time>2013-04-07T08:46:58Z</time>
      </trkpt>
      <trkpt lat="43.52491" lon="5.41446">
        <ele>184</ele>
        <time>2013-04-07T08:47:07Z</time>
      </trkpt>
      <trkpt lat="43.52503" lon="5.41448">
        <ele>182</ele>
        <time>2013-04-07T08:47:16Z</time>
      </trkpt>
      <trkpt lat="43.52509" lon="5.41446">
        <ele>179</ele>
        <time>2013-04-07T08:47:26Z</time>
      </trkpt>
      <trkpt lat="43.5252" lon="5.41433">
        <ele>182</ele>
        <time>2013-04-07T08:47:36Z</time>
      </trkpt>
      <trkpt lat="43.52529" lon="5.41437">
        <ele>182</ele>
        <time>2013-04-07T08:47:45Z</time>
      </trkpt>
      <trkpt lat="43.52537" lon="5.41451">
        <ele>182</ele>
        <time>2013-04-07T08:47:54Z</time>
      </trkpt>
      <trkpt lat="43.52545" lon="5.41464">
        <ele>181</ele>
        <time>2013-04-07T08:48:04Z</time>
      </trkpt>
      <trkpt lat="43.52553" lon="5.41478">
        <ele>180</ele>
        <time>2013-04-07T08:48:14Z</time>
      </trkpt>
      <trkpt lat="43.5256" lon="5.41489">
        <ele>177</ele>
        <time>2013-04-07T08:48:23Z</time>
      </trkpt>
      <trkpt lat="43.5257" lon="5.41496">
        <ele>177</ele>
        <time>2013-04-07T08:48:33Z</time>
      </trkpt>
      <trkpt lat="43.52576" lon="5.41504">
        <ele>177</ele>
        <time>2013-04-07T08:48:42Z</time>
      </trkpt>
      <trkpt lat="43.52586" lon="5.41516">
        <ele>177</ele>
        <time>2013-04-07T08:48:51Z</time>
      </trkpt>
      <trkpt lat="43.52589" lon="5.41531">
        <ele>174</ele>
        <time>2013-04-07T08:49:00Z</time>
      </trkpt>
      <trkpt lat="43.52587" lon="5.41542">
        <ele>172</ele>
        <time>2013-04-07T08:49:09Z</time>
      </trkpt>
      <trkpt lat="43.52583" lon="5.4156">
        <ele>172</ele>
        <time>2013-04-07T08:49:19Z</time>
      </trkpt>
      <trkpt lat="43.5258" lon="5.41572">
        <ele>172</ele>
        <time>2013-04-07T08:49:28Z</time>
      </trkpt>
      <trkpt lat="43.52575" lon="5.41577">
        <ele>178</ele>
        <time>2013-04-07T08:49:38Z</time>
      </trkpt>
      <trkpt lat="43.52576" lon="5.41597">
        <ele>185</ele>
        <time>2013-04-07T08:49:48Z</time>
      </trkpt>
      <trkpt lat="43.52578" lon="5.41606">
        <ele>186</ele>
        <time>2013-04-07T08:49:58Z</time>
      </trkpt>
      <trkpt lat="43.52572" lon="5.41619">
        <ele>186</ele>
        <time>2013-04-07T08:50:08Z</time>
      </trkpt>
      <trkpt lat="43.52565" lon="5.41626">
        <ele>193</ele>
        <time>2013-04-07T08:50:17Z</time>
      </trkpt>
      <trkpt lat="43.5256" lon="5.41629">
        <ele>195</ele>
        <time>2013-04-07T08:50:26Z</time>
      </trkpt>
      <trkpt lat="43.52553" lon="5.41647">
        <ele>192</ele>
        <time>2013-04-07T08:50:38Z</time>
      </trkpt>
      <trkpt lat="43.52541" lon="5.41649">
        <ele>183</ele>
        <time>2013-04-07T08:50:48Z</time>
      </trkpt>
      <trkpt lat="43.52531" lon="5.41663">
        <ele>183</ele>
        <time>2013-04-07T08:50:58Z</time>
      </trkpt>
      <trkpt lat="43.52531" lon="5.41678">
        <ele>183</ele>
        <time>2013-04-07T08:51:07Z</time>
      </trkpt>
      <trkpt lat="43.52526" lon="5.41693">
        <ele>183</ele>
        <time>2013-04-07T08:51:17Z</time>
      </trkpt>
      <trkpt lat="43.5252" lon="5.41707">
        <ele>183</ele>
        <time>2013-04-07T08:51:27Z</time>
      </trkpt>
      <trkpt lat="43.52515" lon="5.4172">
        <ele>183</ele>
        <time>2013-04-07T08:51:37Z</time>
      </trkpt>
      <trkpt lat="43.5251" lon="5.41734">
        <ele>183</ele>
        <time>2013-04-07T08:51:46Z</time>
      </trkpt>
      <trkpt lat="43.52509" lon="5.41748">
        <ele>183</ele>
        <time>2013-04-07T08:51:55Z</time>
      </trkpt>
      <trkpt lat="43.52511" lon="5.41762">
        <ele>183</ele>
        <time>2013-04-07T08:52:04Z</time>
      </trkpt>
      <trkpt lat="43.52516" lon="5.41776">
        <ele>183</ele>
        <time>2013-04-07T08:52:13Z</time>
      </trkpt>
      <trkpt lat="43.52517" lon="5.41791">
        <ele>183</ele>
        <time>2013-04-07T08:52:22Z</time>
      </trkpt>
      <trkpt lat="43.52515" lon="5.41805">
        <ele>181</ele>
        <time>2013-04-07T08:52:31Z</time>
      </trkpt>
      <trkpt lat="43.52512" lon="5.41819">
        <ele>180</ele>
        <time>2013-04-07T08:52:40Z</time>
      </trkpt>
      <trkpt lat="43.52508" lon="5.41831">
        <ele>179</ele>
        <time>2013-04-07T08:52:50Z</time>
      </trkpt>
      <trkpt lat="43.52508" lon="5.41847">
        <ele>176</ele>
        <time>2013-04-07T08:53:00Z</time>
      </trkpt>
      <trkpt lat="43.52507" lon="5.41862">
        <ele>176</ele>
        <time>2013-04-07T08:53:10Z</time>
      </trkpt>
      <trkpt lat="43.52507" lon="5.4188">
        <ele>175</ele>
        <time>2013-04-07T08:53:20Z</time>
      </trkpt>
      <trkpt lat="43.52504" lon="5.41897">
        <ele>175</ele>
        <time>2013-04-07T08:53:29Z</time>
      </trkpt>
      <trkpt lat="43.52498" lon="5.4191">
        <ele>175</ele>
        <time>2013-04-07T08:53:38Z</time>
      </trkpt>
      <trkpt lat="43.52492" lon="5.41922">
        <ele>175</ele>
        <time>2013-04-07T08:53:47Z</time>
      </trkpt>
      <trkpt lat="43.52489" lon="5.41936">
        <ele>175</ele>
        <time>2013-04-07T08:53:56Z</time>
      </trkpt>
      <trkpt lat="43.52489" lon="5.4195">
        <ele>175</ele>
        <time>2013-04-07T08:54:06Z</time>
      </trkpt>
      <trkpt lat="43.52489" lon="5.41966">
        <ele>175</ele>
        <time>2013-04-07T08:54:16Z</time>
      </trkpt>
      <trkpt lat="43.52486" lon="5.41981">
        <ele>175</ele>
        <time>2013-04-07T08:54:27Z</time>
      </trkpt>
      <trkpt lat="43.52481" lon="5.41993">
        <ele>173</ele>
        <time>2013-04-07T08:54:37Z</time>
      </trkpt>
      <trkpt lat="43.52473" lon="5.42004">
        <ele>172</ele>
        <time>2013-04-07T08:54:46Z</time>
      </trkpt>
      <trkpt lat="43.52468" lon="5.42017">
        <ele>172</ele>
        <time>2013-04-07T08:54:55Z</time>
      </trkpt>
      <trkpt lat="43.52466" lon="5.42033">
        <ele>172</ele>
        <time>2013-04-07T08:55:04Z</time>
      </trkpt>
      <trkpt lat="43.52463" lon="5.42048">
        <ele>172</ele>
        <time>2013-04-07T08:55:14Z</time>
      </trkpt>
      <trkpt lat="43.52457" lon="5.4206">
        <ele>172</ele>
        <time>2013-04-07T08:55:24Z</time>
      </trkpt>
      <trkpt lat="43.52451" lon="5.42072">
        <ele>171</ele>
        <time>2013-04-07T08:55:33Z</time>
      </trkpt>
      <trkpt lat="43.52446" lon="5.42086">
        <ele>170</ele>
        <time>2013-04-07T08:55:43Z</time>
      </trkpt>
      <trkpt lat="43.52442" lon="5.42102">
        <ele>169</ele>
        <time>2013-04-07T08:55:53Z</time>
      </trkpt>
      <trkpt lat="43.52439" lon="5.42116">
        <ele>168</ele>
        <time>2013-04-07T08:56:02Z</time>
      </trkpt>
      <trkpt lat="43.52436" lon="5.4213">
        <ele>168</ele>
        <time>2013-04-07T08:56:11Z</time>
      </trkpt>
      <trkpt lat="43.52435" lon="5.42146">
        <ele>168</ele>
        <time>2013-04-07T08:56:21Z</time>
      </trkpt>
      <trkpt lat="43.52433" lon="5.42161">
        <ele>168</ele>
        <time>2013-04-07T08:56:30Z</time>
      </trkpt>
      <trkpt lat="43.52432" lon="5.42177">
        <ele>167</ele>
        <time>2013-04-07T08:56:40Z</time>
      </trkpt>
      <trkpt lat="43.5243" lon="5.42194">
        <ele>167</ele>
        <time>2013-04-07T08:56:49Z</time>
      </trkpt>
      <trkpt lat="43.5243" lon="5.42208">
        <ele>167</ele>
        <time>2013-04-07T08:56:58Z</time>
      </trkpt>
      <trkpt lat="43.52426" lon="5.42224">
        <ele>167</ele>
        <time>2013-04-07T08:57:08Z</time>
      </trkpt>
      <trkpt lat="43.52425" lon="5.42239">
        <ele>167</ele>
        <time>2013-04-07T08:57:17Z</time>
      </trkpt>
      <trkpt lat="43.52424" lon="5.42254">
        <ele>167</ele>
        <time>2013-04-07T08:57:28Z</time>
      </trkpt>
      <trkpt lat="43.52425" lon="5.42266">
        <ele>167</ele>
        <time>2013-04-07T08:57:37Z</time>
      </trkpt>
      <trkpt lat="43.52428" lon="5.4228">
        <ele>167</ele>
        <time>2013-04-07T08:57:48Z</time>
      </trkpt>
      <trkpt lat="43.5243" lon="5.42294">
        <ele>167</ele>
        <time>2013-04-07T08:57:57Z</time>
      </trkpt>
      <trkpt lat="43.52435" lon="5.42306">
        <ele>167</ele>
        <time>2013-04-07T08:58:06Z</time>
      </trkpt>
      <trkpt lat="43.52439" lon="5.42319">
        <ele>167</ele>
        <time>2013-04-07T08:58:15Z</time>
      </trkpt>
      <trkpt lat="43.52439" lon="5.42332">
        <ele>167</ele>
        <time>2013-04-07T08:58:24Z</time>
      </trkpt>
      <trkpt lat="43.5244" lon="5.42342">
        <ele>167</ele>
        <time>2013-04-07T08:58:34Z</time>
      </trkpt>
      <trkpt lat="43.52434" lon="5.42344">
        <ele>167</ele>
        <time>2013-04-07T08:58:44Z</time>
      </trkpt>
      <trkpt lat="43.52424" lon="5.42344">
        <ele>166</ele>
        <time>2013-04-07T08:58:54Z</time>
      </trkpt>
      <trkpt lat="43.5241" lon="5.42348">
        <ele>164</ele>
        <time>2013-04-07T08:59:05Z</time>
      </trkpt>
      <trkpt lat="43.52409" lon="5.42362">
        <ele>164</ele>
        <time>2013-04-07T08:59:14Z</time>
      </trkpt>
      <trkpt lat="43.52408" lon="5.42376">
        <ele>162</ele>
        <time>2013-04-07T08:59:23Z</time>
      </trkpt>
      <trkpt lat="43.52407" lon="5.42392">
        <ele>161</ele>
        <time>2013-04-07T08:59:34Z</time>
      </trkpt>
      <trkpt lat="43.52407" lon="5.42406">
        <ele>160</ele>
        <time>2013-04-07T08:59:43Z</time>
      </trkpt>
      <trkpt lat="43.52406" lon="5.42421">
        <ele>160</ele>
        <time>2013-04-07T08:59:53Z</time>
      </trkpt>
      <trkpt lat="43.52406" lon="5.42436">
        <ele>160</ele>
        <time>2013-04-07T09:00:02Z</time>
      </trkpt>
      <trkpt lat="43.52404" lon="5.42452">
        <ele>160</ele>
        <time>2013-04-07T09:00:12Z</time>
      </trkpt>
      <trkpt lat="43.52399" lon="5.42469">
        <ele>160</ele>
        <time>2013-04-07T09:00:22Z</time>
      </trkpt>
      <trkpt lat="43.52392" lon="5.42482">
        <ele>160</ele>
        <time>2013-04-07T09:00:32Z</time>
      </trkpt>
      <trkpt lat="43.52384" lon="5.42495">
        <ele>160</ele>
        <time>2013-04-07T09:00:42Z</time>
      </trkpt>
      <trkpt lat="43.52383" lon="5.42514">
        <ele>160</ele>
        <time>2013-04-07T09:00:52Z</time>
      </trkpt>
      <trkpt lat="43.52384" lon="5.42528">
        <ele>160</ele>
        <time>2013-04-07T09:01:02Z</time>
      </trkpt>
      <trkpt lat="43.52388" lon="5.42542">
        <ele>160</ele>
        <time>2013-04-07T09:01:12Z</time>
      </trkpt>
      <trkpt lat="43.52388" lon="5.42558">
        <ele>160</ele>
        <time>2013-04-07T09:01:22Z</time>
      </trkpt>
      <trkpt lat="43.52389" lon="5.42574">
        <ele>160</ele>
        <time>2013-04-07T09:01:31Z</time>
      </trkpt>
      <trkpt lat="43.52391" lon="5.42587">
        <ele>160</ele>
        <time>2013-04-07T09:01:40Z</time>
      </trkpt>
      <trkpt lat="43.52391" lon="5.42601">
        <ele>160</ele>
        <time>2013-04-07T09:01:49Z</time>
      </trkpt>
      <trkpt lat="43.52393" lon="5.42617">
        <ele>160</ele>
        <time>2013-04-07T09:02:00Z</time>
      </trkpt>
      <trkpt lat="43.52393" lon="5.42628">
        <ele>160</ele>
        <time>2013-04-07T09:02:11Z</time>
      </trkpt>
      <trkpt lat="43.52382" lon="5.42633">
        <ele>160</ele>
        <time>2013-04-07T09:02:20Z</time>
      </trkpt>
      <trkpt lat="43.52371" lon="5.42634">
        <ele>160</ele>
        <time>2013-04-07T09:02:30Z</time>
      </trkpt>
      <trkpt lat="43.52362" lon="5.42635">
        <ele>159</ele>
        <time>2013-04-07T09:02:39Z</time>
      </trkpt>
      <trkpt lat="43.52351" lon="5.42636">
        <ele>157</ele>
        <time>2013-04-07T09:02:48Z</time>
      </trkpt>
      <trkpt lat="43.5234" lon="5.42637">
        <ele>153</ele>
        <time>2013-04-07T09:02:59Z</time>
      </trkpt>
      <trkpt lat="43.52329" lon="5.42641">
        <ele>151</ele>
        <time>2013-04-07T09:03:08Z</time>
      </trkpt>
      <trkpt lat="43.52319" lon="5.42642">
        <ele>151</ele>
        <time>2013-04-07T09:03:17Z</time>
      </trkpt>
      <trkpt lat="43.52306" lon="5.42645">
        <ele>151</ele>
        <time>2013-04-07T09:03:27Z</time>
      </trkpt>
      <trkpt lat="43.52293" lon="5.42645">
        <ele>151</ele>
        <time>2013-04-07T09:03:37Z</time>
      </trkpt>
      <trkpt lat="43.52282" lon="5.42643">
        <ele>151</ele>
        <time>2013-04-07T09:03:46Z</time>
      </trkpt>
      <trkpt lat="43.52272" lon="5.42642">
        <ele>151</ele>
        <time>2013-04-07T09:03:55Z</time>
      </trkpt>
      <trkpt lat="43.52261" lon="5.4264">
        <ele>151</ele>
        <time>2013-04-07T09:04:05Z</time>
      </trkpt>
      <trkpt lat="43.5225" lon="5.42637">
        <ele>152</ele>
        <time>2013-04-07T09:04:15Z</time>
      </trkpt>
      <trkpt lat="43.52239" lon="5.42636">
        <ele>152</ele>
        <time>2013-04-07T09:04:24Z</time>
      </trkpt>
      <trkpt lat="43.52226" lon="5.42635">
        <ele>152</ele>
        <time>2013-04-07T09:04:34Z</time>
      </trkpt>
      <trkpt lat="43.52214" lon="5.42631">
        <ele>152</ele>
        <time>2013-04-07T09:04:44Z</time>
      </trkpt>
      <trkpt lat="43.52203" lon="5.42629">
        <ele>152</ele>
        <time>2013-04-07T09:04:53Z</time>
      </trkpt>
      <trkpt lat="43.52192" lon="5.42627">
        <ele>152</ele>
        <time>2013-04-07T09:05:02Z</time>
      </trkpt>
      <trkpt lat="43.52182" lon="5.42626">
        <ele>152</ele>
        <time>2013-04-07T09:05:11Z</time>
      </trkpt>
      <trkpt lat="43.52171" lon="5.42625">
        <ele>152</ele>
        <time>2013-04-07T09:05:20Z</time>
      </trkpt>
      <trkpt lat="43.52167" lon="5.42625">
        <ele>152</ele>
        <time>2013-04-07T09:05:31Z</time>
      </trkpt>
      <trkpt lat="43.52164" lon="5.42638">
        <ele>152</ele>
        <time>2013-04-07T09:05:42Z</time>
      </trkpt>
      <trkpt lat="43.52167" lon="5.42646">
        <ele>152</ele>
        <time>2013-04-07T09:05:52Z</time>
      </trkpt>
      <trkpt lat="43.52164" lon="5.42661">
        <ele>152</ele>
        <time>2013-04-07T09:06:02Z</time>
      </trkpt>
      <trkpt lat="43.52164" lon="5.42678">
        <ele>152</ele>
        <time>2013-04-07T09:06:12Z</time>
      </trkpt>
      <trkpt lat="43.52163" lon="5.42691">
        <ele>152</ele>
        <time>2013-04-07T09:06:24Z</time>
      </trkpt>
      <trkpt lat="43.52165" lon="5.42702">
        <ele>152</ele>
        <time>2013-04-07T09:06:33Z</time>
      </trkpt>
      <trkpt lat="43.52168" lon="5.42718">
        <ele>152</ele>
        <time>2013-04-07T09:06:42Z</time>
      </trkpt>
      <trkpt lat="43.52172" lon="5.42733">
        <ele>152</ele>
        <time>2013-04-07T09:06:53Z</time>
      </trkpt>
      <trkpt lat="43.52177" lon="5.42746">
        <ele>152</ele>
        <time>2013-04-07T09:07:02Z</time>
      </trkpt>
      <trkpt lat="43.52181" lon="5.4276">
        <ele>152</ele>
        <time>2013-04-07T09:07:13Z</time>
      </trkpt>
      <trkpt lat="43.52187" lon="5.42759">
        <ele>154</ele>
        <time>2013-04-07T09:07:23Z</time>
      </trkpt>
      <trkpt lat="43.52198" lon="5.42757">
        <ele>154</ele>
        <time>2013-04-07T09:07:32Z</time>
      </trkpt>
      <trkpt lat="43.52208" lon="5.42754">
        <ele>154</ele>
        <time>2013-04-07T09:07:42Z</time>
      </trkpt>
      <trkpt lat="43.52219" lon="5.42754">
        <ele>154</ele>
        <time>2013-04-07T09:07:51Z</time>
      </trkpt>
      <trkpt lat="43.52225" lon="5.42765">
        <ele>155</ele>
        <time>2013-04-07T09:08:01Z</time>
      </trkpt>
      <trkpt lat="43.52227" lon="5.42778">
        <ele>155</ele>
        <time>2013-04-07T09:08:10Z</time>
      </trkpt>
      <trkpt lat="43.52231" lon="5.42793">
        <ele>155</ele>
        <time>2013-04-07T09:08:20Z</time>
      </trkpt>
      <trkpt lat="43.52234" lon="5.42806">
        <ele>155</ele>
        <time>2013-04-07T09:08:30Z</time>
      </trkpt>
      <trkpt lat="43.52242" lon="5.42821">
        <ele>155</ele>
        <time>2013-04-07T09:08:39Z</time>
      </trkpt>
      <trkpt lat="43.52238" lon="5.42836">
        <ele>156</ele>
        <time>2013-04-07T09:08:48Z</time>
      </trkpt>
      <trkpt lat="43.52238" lon="5.42851">
        <ele>156</ele>
        <time>2013-04-07T09:08:57Z</time>
      </trkpt>
      <trkpt lat="43.52234" lon="5.42868">
        <ele>156</ele>
        <time>2013-04-07T09:09:06Z</time>
      </trkpt>
      <trkpt lat="43.52232" lon="5.42883">
        <ele>156</ele>
        <time>2013-04-07T09:09:15Z</time>
      </trkpt>
      <trkpt lat="43.52231" lon="5.42902">
        <ele>156</ele>
        <time>2013-04-07T09:09:25Z</time>
      </trkpt>
      <trkpt lat="43.5223" lon="5.42916">
        <ele>156</ele>
        <time>2013-04-07T09:09:34Z</time>
      </trkpt>
      <trkpt lat="43.52229" lon="5.42932">
        <ele>156</ele>
        <time>2013-04-07T09:09:43Z</time>
      </trkpt>
      <trkpt lat="43.5223" lon="5.42947">
        <ele>156</ele>
        <time>2013-04-07T09:09:53Z</time>
      </trkpt>
      <trkpt lat="43.52239" lon="5.42957">
        <ele>154</ele>
        <time>2013-04-07T09:10:04Z</time>
      </trkpt>
      <trkpt lat="43.5225" lon="5.42969">
        <ele>154</ele>
        <time>2013-04-07T09:10:15Z</time>
      </trkpt>
      <trkpt lat="43.52261" lon="5.42979">
        <ele>154</ele>
        <time>2013-04-07T09:10:25Z</time>
      </trkpt>
      <trkpt lat="43.52272" lon="5.42988">
        <ele>158</ele>
        <time>2013-04-07T09:10:35Z</time>
      </trkpt>
      <trkpt lat="43.52281" lon="5.42996">
        <ele>160</ele>
        <time>2013-04-07T09:10:44Z</time>
      </trkpt>
      <trkpt lat="43.52295" lon="5.43">
        <ele>160</ele>
        <time>2013-04-07T09:10:54Z</time>
      </trkpt>
      <trkpt lat="43.52303" lon="5.43012">
        <ele>160</ele>
        <time>2013-04-07T09:11:03Z</time>
      </trkpt>
      <trkpt lat="43.52311" lon="5.43023">
        <ele>160</ele>
        <time>2013-04-07T09:11:12Z</time>
      </trkpt>
      <trkpt lat="43.52324" lon="5.43033">
        <ele>160</ele>
        <time>2013-04-07T09:11:23Z</time>
      </trkpt>
      <trkpt lat="43.52332" lon="5.43044">
        <ele>163</ele>
        <time>2013-04-07T09:11:32Z</time>
      </trkpt>
      <trkpt lat="43.5234" lon="5.43052">
        <ele>163</ele>
        <time>2013-04-07T09:11:41Z</time>
      </trkpt>
      <trkpt lat="43.52345" lon="5.43065">
        <ele>163</ele>
        <time>2013-04-07T09:11:51Z</time>
      </trkpt>
      <trkpt lat="43.52347" lon="5.43077">
        <ele>163</ele>
        <time>2013-04-07T09:12:00Z</time>
      </trkpt>
      <trkpt lat="43.52346" lon="5.43093">
        <ele>163</ele>
        <time>2013-04-07T09:12:09Z</time>
      </trkpt>
      <trkpt lat="43.52344" lon="5.43111">
        <ele>163</ele>
        <time>2013-04-07T09:12:19Z</time>
      </trkpt>
      <trkpt lat="43.52341" lon="5.43127">
        <ele>163</ele>
        <time>2013-04-07T09:12:28Z</time>
      </trkpt>
      <trkpt lat="43.52337" lon="5.43143">
        <ele>163</ele>
        <time>2013-04-07T09:12:37Z</time>
      </trkpt>
      <trkpt lat="43.52335" lon="5.43157">
        <ele>164</ele>
        <time>2013-04-07T09:12:46Z</time>
      </trkpt>
      <trkpt lat="43.52332" lon="5.43171">
        <ele>164</ele>
        <time>2013-04-07T09:12:55Z</time>
      </trkpt>
      <trkpt lat="43.52328" lon="5.43187">
        <ele>164</ele>
        <time>2013-04-07T09:13:04Z</time>
      </trkpt>
      <trkpt lat="43.52325" lon="5.43201">
        <ele>164</ele>
        <time>2013-04-07T09:13:13Z</time>
      </trkpt>
      <trkpt lat="43.52327" lon="5.43215">
        <ele>167</ele>
        <time>2013-04-07T09:13:22Z</time>
      </trkpt>
      <trkpt lat="43.52325" lon="5.4323">
        <ele>167</ele>
        <time>2013-04-07T09:13:31Z</time>
      </trkpt>
      <trkpt lat="43.52321" lon="5.43246">
        <ele>168</ele>
        <time>2013-04-07T09:13:40Z</time>
      </trkpt>
      <trkpt lat="43.52319" lon="5.43262">
        <ele>168</ele>
        <time>2013-04-07T09:13:50Z</time>
      </trkpt>
      <trkpt lat="43.52319" lon="5.43275">
        <ele>168</ele>
        <time>2013-04-07T09:13:59Z</time>
      </trkpt>
      <trkpt lat="43.52322" lon="5.43289">
        <ele>168</ele>
        <time>2013-04-07T09:14:08Z</time>
      </trkpt>
      <trkpt lat="43.52327" lon="5.43299">
        <ele>168</ele>
        <time>2013-04-07T09:14:18Z</time>
      </trkpt>
      <trkpt lat="43.52338" lon="5.43304">
        <ele>167</ele>
        <time>2013-04-07T09:14:28Z</time>
      </trkpt>
      <trkpt lat="43.52344" lon="5.43312">
        <ele>167</ele>
        <time>2013-04-07T09:14:37Z</time>
      </trkpt>
      <trkpt lat="43.52349" lon="5.4332">
        <ele>167</ele>
        <time>2013-04-07T09:14:47Z</time>
      </trkpt>
      <trkpt lat="43.52355" lon="5.43332">
        <ele>167</ele>
        <time>2013-04-07T09:14:56Z</time>
      </trkpt>
      <trkpt lat="43.52358" lon="5.43346">
        <ele>168</ele>
        <time>2013-04-07T09:15:06Z</time>
      </trkpt>
      <trkpt lat="43.52367" lon="5.4335">
        <ele>168</ele>
        <time>2013-04-07T09:15:15Z</time>
      </trkpt>
      <trkpt lat="43.52375" lon="5.43359">
        <ele>169</ele>
        <time>2013-04-07T09:15:24Z</time>
      </trkpt>
      <trkpt lat="43.52373" lon="5.43373">
        <ele>169</ele>
        <time>2013-04-07T09:15:33Z</time>
      </trkpt>
      <trkpt lat="43.52379" lon="5.43385">
        <ele>169</ele>
        <time>2013-04-07T09:15:43Z</time>
      </trkpt>
      <trkpt lat="43.52383" lon="5.43394">
        <ele>169</ele>
        <time>2013-04-07T09:15:53Z</time>
      </trkpt>
      <trkpt lat="43.52379" lon="5.43412">
        <ele>169</ele>
        <time>2013-04-07T09:16:04Z</time>
      </trkpt>
      <trkpt lat="43.5238" lon="5.43429">
        <ele>169</ele>
        <time>2013-04-07T09:16:14Z</time>
      </trkpt>
      <trkpt lat="43.52376" lon="5.43446">
        <ele>169</ele>
        <time>2013-04-07T09:16:23Z</time>
      </trkpt>
      <trkpt lat="43.52378" lon="5.43461">
        <ele>172</ele>
        <time>2013-04-07T09:16:33Z</time>
      </trkpt>
      <trkpt lat="43.52376" lon="5.43476">
        <ele>172</ele>
        <time>2013-04-07T09:16:42Z</time>
      </trkpt>
      <trkpt lat="43.52379" lon="5.43489">
        <ele>172</ele>
        <time>2013-04-07T09:16:53Z</time>
      </trkpt>
      <trkpt lat="43.52387" lon="5.43491">
        <ele>172</ele>
        <time>2013-04-07T09:17:02Z</time>
      </trkpt>
      <trkpt lat="43.52398" lon="5.43497">
        <ele>171</ele>
        <time>2013-04-07T09:17:13Z</time>
      </trkpt>
      <trkpt lat="43.52404" lon="5.43509">
        <ele>171</ele>
        <time>2013-04-07T09:17:22Z</time>
      </trkpt>
      <trkpt lat="43.5241" lon="5.43522">
        <ele>171</ele>
        <time>2013-04-07T09:17:33Z</time>
      </trkpt>
      <trkpt lat="43.52418" lon="5.43532">
        <ele>171</ele>
        <time>2013-04-07T09:17:43Z</time>
      </trkpt>
      <trkpt lat="43.52427" lon="5.43542">
        <ele>171</ele>
        <time>2013-04-07T09:17:53Z</time>
      </trkpt>
      <trkpt lat="43.52437" lon="5.43552">
        <ele>171</ele>
        <time>2013-04-07T09:18:03Z</time>
      </trkpt>
      <trkpt lat="43.52447" lon="5.43559">
        <ele>171</ele>
        <time>2013-04-07T09:18:13Z</time>
      </trkpt>
      <trkpt lat="43.52454" lon="5.43569">
        <ele>171</ele>
        <time>2013-04-07T09:18:23Z</time>
      </trkpt>
      <trkpt lat="43.52462" lon="5.43572">
        <ele>175</ele>
        <time>2013-04-07T09:18:32Z</time>
      </trkpt>
      <trkpt lat="43.5247" lon="5.43582">
        <ele>176</ele>
        <time>2013-04-07T09:18:41Z</time>
      </trkpt>
      <trkpt lat="43.52477" lon="5.43598">
        <ele>178</ele>
        <time>2013-04-07T09:18:50Z</time>
      </trkpt>
      <trkpt lat="43.52482" lon="5.43611">
        <ele>180</ele>
        <time>2013-04-07T09:18:59Z</time>
      </trkpt>
      <trkpt lat="43.52482" lon="5.43628">
        <ele>180</ele>
        <time>2013-04-07T09:19:08Z</time>
      </trkpt>
      <trkpt lat="43.52486" lon="5.43641">
        <ele>180</ele>
        <time>2013-04-07T09:19:17Z</time>
      </trkpt>
      <trkpt lat="43.52491" lon="5.43651">
        <ele>181</ele>
        <time>2013-04-07T09:19:28Z</time>
      </trkpt>
      <trkpt lat="43.52493" lon="5.43664">
        <ele>181</ele>
        <time>2013-04-07T09:19:37Z</time>
      </trkpt>
      <trkpt lat="43.52506" lon="5.43673">
        <ele>184</ele>
        <time>2013-04-07T09:19:48Z</time>
      </trkpt>
      <trkpt lat="43.52513" lon="5.43678">
        <ele>185</ele>
        <time>2013-04-07T09:19:57Z</time>
      </trkpt>
      <trkpt lat="43.52519" lon="5.4368">
        <ele>187</ele>
        <time>2013-04-07T09:20:06Z</time>
      </trkpt>
      <trkpt lat="43.52526" lon="5.43685">
        <ele>192</ele>
        <time>2013-04-07T09:20:15Z</time>
      </trkpt>
      <trkpt lat="43.52534" lon="5.43691">
        <ele>198</ele>
        <time>2013-04-07T09:20:25Z</time>
      </trkpt>
      <trkpt lat="43.52541" lon="5.43702">
        <ele>207</ele>
        <time>2013-04-07T09:20:34Z</time>
      </trkpt>
      <trkpt lat="43.52551" lon="5.4371">
        <ele>208</ele>
        <time>2013-04-07T09:20:43Z</time>
      </trkpt>
      <trkpt lat="43.52558" lon="5.43717">
        <ele>208</ele>
        <time>2013-04-07T09:20:54Z</time>
      </trkpt>
      <trkpt lat="43.52562" lon="5.4373">
        <ele>208</ele>
        <time>2013-04-07T09:21:04Z</time>
      </trkpt>
      <trkpt lat="43.52554" lon="5.43729">
        <ele>202</ele>
        <time>2013-04-07T09:21:13Z</time>
      </trkpt>
      <trkpt lat="43.52546" lon="5.4375">
        <ele>194</ele>
        <time>2013-04-07T09:21:22Z</time>
      </trkpt>
      <trkpt lat="43.52538" lon="5.4377">
        <ele>190</ele>
        <time>2013-04-07T09:21:32Z</time>
      </trkpt>
      <trkpt lat="43.52537" lon="5.43784">
        <ele>187</ele>
        <time>2013-04-07T09:21:41Z</time>
      </trkpt>
      <trkpt lat="43.5254" lon="5.43795">
        <ele>185</ele>
        <time>2013-04-07T09:21:51Z</time>
      </trkpt>
      <trkpt lat="43.52536" lon="5.43801">
        <ele>181</ele>
        <time>2013-04-07T09:22:01Z</time>
      </trkpt>
      <trkpt lat="43.52529" lon="5.43811">
        <ele>177</ele>
        <time>2013-04-07T09:22:12Z</time>
      </trkpt>
      <trkpt lat="43.52524" lon="5.43822">
        <ele>173</ele>
        <time>2013-04-07T09:22:21Z</time>
      </trkpt>
      <trkpt lat="43.52519" lon="5.43836">
        <ele>175</ele>
        <time>2013-04-07T09:22:30Z</time>
      </trkpt>
      <trkpt lat="43.52513" lon="5.43854">
        <ele>176</ele>
        <time>2013-04-07T09:22:40Z</time>
      </trkpt>
      <trkpt lat="43.52508" lon="5.4387">
        <ele>176</ele>
        <time>2013-04-07T09:22:49Z</time>
      </trkpt>
      <trkpt lat="43.52502" lon="5.4388">
        <ele>178</ele>
        <time>2013-04-07T09:22:58Z</time>
      </trkpt>
      <trkpt lat="43.525" lon="5.43895">
        <ele>186</ele>
        <time>2013-04-07T09:23:07Z</time>
      </trkpt>
      <trkpt lat="43.52497" lon="5.4391">
        <ele>191</ele>
        <time>2013-04-07T09:23:17Z</time>
      </trkpt>
      <trkpt lat="43.5249" lon="5.43923">
        <ele>191</ele>
        <time>2013-04-07T09:23:27Z</time>
      </trkpt>
      <trkpt lat="43.52481" lon="5.43937">
        <ele>188</ele>
        <time>2013-04-07T09:23:37Z</time>
      </trkpt>
      <trkpt lat="43.52474" lon="5.43947">
        <ele>184</ele>
        <time>2013-04-07T09:23:47Z</time>
      </trkpt>
      <trkpt lat="43.5247" lon="5.43962">
        <ele>184</ele>
        <time>2013-04-07T09:23:58Z</time>
      </trkpt>
      <trkpt lat="43.52463" lon="5.43974">
        <ele>183</ele>
        <time>2013-04-07T09:24:07Z</time>
      </trkpt>
      <trkpt lat="43.52471" lon="5.43983">
        <ele>183</ele>
        <time>2013-04-07T09:24:17Z</time>
      </trkpt>
      <trkpt lat="43.52481" lon="5.4399">
        <ele>183</ele>
        <time>2013-04-07T09:24:27Z</time>
      </trkpt>
      <trkpt lat="43.52489" lon="5.43999">
        <ele>183</ele>
        <time>2013-04-07T09:24:36Z</time>
      </trkpt>
      <trkpt lat="43.52496" lon="5.44007">
        <ele>183</ele>
        <time>2013-04-07T09:24:45Z</time>
      </trkpt>
      <trkpt lat="43.52507" lon="5.44016">
        <ele>183</ele>
        <time>2013-04-07T09:24:56Z</time>
      </trkpt>
      <trkpt lat="43.52515" lon="5.44023">
        <ele>182</ele>
        <time>2013-04-07T09:25:06Z</time>
      </trkpt>
      <trkpt lat="43.52526" lon="5.44031">
        <ele>182</ele>
        <time>2013-04-07T09:25:16Z</time>
      </trkpt>
      <trkpt lat="43.52536" lon="5.44038">
        <ele>182</ele>
        <time>2013-04-07T09:25:26Z</time>
      </trkpt>
      <trkpt lat="43.52543" lon="5.44044">
        <ele>182</ele>
        <time>2013-04-07T09:25:35Z</time>
      </trkpt>
      <trkpt lat="43.52552" lon="5.44053">
        <ele>182</ele>
        <time>2013-04-07T09:25:45Z</time>
      </trkpt>
      <trkpt lat="43.5256" lon="5.4406">
        <ele>182</ele>
        <time>2013-04-07T09:25:55Z</time>
      </trkpt>
      <trkpt lat="43.52566" lon="5.44065">
        <ele>182</ele>
        <time>2013-04-07T09:26:04Z</time>
      </trkpt>
      <trkpt lat="43.52572" lon="5.44072">
        <ele>182</ele>
        <time>2013-04-07T09:26:13Z</time>
      </trkpt>
      <trkpt lat="43.52584" lon="5.44083">
        <ele>181</ele>
        <time>2013-04-07T09:26:24Z</time>
      </trkpt>
      <trkpt lat="43.52594" lon="5.44093">
        <ele>178</ele>
        <time>2013-04-07T09:26:34Z</time>
      </trkpt>
      <trkpt lat="43.52605" lon="5.44094">
        <ele>178</ele>
        <time>2013-04-07T09:26:44Z</time>
      </trkpt>
      <trkpt lat="43.5261" lon="5.44096">
        <ele>178</ele>
        <time>2013-04-07T09:26:53Z</time>
      </trkpt>
      <trkpt lat="43.52617" lon="5.44105">
        <ele>178</ele>
        <time>2013-04-07T09:27:02Z</time>
      </trkpt>
      <trkpt lat="43.5262" lon="5.44121">
        <ele>178</ele>
        <time>2013-04-07T09:27:13Z</time>
      </trkpt>
      <trkpt lat="43.52621" lon="5.44135">
        <ele>178</ele>
        <time>2013-04-07T09:27:22Z</time>
      </trkpt>
      <trkpt lat="43.52622" lon="5.44148">
        <ele>178</ele>
        <time>2013-04-07T09:27:31Z</time>
      </trkpt>
      <trkpt lat="43.52626" lon="5.44161">
        <ele>178</ele>
        <time>2013-04-07T09:27:40Z</time>
      </trkpt>
      <trkpt lat="43.52629" lon="5.44175">
        <ele>178</ele>
        <time>2013-04-07T09:27:49Z</time>
      </trkpt>
      <trkpt lat="43.52638" lon="5.44189">
        <ele>181</ele>
        <time>2013-04-07T09:27:59Z</time>
      </trkpt>
      <trkpt lat="43.52638" lon="5.44205">
        <ele>183</ele>
        <time>2013-04-07T09:28:08Z</time>
      </trkpt>
      <trkpt lat="43.5264" lon="5.44218">
        <ele>184</ele>
        <time>2013-04-07T09:28:17Z</time>
      </trkpt>
      <trkpt lat="43.5264" lon="5.44233">
        <ele>184</ele>
        <time>2013-04-07T09:28:27Z</time>
      </trkpt>
      <trkpt lat="43.52639" lon="5.44245">
        <ele>184</ele>
        <time>2013-04-07T09:28:36Z</time>
      </trkpt>
      <trkpt lat="43.5264" lon="5.44258">
        <ele>184</ele>
        <time>2013-04-07T09:28:45Z</time>
      </trkpt>
      <trkpt lat="43.52642" lon="5.44273">
        <ele>184</ele>
        <time>2013-04-07T09:28:54Z</time>
      </trkpt>
      <trkpt lat="43.52639" lon="5.44284">
        <ele>184</ele>
        <time>2013-04-07T09:29:03Z</time>
      </trkpt>
      <trkpt lat="43.52642" lon="5.44294">
        <ele>189</ele>
        <time>2013-04-07T09:29:12Z</time>
      </trkpt>
      <trkpt lat="43.52647" lon="5.44306">
        <ele>192</ele>
        <time>2013-04-07T09:29:21Z</time>
      </trkpt>
      <trkpt lat="43.52648" lon="5.44321">
        <ele>197</ele>
        <time>2013-04-07T09:29:31Z</time>
      </trkpt>
      <trkpt lat="43.52641" lon="5.44334">
        <ele>200</ele>
        <time>2013-04-07T09:29:40Z</time>
      </trkpt>
      <trkpt lat="43.52623" lon="5.44343">
        <ele>201</ele>
        <time>2013-04-07T09:29:49Z</time>
      </trkpt>
      <trkpt lat="43.52621" lon="5.44359">
        <ele>199</ele>
        <time>2013-04-07T09:29:58Z</time>
      </trkpt>
      <trkpt lat="43.52617" lon="5.44375">
        <ele>196</ele>
        <time>2013-04-07T09:30:07Z</time>
      </trkpt>
      <trkpt lat="43.52616" lon="5.44389">
        <ele>190</ele>
        <time>2013-04-07T09:30:16Z</time>
      </trkpt>
      <trkpt lat="43.52617" lon="5.44404">
        <ele>187</ele>
        <time>2013-04-07T09:30:26Z</time>
      </trkpt>
      <trkpt lat="43.5262" lon="5.44418">
        <ele>187</ele>
        <time>2013-04-07T09:30:35Z</time>
      </trkpt>
      <trkpt lat="43.52629" lon="5.44427">
        <ele>187</ele>
        <time>2013-04-07T09:30:46Z</time>
      </trkpt>
      <trkpt lat="43.52638" lon="5.44434">
        <ele>187</ele>
        <time>2013-04-07T09:30:55Z</time>
      </trkpt>
      <trkpt lat="43.52647" lon="5.44444">
        <ele>187</ele>
        <time>2013-04-07T09:31:05Z</time>
      </trkpt>
      <trkpt lat="43.52651" lon="5.44459">
        <ele>187</ele>
        <time>2013-04-07T09:31:14Z</time>
      </trkpt>
      <trkpt lat="43.52652" lon="5.44471">
        <ele>186</ele>
        <time>2013-04-07T09:31:23Z</time>
      </trkpt>
      <trkpt lat="43.52653" lon="5.44479">
        <ele>184</ele>
        <time>2013-04-07T09:31:32Z</time>
      </trkpt>
      <trkpt lat="43.52653" lon="5.44483">
        <ele>183</ele>
        <time>2013-04-07T09:31:42Z</time>
      </trkpt>
      <trkpt lat="43.52652" lon="5.44484">
        <ele>183</ele>
        <time>2013-04-07T09:31:52Z</time>
      </trkpt>
      <trkpt lat="43.52651" lon="5.44487">
        <ele>181</ele>
        <time>2013-04-07T09:32:08Z</time>
      </trkpt>
      <trkpt lat="43.52651" lon="5.44488">
        <ele>181</ele>
        <time>2013-04-07T09:32:23Z</time>
      </trkpt>
      <trkpt lat="43.52657" lon="5.44494">
        <ele>181</ele>
        <time>2013-04-07T09:32:33Z</time>
      </trkpt>
      <trkpt lat="43.52661" lon="5.44502">
        <ele>181</ele>
        <time>2013-04-07T09:32:42Z</time>
      </trkpt>
      <trkpt lat="43.5266" lon="5.44516">
        <ele>181</ele>
        <time>2013-04-07T09:32:52Z</time>
      </trkpt>
      <trkpt lat="43.52661" lon="5.44532">
        <ele>181</ele>
        <time>2013-04-07T09:33:03Z</time>
      </trkpt>
      <trkpt lat="43.52662" lon="5.44546">
        <ele>181</ele>
        <time>2013-04-07T09:33:12Z</time>
      </trkpt>
      <trkpt lat="43.5266" lon="5.44562">
        <ele>181</ele>
        <time>2013-04-07T09:33:22Z</time>
      </trkpt>
      <trkpt lat="43.52652" lon="5.44575">
        <ele>181</ele>
        <time>2013-04-07T09:33:32Z</time>
      </trkpt>
      <trkpt lat="43.52648" lon="5.4459">
        <ele>181</ele>
        <time>2013-04-07T09:33:41Z</time>
      </trkpt>
      <trkpt lat="43.52644" lon="5.446">
        <ele>181</ele>
        <time>2013-04-07T09:33:50Z</time>
      </trkpt>
      <trkpt lat="43.52645" lon="5.44615">
        <ele>181</ele>
        <time>2013-04-07T09:34:00Z</time>
      </trkpt>
      <trkpt lat="43.52647" lon="5.44628">
        <ele>181</ele>
        <time>2013-04-07T09:34:09Z</time>
      </trkpt>
      <trkpt lat="43.52648" lon="5.44643">
        <ele>181</ele>
        <time>2013-04-07T09:34:18Z</time>
      </trkpt>
      <trkpt lat="43.52651" lon="5.44654">
        <ele>183</ele>
        <time>2013-04-07T09:34:28Z</time>
      </trkpt>
      <trkpt lat="43.52651" lon="5.44669">
        <ele>183</ele>
        <time>2013-04-07T09:34:37Z</time>
      </trkpt>
      <trkpt lat="43.52655" lon="5.44683">
        <ele>183</ele>
        <time>2013-04-07T09:34:46Z</time>
      </trkpt>
      <trkpt lat="43.52658" lon="5.44693">
        <ele>183</ele>
        <time>2013-04-07T09:34:55Z</time>
      </trkpt>
      <trkpt lat="43.5266" lon="5.44703">
        <ele>183</ele>
        <time>2013-04-07T09:35:05Z</time>
      </trkpt>
      <trkpt lat="43.52665" lon="5.44716">
        <ele>183</ele>
        <time>2013-04-07T09:35:15Z</time>
      </trkpt>
      <trkpt lat="43.52667" lon="5.44729">
        <ele>183</ele>
        <time>2013-04-07T09:35:24Z</time>
      </trkpt>
      <trkpt lat="43.52669" lon="5.44742">
        <ele>183</ele>
        <time>2013-04-07T09:35:34Z</time>
      </trkpt>
      <trkpt lat="43.52673" lon="5.44759">
        <ele>185</ele>
        <time>2013-04-07T09:35:44Z</time>
      </trkpt>
      <trkpt lat="43.52675" lon="5.44775">
        <ele>185</ele>
        <time>2013-04-07T09:35:54Z</time>
      </trkpt>
      <trkpt lat="43.52675" lon="5.44788">
        <ele>185</ele>
        <time>2013-04-07T09:36:03Z</time>
      </trkpt>
      <trkpt lat="43.52676" lon="5.44804">
        <ele>185</ele>
        <time>2013-04-07T09:36:13Z</time>
      </trkpt>
      <trkpt lat="43.5268" lon="5.44816">
        <ele>188</ele>
        <time>2013-04-07T09:36:22Z</time>
      </trkpt>
      <trkpt lat="43.5268" lon="5.44832">
        <ele>188</ele>
        <time>2013-04-07T09:36:32Z</time>
      </trkpt>
      <trkpt lat="43.52682" lon="5.44844">
        <ele>189</ele>
        <time>2013-04-07T09:36:41Z</time>
      </trkpt>
      <trkpt lat="43.52688" lon="5.44857">
        <ele>189</ele>
        <time>2013-04-07T09:36:51Z</time>
      </trkpt>
      <trkpt lat="43.52687" lon="5.44876">
        <ele>190</ele>
        <time>2013-04-07T09:37:01Z</time>
      </trkpt>
      <trkpt lat="43.52686" lon="5.44893">
        <ele>196</ele>
        <time>2013-04-07T09:37:11Z</time>
      </trkpt>
      <trkpt lat="43.52691" lon="5.44905">
        <ele>196</ele>
        <time>2013-04-07T09:37:20Z</time>
      </trkpt>
      <trkpt lat="43.52695" lon="5.4492">
        <ele>196</ele>
        <time>2013-04-07T09:37:29Z</time>
      </trkpt>
      <trkpt lat="43.52703" lon="5.44933">
        <ele>198</ele>
        <time>2013-04-07T09:37:39Z</time>
      </trkpt>
      <trkpt lat="43.52703" lon="5.44948">
        <ele>198</ele>
        <time>2013-04-07T09:37:48Z</time>
      </trkpt>
      <trkpt lat="43.52702" lon="5.44963">
        <ele>197</ele>
        <time>2013-04-07T09:37:58Z</time>
      </trkpt>
      <trkpt lat="43.52698" lon="5.44981">
        <ele>193</ele>
        <time>2013-04-07T09:38:07Z</time>
      </trkpt>
      <trkpt lat="43.52698" lon="5.44998">
        <ele>193</ele>
        <time>2013-04-07T09:38:16Z</time>
      </trkpt>
      <trkpt lat="43.52699" lon="5.45013">
        <ele>194</ele>
        <time>2013-04-07T09:38:26Z</time>
      </trkpt>
      <trkpt lat="43.527" lon="5.45032">
        <ele>194</ele>
        <time>2013-04-07T09:38:35Z</time>
      </trkpt>
      <trkpt lat="43.52703" lon="5.45043">
        <ele>196</ele>
        <time>2013-04-07T09:38:44Z</time>
      </trkpt>
      <trkpt lat="43.52703" lon="5.45057">
        <ele>194</ele>
        <time>2013-04-07T09:38:53Z</time>
      </trkpt>
      <trkpt lat="43.52707" lon="5.4507">
        <ele>193</ele>
        <time>2013-04-07T09:39:03Z</time>
      </trkpt>
      <trkpt lat="43.52706" lon="5.45086">
        <ele>193</ele>
        <time>2013-04-07T09:39:12Z</time>
      </trkpt>
      <trkpt lat="43.5271" lon="5.45099">
        <ele>193</ele>
        <time>2013-04-07T09:39:22Z</time>
      </trkpt>
      <trkpt lat="43.52711" lon="5.45112">
        <ele>193</ele>
        <time>2013-04-07T09:39:31Z</time>
      </trkpt>
      <trkpt lat="43.52716" lon="5.4512">
        <ele>193</ele>
        <time>2013-04-07T09:39:43Z</time>
      </trkpt>
      <trkpt lat="43.52716" lon="5.45122">
        <ele>194</ele>
        <time>2013-04-07T09:39:53Z</time>
      </trkpt>
      <trkpt lat="43.52714" lon="5.45126">
        <ele>196</ele>
        <time>2013-04-07T09:40:03Z</time>
      </trkpt>
      <trkpt lat="43.52712" lon="5.45131">
        <ele>195</ele>
        <time>2013-04-07T09:40:14Z</time>
      </trkpt>
      <trkpt lat="43.5272" lon="5.45132">
        <ele>195</ele>
        <time>2013-04-07T09:40:25Z</time>
      </trkpt>
      <trkpt lat="43.52724" lon="5.45141">
        <ele>196</ele>
        <time>2013-04-07T09:40:34Z</time>
      </trkpt>
      <trkpt lat="43.52736" lon="5.45154">
        <ele>196</ele>
        <time>2013-04-07T09:40:45Z</time>
      </trkpt>
      <trkpt lat="43.52741" lon="5.45166">
        <ele>196</ele>
        <time>2013-04-07T09:40:54Z</time>
      </trkpt>
      <trkpt lat="43.5274" lon="5.45178">
        <ele>192</ele>
        <time>2013-04-07T09:41:03Z</time>
      </trkpt>
      <trkpt lat="43.5274" lon="5.45186">
        <ele>192</ele>
        <time>2013-04-07T09:41:16Z</time>
      </trkpt>
      <trkpt lat="43.52738" lon="5.45186">
        <ele>192</ele>
        <time>2013-04-07T09:41:26Z</time>
      </trkpt>
      <trkpt lat="43.52741" lon="5.45188">
        <ele>192</ele>
        <time>2013-04-07T09:41:39Z</time>
      </trkpt>
      <trkpt lat="43.52736" lon="5.4519">
        <ele>187</ele>
        <time>2013-04-07T09:41:49Z</time>
      </trkpt>
      <trkpt lat="43.52739" lon="5.45193">
        <ele>177</ele>
        <time>2013-04-07T09:41:59Z</time>
      </trkpt>
      <trkpt lat="43.5273" lon="5.45186">
        <ele>172</ele>
        <time>2013-04-07T09:42:11Z</time>
      </trkpt>
      <trkpt lat="43.52727" lon="5.45186">
        <ele>171</ele>
        <time>2013-04-07T09:42:26Z</time>
      </trkpt>
      <trkpt lat="43.52745" lon="5.45167">
        <ele>169</ele>
        <time>2013-04-07T09:43:33Z</time>
      </trkpt>
      <trkpt lat="43.52747" lon="5.45193">
        <ele>183</ele>
        <time>2013-04-07T09:43:42Z</time>
      </trkpt>
      <trkpt lat="43.52759" lon="5.45188">
        <ele>198</ele>
        <time>2013-04-07T09:43:53Z</time>
      </trkpt>
      <trkpt lat="43.52766" lon="5.45178">
        <ele>201</ele>
        <time>2013-04-07T09:44:02Z</time>
      </trkpt>
      <trkpt lat="43.52766" lon="5.45182">
        <ele>216</ele>
        <time>2013-04-07T09:44:21Z</time>
      </trkpt>
      <trkpt lat="43.52775" lon="5.45176">
        <ele>213</ele>
        <time>2013-04-07T09:44:32Z</time>
      </trkpt>
      <trkpt lat="43.52771" lon="5.45175">
        <ele>202</ele>
        <time>2013-04-07T09:44:43Z</time>
      </trkpt>
      <trkpt lat="43.52767" lon="5.45175">
        <ele>198</ele>
        <time>2013-04-07T09:44:53Z</time>
      </trkpt>
      <trkpt lat="43.52769" lon="5.45178">
        <ele>198</ele>
        <time>2013-04-07T09:45:03Z</time>
      </trkpt>
      <trkpt lat="43.52771" lon="5.45187">
        <ele>198</ele>
        <time>2013-04-07T09:45:14Z</time>
      </trkpt>
      <trkpt lat="43.52768" lon="5.45185">
        <ele>199</ele>
        <time>2013-04-07T09:45:23Z</time>
      </trkpt>
      <trkpt lat="43.52775" lon="5.45175">
        <ele>199</ele>
        <time>2013-04-07T09:45:33Z</time>
      </trkpt>
      <trkpt lat="43.52782" lon="5.4517">
        <ele>198</ele>
        <time>2013-04-07T09:45:46Z</time>
      </trkpt>
      <trkpt lat="43.52787" lon="5.45167">
        <ele>197</ele>
        <time>2013-04-07T09:45:55Z</time>
      </trkpt>
      <trkpt lat="43.5279" lon="5.45167">
        <ele>200</ele>
        <time>2013-04-07T09:46:05Z</time>
      </trkpt>
      <trkpt lat="43.52794" lon="5.45157">
        <ele>201</ele>
        <time>2013-04-07T09:46:14Z</time>
      </trkpt>
      <trkpt lat="43.52808" lon="5.45154">
        <ele>202</ele>
        <time>2013-04-07T09:46:23Z</time>
      </trkpt>
      <trkpt lat="43.5282" lon="5.45146">
        <ele>206</ele>
        <time>2013-04-07T09:46:33Z</time>
      </trkpt>
      <trkpt lat="43.52832" lon="5.45139">
        <ele>215</ele>
        <time>2013-04-07T09:46:42Z</time>
      </trkpt>
      <trkpt lat="43.52837" lon="5.45135">
        <ele>218</ele>
        <time>2013-04-07T09:46:51Z</time>
      </trkpt>
      <trkpt lat="43.52843" lon="5.45122">
        <ele>216</ele>
        <time>2013-04-07T09:47:00Z</time>
      </trkpt>
      <trkpt lat="43.52849" lon="5.45112">
        <ele>213</ele>
        <time>2013-04-07T09:47:10Z</time>
      </trkpt>
      <trkpt lat="43.52861" lon="5.45111">
        <ele>213</ele>
        <time>2013-04-07T09:47:20Z</time>
      </trkpt>
      <trkpt lat="43.52868" lon="5.45112">
        <ele>213</ele>
        <time>2013-04-07T09:47:29Z</time>
      </trkpt>
      <trkpt lat="43.52879" lon="5.45117">
        <ele>216</ele>
        <time>2013-04-07T09:47:38Z</time>
      </trkpt>
      <trkpt lat="43.52887" lon="5.45119">
        <ele>216</ele>
        <time>2013-04-07T09:47:47Z</time>
      </trkpt>
      <trkpt lat="43.52895" lon="5.45119">
        <ele>216</ele>
        <time>2013-04-07T09:47:56Z</time>
      </trkpt>
      <trkpt lat="43.52909" lon="5.45125">
        <ele>217</ele>
        <time>2013-04-07T09:48:05Z</time>
      </trkpt>
      <trkpt lat="43.52918" lon="5.45132">
        <ele>218</ele>
        <time>2013-04-07T09:48:14Z</time>
      </trkpt>
      <trkpt lat="43.52929" lon="5.45155">
        <ele>210</ele>
        <time>2013-04-07T09:48:23Z</time>
      </trkpt>
      <trkpt lat="43.52932" lon="5.45175">
        <ele>202</ele>
        <time>2013-04-07T09:48:32Z</time>
      </trkpt>
      <trkpt lat="43.52938" lon="5.4519">
        <ele>202</ele>
        <time>2013-04-07T09:48:41Z</time>
      </trkpt>
      <trkpt lat="43.52927" lon="5.45211">
        <ele>202</ele>
        <time>2013-04-07T09:48:50Z</time>
      </trkpt>
      <trkpt lat="43.52935" lon="5.45222">
        <ele>200</ele>
        <time>2013-04-07T09:48:59Z</time>
      </trkpt>
      <trkpt lat="43.52941" lon="5.45235">
        <ele>196</ele>
        <time>2013-04-07T09:49:09Z</time>
      </trkpt>
      <trkpt lat="43.52938" lon="5.45254">
        <ele>194</ele>
        <time>2013-04-07T09:49:18Z</time>
      </trkpt>
      <trkpt lat="43.5294" lon="5.4527">
        <ele>194</ele>
        <time>2013-04-07T09:49:28Z</time>
      </trkpt>
      <trkpt lat="43.52946" lon="5.45286">
        <ele>194</ele>
        <time>2013-04-07T09:49:38Z</time>
      </trkpt>
      <trkpt lat="43.52952" lon="5.453">
        <ele>194</ele>
        <time>2013-04-07T09:49:47Z</time>
      </trkpt>
      <trkpt lat="43.52959" lon="5.45315">
        <ele>197</ele>
        <time>2013-04-07T09:49:57Z</time>
      </trkpt>
      <trkpt lat="43.52957" lon="5.45328">
        <ele>197</ele>
        <time>2013-04-07T09:50:08Z</time>
      </trkpt>
      <trkpt lat="43.52967" lon="5.45326">
        <ele>197</ele>
        <time>2013-04-07T09:50:18Z</time>
      </trkpt>
      <trkpt lat="43.52969" lon="5.45324">
        <ele>197</ele>
        <time>2013-04-07T09:50:28Z</time>
      </trkpt>
      <trkpt lat="43.52971" lon="5.45327">
        <ele>197</ele>
        <time>2013-04-07T09:50:38Z</time>
      </trkpt>
      <trkpt lat="43.52975" lon="5.45338">
        <ele>199</ele>
        <time>2013-04-07T09:50:48Z</time>
      </trkpt>
      <trkpt lat="43.52976" lon="5.45349">
        <ele>199</ele>
        <time>2013-04-07T09:50:57Z</time>
      </trkpt>
      <trkpt lat="43.52981" lon="5.45363">
        <ele>199</ele>
        <time>2013-04-07T09:51:07Z</time>
      </trkpt>
      <trkpt lat="43.52986" lon="5.45376">
        <ele>199</ele>
        <time>2013-04-07T09:51:17Z</time>
      </trkpt>
      <trkpt lat="43.52997" lon="5.45388">
        <ele>200</ele>
        <time>2013-04-07T09:51:26Z</time>
      </trkpt>
      <trkpt lat="43.53001" lon="5.45401">
        <ele>200</ele>
        <time>2013-04-07T09:51:35Z</time>
      </trkpt>
      <trkpt lat="43.5301" lon="5.45414">
        <ele>200</ele>
        <time>2013-04-07T09:51:44Z</time>
      </trkpt>
      <trkpt lat="43.53016" lon="5.45431">
        <ele>200</ele>
        <time>2013-04-07T09:51:54Z</time>
      </trkpt>
      <trkpt lat="43.53025" lon="5.45445">
        <ele>198</ele>
        <time>2013-04-07T09:52:04Z</time>
      </trkpt>
      <trkpt lat="43.53034" lon="5.45456">
        <ele>199</ele>
        <time>2013-04-07T09:52:13Z</time>
      </trkpt>
      <trkpt lat="43.53036" lon="5.45473">
        <ele>200</ele>
        <time>2013-04-07T09:52:23Z</time>
      </trkpt>
      <trkpt lat="43.53041" lon="5.45485">
        <ele>201</ele>
        <time>2013-04-07T09:52:32Z</time>
      </trkpt>
      <trkpt lat="43.53044" lon="5.4549">
        <ele>201</ele>
        <time>2013-04-07T09:52:41Z</time>
      </trkpt>
      <trkpt lat="43.5305" lon="5.45505">
        <ele>201</ele>
        <time>2013-04-07T09:52:50Z</time>
      </trkpt>
      <trkpt lat="43.53057" lon="5.45516">
        <ele>201</ele>
        <time>2013-04-07T09:52:59Z</time>
      </trkpt>
      <trkpt lat="43.53064" lon="5.45528">
        <ele>201</ele>
        <time>2013-04-07T09:53:09Z</time>
      </trkpt>
      <trkpt lat="43.5307" lon="5.45539">
        <ele>201</ele>
        <time>2013-04-07T09:53:24Z</time>
      </trkpt>
      <trkpt lat="43.53077" lon="5.45536">
        <ele>201</ele>
        <time>2013-04-07T09:53:33Z</time>
      </trkpt>
      <trkpt lat="43.53082" lon="5.45544">
        <ele>201</ele>
        <time>2013-04-07T09:53:42Z</time>
      </trkpt>
      <trkpt lat="43.53087" lon="5.45555">
        <ele>201</ele>
        <time>2013-04-07T09:53:52Z</time>
      </trkpt>
      <trkpt lat="43.53088" lon="5.45558">
        <ele>201</ele>
        <time>2013-04-07T09:54:03Z</time>
      </trkpt>
      <trkpt lat="43.53077" lon="5.45537">
        <ele>203</ele>
        <time>2013-04-07T09:54:15Z</time>
      </trkpt>
      <trkpt lat="43.5307" lon="5.45544">
        <ele>203</ele>
        <time>2013-04-07T09:54:25Z</time>
      </trkpt>
      <trkpt lat="43.53074" lon="5.45552">
        <ele>203</ele>
        <time>2013-04-07T09:54:34Z</time>
      </trkpt>
      <trkpt lat="43.53078" lon="5.45564">
        <ele>203</ele>
        <time>2013-04-07T09:54:45Z</time>
      </trkpt>
      <trkpt lat="43.53083" lon="5.4557">
        <ele>203</ele>
        <time>2013-04-07T09:54:55Z</time>
      </trkpt>
      <trkpt lat="43.53088" lon="5.45581">
        <ele>203</ele>
        <time>2013-04-07T09:55:05Z</time>
      </trkpt>
      <trkpt lat="43.53093" lon="5.4559">
        <ele>203</ele>
        <time>2013-04-07T09:55:14Z</time>
      </trkpt>
      <trkpt lat="43.53099" lon="5.45601">
        <ele>203</ele>
        <time>2013-04-07T09:55:23Z</time>
      </trkpt>
      <trkpt lat="43.53105" lon="5.45611">
        <ele>202</ele>
        <time>2013-04-07T09:55:33Z</time>
      </trkpt>
      <trkpt lat="43.53109" lon="5.45623">
        <ele>201</ele>
        <time>2013-04-07T09:55:42Z</time>
      </trkpt>
      <trkpt lat="43.53106" lon="5.45631">
        <ele>201</ele>
        <time>2013-04-07T09:55:51Z</time>
      </trkpt>
      <trkpt lat="43.53104" lon="5.45641">
        <ele>199</ele>
        <time>2013-04-07T09:56:00Z</time>
      </trkpt>
      <trkpt lat="43.53102" lon="5.45654">
        <ele>199</ele>
        <time>2013-04-07T09:56:09Z</time>
      </trkpt>
      <trkpt lat="43.53101" lon="5.45662">
        <ele>199</ele>
        <time>2013-04-07T09:56:18Z</time>
      </trkpt>
      <trkpt lat="43.53095" lon="5.45672">
        <ele>199</ele>
        <time>2013-04-07T09:56:27Z</time>
      </trkpt>
      <trkpt lat="43.53086" lon="5.4568">
        <ele>203</ele>
        <time>2013-04-07T09:56:36Z</time>
      </trkpt>
      <trkpt lat="43.53079" lon="5.45689">
        <ele>205</ele>
        <time>2013-04-07T09:56:45Z</time>
      </trkpt>
      <trkpt lat="43.53071" lon="5.45698">
        <ele>205</ele>
        <time>2013-04-07T09:56:55Z</time>
      </trkpt>
      <trkpt lat="43.53062" lon="5.45708">
        <ele>208</ele>
        <time>2013-04-07T09:57:05Z</time>
      </trkpt>
      <trkpt lat="43.53054" lon="5.45717">
        <ele>208</ele>
        <time>2013-04-07T09:57:15Z</time>
      </trkpt>
      <trkpt lat="43.53046" lon="5.45725">
        <ele>208</ele>
        <time>2013-04-07T09:57:25Z</time>
      </trkpt>
      <trkpt lat="43.53038" lon="5.45738">
        <ele>208</ele>
        <time>2013-04-07T09:57:35Z</time>
      </trkpt>
      <trkpt lat="43.53036" lon="5.45752">
        <ele>209</ele>
        <time>2013-04-07T09:57:44Z</time>
      </trkpt>
      <trkpt lat="43.53037" lon="5.45766">
        <ele>209</ele>
        <time>2013-04-07T09:57:53Z</time>
      </trkpt>
      <trkpt lat="43.53039" lon="5.45781">
        <ele>209</ele>
        <time>2013-04-07T09:58:02Z</time>
      </trkpt>
      <trkpt lat="43.53042" lon="5.45794">
        <ele>209</ele>
        <time>2013-04-07T09:58:11Z</time>
      </trkpt>
      <trkpt lat="43.53045" lon="5.45805">
        <ele>209</ele>
        <time>2013-04-07T09:58:20Z</time>
      </trkpt>
      <trkpt lat="43.53048" lon="5.45817">
        <ele>209</ele>
        <time>2013-04-07T09:58:29Z</time>
      </trkpt>
      <trkpt lat="43.53048" lon="5.45829">
        <ele>215</ele>
        <time>2013-04-07T09:58:38Z</time>
      </trkpt>
      <trkpt lat="43.53049" lon="5.45842">
        <ele>221</ele>
        <time>2013-04-07T09:58:49Z</time>
      </trkpt>
      <trkpt lat="43.53062" lon="5.45858">
        <ele>225</ele>
        <time>2013-04-07T09:58:59Z</time>
      </trkpt>
      <trkpt lat="43.53065" lon="5.45875">
        <ele>222</ele>
        <time>2013-04-07T09:59:08Z</time>
      </trkpt>
      <trkpt lat="43.53072" lon="5.45889">
        <ele>219</ele>
        <time>2013-04-07T09:59:17Z</time>
      </trkpt>
      <trkpt lat="43.53078" lon="5.45899">
        <ele>219</ele>
        <time>2013-04-07T09:59:26Z</time>
      </trkpt>
      <trkpt lat="43.53077" lon="5.4591">
        <ele>219</ele>
        <time>2013-04-07T09:59:35Z</time>
      </trkpt>
      <trkpt lat="43.53082" lon="5.45923">
        <ele>219</ele>
        <time>2013-04-07T09:59:45Z</time>
      </trkpt>
      <trkpt lat="43.5308" lon="5.45926">
        <ele>217</ele>
        <time>2013-04-07T10:00:03Z</time>
      </trkpt>
      <trkpt lat="43.53082" lon="5.45937">
        <ele>215</ele>
        <time>2013-04-07T10:00:13Z</time>
      </trkpt>
      <trkpt lat="43.53085" lon="5.45945">
        <ele>212</ele>
        <time>2013-04-07T10:00:23Z</time>
      </trkpt>
      <trkpt lat="43.53087" lon="5.45956">
        <ele>209</ele>
        <time>2013-04-07T10:00:32Z</time>
      </trkpt>
      <trkpt lat="43.53086" lon="5.45969">
        <ele>208</ele>
        <time>2013-04-07T10:00:41Z</time>
      </trkpt>
      <trkpt lat="43.53085" lon="5.4598">
        <ele>207</ele>
        <time>2013-04-07T10:00:50Z</time>
      </trkpt>
      <trkpt lat="43.53088" lon="5.45992">
        <ele>206</ele>
        <time>2013-04-07T10:00:59Z</time>
      </trkpt>
      <trkpt lat="43.53089" lon="5.4601">
        <ele>203</ele>
        <time>2013-04-07T10:01:09Z</time>
      </trkpt>
      <trkpt lat="43.53089" lon="5.46025">
        <ele>200</ele>
        <time>2013-04-07T10:01:19Z</time>
      </trkpt>
      <trkpt lat="43.5309" lon="5.46036">
        <ele>198</ele>
        <time>2013-04-07T10:01:28Z</time>
      </trkpt>
      <trkpt lat="43.53097" lon="5.46046">
        <ele>198</ele>
        <time>2013-04-07T10:01:39Z</time>
      </trkpt>
      <trkpt lat="43.53097" lon="5.46063">
        <ele>196</ele>
        <time>2013-04-07T10:01:48Z</time>
      </trkpt>
      <trkpt lat="43.53099" lon="5.46077">
        <ele>196</ele>
        <time>2013-04-07T10:01:57Z</time>
      </trkpt>
      <trkpt lat="43.531" lon="5.46076">
        <ele>196</ele>
        <time>2013-04-07T10:02:07Z</time>
      </trkpt>
      <trkpt lat="43.53101" lon="5.46077">
        <ele>196</ele>
        <time>2013-04-07T10:02:19Z</time>
      </trkpt>
      <trkpt lat="43.531" lon="5.46079">
        <ele>196</ele>
        <time>2013-04-07T10:02:30Z</time>
      </trkpt>
      <trkpt lat="43.53103" lon="5.46086">
        <ele>196</ele>
        <time>2013-04-07T10:02:39Z</time>
      </trkpt>
      <trkpt lat="43.53113" lon="5.46082">
        <ele>196</ele>
        <time>2013-04-07T10:02:48Z</time>
      </trkpt>
      <trkpt lat="43.53123" lon="5.46086">
        <ele>196</ele>
        <time>2013-04-07T10:02:57Z</time>
      </trkpt>
      <trkpt lat="43.53131" lon="5.46094">
        <ele>195</ele>
        <time>2013-04-07T10:03:07Z</time>
      </trkpt>
      <trkpt lat="43.53135" lon="5.46107">
        <ele>195</ele>
        <time>2013-04-07T10:03:16Z</time>
      </trkpt>
      <trkpt lat="43.53138" lon="5.46119">
        <ele>195</ele>
        <time>2013-04-07T10:03:25Z</time>
      </trkpt>
      <trkpt lat="43.53143" lon="5.46132">
        <ele>195</ele>
        <time>2013-04-07T10:03:35Z</time>
      </trkpt>
      <trkpt lat="43.53151" lon="5.46142">
        <ele>197</ele>
        <time>2013-04-07T10:03:44Z</time>
      </trkpt>
      <trkpt lat="43.53154" lon="5.46154">
        <ele>200</ele>
        <time>2013-04-07T10:03:54Z</time>
      </trkpt>
      <trkpt lat="43.53161" lon="5.46172">
        <ele>201</ele>
        <time>2013-04-07T10:04:09Z</time>
      </trkpt>
      <trkpt lat="43.53163" lon="5.46186">
        <ele>199</ele>
        <time>2013-04-07T10:04:18Z</time>
      </trkpt>
      <trkpt lat="43.53168" lon="5.462">
        <ele>198</ele>
        <time>2013-04-07T10:04:27Z</time>
      </trkpt>
      <trkpt lat="43.53173" lon="5.46211">
        <ele>199</ele>
        <time>2013-04-07T10:04:36Z</time>
      </trkpt>
      <trkpt lat="43.53178" lon="5.46219">
        <ele>201</ele>
        <time>2013-04-07T10:04:45Z</time>
      </trkpt>
      <trkpt lat="43.53186" lon="5.46233">
        <ele>205</ele>
        <time>2013-04-07T10:04:54Z</time>
      </trkpt>
      <trkpt lat="43.53192" lon="5.46245">
        <ele>204</ele>
        <time>2013-04-07T10:05:03Z</time>
      </trkpt>
      <trkpt lat="43.53196" lon="5.46255">
        <ele>202</ele>
        <time>2013-04-07T10:05:13Z</time>
      </trkpt>
      <trkpt lat="43.53198" lon="5.46264">
        <ele>202</ele>
        <time>2013-04-07T10:05:25Z</time>
      </trkpt>
      <trkpt lat="43.53198" lon="5.46265">
        <ele>202</ele>
        <time>2013-04-07T10:05:34Z</time>
      </trkpt>
      <trkpt lat="43.53198" lon="5.46265">
        <ele>206</ele>
        <time>2013-04-07T10:05:57Z</time>
      </trkpt>
      <trkpt lat="43.53199" lon="5.46268">
        <ele>207</ele>
        <time>2013-04-07T10:06:08Z</time>
      </trkpt>
      <trkpt lat="43.53203" lon="5.4628">
        <ele>207</ele>
        <time>2013-04-07T10:06:17Z</time>
      </trkpt>
      <trkpt lat="43.53208" lon="5.46294">
        <ele>207</ele>
        <time>2013-04-07T10:06:26Z</time>
      </trkpt>
      <trkpt lat="43.53213" lon="5.46308">
        <ele>207</ele>
        <time>2013-04-07T10:06:35Z</time>
      </trkpt>
      <trkpt lat="43.53219" lon="5.46322">
        <ele>207</ele>
        <time>2013-04-07T10:06:44Z</time>
      </trkpt>
      <trkpt lat="43.53225" lon="5.46336">
        <ele>207</ele>
        <time>2013-04-07T10:06:53Z</time>
      </trkpt>
      <trkpt lat="43.53229" lon="5.4635">
        <ele>207</ele>
        <time>2013-04-07T10:07:02Z</time>
      </trkpt>
      <trkpt lat="43.53233" lon="5.46366">
        <ele>207</ele>
        <time>2013-04-07T10:07:11Z</time>
      </trkpt>
      <trkpt lat="43.53239" lon="5.46378">
        <ele>207</ele>
        <time>2013-04-07T10:07:20Z</time>
      </trkpt>
      <trkpt lat="43.53245" lon="5.46392">
        <ele>207</ele>
        <time>2013-04-07T10:07:29Z</time>
      </trkpt>
      <trkpt lat="43.53249" lon="5.46406">
        <ele>207</ele>
        <time>2013-04-07T10:07:38Z</time>
      </trkpt>
      <trkpt lat="43.53254" lon="5.4642">
        <ele>207</ele>
        <time>2013-04-07T10:07:47Z</time>
      </trkpt>
      <trkpt lat="43.53259" lon="5.46433">
        <ele>207</ele>
        <time>2013-04-07T10:07:56Z</time>
      </trkpt>
      <trkpt lat="43.53264" lon="5.46446">
        <ele>207</ele>
        <time>2013-04-07T10:08:05Z</time>
      </trkpt>
      <trkpt lat="43.53268" lon="5.4646">
        <ele>207</ele>
        <time>2013-04-07T10:08:14Z</time>
      </trkpt>
      <trkpt lat="43.53273" lon="5.46474">
        <ele>207</ele>
        <time>2013-04-07T10:08:23Z</time>
      </trkpt>
      <trkpt lat="43.53274" lon="5.46487">
        <ele>207</ele>
        <time>2013-04-07T10:08:32Z</time>
      </trkpt>
      <trkpt lat="43.53276" lon="5.46502">
        <ele>207</ele>
        <time>2013-04-07T10:08:41Z</time>
      </trkpt>
      <trkpt lat="43.53277" lon="5.46516">
        <ele>207</ele>
        <time>2013-04-07T10:08:50Z</time>
      </trkpt>
      <trkpt lat="43.53278" lon="5.46529">
        <ele>207</ele>
        <time>2013-04-07T10:08:59Z</time>
      </trkpt>
      <trkpt lat="43.53273" lon="5.46546">
        <ele>207</ele>
        <time>2013-04-07T10:09:09Z</time>
      </trkpt>
      <trkpt lat="43.53268" lon="5.46554">
        <ele>204</ele>
        <time>2013-04-07T10:09:25Z</time>
      </trkpt>
      <trkpt lat="43.53258" lon="5.46562">
        <ele>204</ele>
        <time>2013-04-07T10:09:34Z</time>
      </trkpt>
      <trkpt lat="43.53244" lon="5.46564">
        <ele>204</ele>
        <time>2013-04-07T10:09:43Z</time>
      </trkpt>
      <trkpt lat="43.53233" lon="5.46569">
        <ele>204</ele>
        <time>2013-04-07T10:09:52Z</time>
      </trkpt>
      <trkpt lat="43.53222" lon="5.46574">
        <ele>207</ele>
        <time>2013-04-07T10:10:02Z</time>
      </trkpt>
      <trkpt lat="43.53217" lon="5.46585">
        <ele>207</ele>
        <time>2013-04-07T10:10:11Z</time>
      </trkpt>
      <trkpt lat="43.53214" lon="5.46597">
        <ele>210</ele>
        <time>2013-04-07T10:10:21Z</time>
      </trkpt>
      <trkpt lat="43.53215" lon="5.46609">
        <ele>212</ele>
        <time>2013-04-07T10:10:30Z</time>
      </trkpt>
      <trkpt lat="43.53211" lon="5.46624">
        <ele>213</ele>
        <time>2013-04-07T10:10:40Z</time>
      </trkpt>
      <trkpt lat="43.53209" lon="5.46637">
        <ele>214</ele>
        <time>2013-04-07T10:10:49Z</time>
      </trkpt>
      <trkpt lat="43.53208" lon="5.46652">
        <ele>214</ele>
        <time>2013-04-07T10:10:59Z</time>
      </trkpt>
      <trkpt lat="43.53208" lon="5.46663">
        <ele>214</ele>
        <time>2013-04-07T10:11:08Z</time>
      </trkpt>
      <trkpt lat="43.53209" lon="5.46677">
        <ele>215</ele>
        <time>2013-04-07T10:11:17Z</time>
      </trkpt>
      <trkpt lat="43.53211" lon="5.46689">
        <ele>215</ele>
        <time>2013-04-07T10:11:26Z</time>
      </trkpt>
      <trkpt lat="43.53217" lon="5.46702">
        <ele>217</ele>
        <time>2013-04-07T10:11:36Z</time>
      </trkpt>
      <trkpt lat="43.53215" lon="5.46714">
        <ele>221</ele>
        <time>2013-04-07T10:11:45Z</time>
      </trkpt>
      <trkpt lat="43.53215" lon="5.46727">
        <ele>221</ele>
        <time>2013-04-07T10:11:54Z</time>
      </trkpt>
      <trkpt lat="43.5321" lon="5.46739">
        <ele>224</ele>
        <time>2013-04-07T10:12:03Z</time>
      </trkpt>
      <trkpt lat="43.53207" lon="5.46751">
        <ele>229</ele>
        <time>2013-04-07T10:12:12Z</time>
      </trkpt>
      <trkpt lat="43.53202" lon="5.46763">
        <ele>229</ele>
        <time>2013-04-07T10:12:21Z</time>
      </trkpt>
      <trkpt lat="43.53198" lon="5.46775">
        <ele>230</ele>
        <time>2013-04-07T10:12:31Z</time>
      </trkpt>
      <trkpt lat="43.53201" lon="5.46785">
        <ele>229</ele>
        <time>2013-04-07T10:12:41Z</time>
      </trkpt>
      <trkpt lat="43.53199" lon="5.46796">
        <ele>226</ele>
        <time>2013-04-07T10:12:51Z</time>
      </trkpt>
      <trkpt lat="43.53198" lon="5.46806">
        <ele>226</ele>
        <time>2013-04-07T10:13:00Z</time>
      </trkpt>
      <trkpt lat="43.53192" lon="5.46814">
        <ele>226</ele>
        <time>2013-04-07T10:13:09Z</time>
      </trkpt>
      <trkpt lat="43.53192" lon="5.46825">
        <ele>228</ele>
        <time>2013-04-07T10:13:19Z</time>
      </trkpt>
      <trkpt lat="43.53192" lon="5.46836">
        <ele>228</ele>
        <time>2013-04-07T10:13:29Z</time>
      </trkpt>
      <trkpt lat="43.53191" lon="5.46846">
        <ele>229</ele>
        <time>2013-04-07T10:13:38Z</time>
      </trkpt>
      <trkpt lat="43.5319" lon="5.46855">
        <ele>232</ele>
        <time>2013-04-07T10:13:47Z</time>
      </trkpt>
      <trkpt lat="43.53192" lon="5.46869">
        <ele>235</ele>
        <time>2013-04-07T10:13:57Z</time>
      </trkpt>
      <trkpt lat="43.53191" lon="5.46881">
        <ele>237</ele>
        <time>2013-04-07T10:14:07Z</time>
      </trkpt>
      <trkpt lat="43.53191" lon="5.4689">
        <ele>237</ele>
        <time>2013-04-07T10:14:16Z</time>
      </trkpt>
      <trkpt lat="43.5319" lon="5.46902">
        <ele>237</ele>
        <time>2013-04-07T10:14:25Z</time>
      </trkpt>
      <trkpt lat="43.53188" lon="5.46915">
        <ele>237</ele>
        <time>2013-04-07T10:14:35Z</time>
      </trkpt>
      <trkpt lat="43.53187" lon="5.46926">
        <ele>237</ele>
        <time>2013-04-07T10:14:44Z</time>
      </trkpt>
      <trkpt lat="43.53184" lon="5.46938">
        <ele>240</ele>
        <time>2013-04-07T10:14:54Z</time>
      </trkpt>
      <trkpt lat="43.53181" lon="5.46948">
        <ele>242</ele>
        <time>2013-04-07T10:15:04Z</time>
      </trkpt>
      <trkpt lat="43.5318" lon="5.46958">
        <ele>242</ele>
        <time>2013-04-07T10:15:13Z</time>
      </trkpt>
      <trkpt lat="43.53178" lon="5.4697">
        <ele>245</ele>
        <time>2013-04-07T10:15:23Z</time>
      </trkpt>
      <trkpt lat="43.53179" lon="5.46982">
        <ele>245</ele>
        <time>2013-04-07T10:15:32Z</time>
      </trkpt>
      <trkpt lat="43.53176" lon="5.46994">
        <ele>245</ele>
        <time>2013-04-07T10:15:43Z</time>
      </trkpt>
      <trkpt lat="43.53177" lon="5.47008">
        <ele>245</ele>
        <time>2013-04-07T10:15:53Z</time>
      </trkpt>
      <trkpt lat="43.53178" lon="5.4702">
        <ele>245</ele>
        <time>2013-04-07T10:16:02Z</time>
      </trkpt>
      <trkpt lat="43.53177" lon="5.47024">
        <ele>248</ele>
        <time>2013-04-07T10:16:12Z</time>
      </trkpt>
      <trkpt lat="43.53176" lon="5.47031">
        <ele>254</ele>
        <time>2013-04-07T10:16:22Z</time>
      </trkpt>
      <trkpt lat="43.53177" lon="5.47041">
        <ele>255</ele>
        <time>2013-04-07T10:16:31Z</time>
      </trkpt>
      <trkpt lat="43.53176" lon="5.4705">
        <ele>255</ele>
        <time>2013-04-07T10:16:42Z</time>
      </trkpt>
      <trkpt lat="43.53174" lon="5.47058">
        <ele>255</ele>
        <time>2013-04-07T10:16:52Z</time>
      </trkpt>
      <trkpt lat="43.5317" lon="5.47069">
        <ele>255</ele>
        <time>2013-04-07T10:17:02Z</time>
      </trkpt>
      <trkpt lat="43.53167" lon="5.47078">
        <ele>258</ele>
        <time>2013-04-07T10:17:12Z</time>
      </trkpt>
      <trkpt lat="43.53166" lon="5.47089">
        <ele>260</ele>
        <time>2013-04-07T10:17:21Z</time>
      </trkpt>
      <trkpt lat="43.53163" lon="5.47099">
        <ele>261</ele>
        <time>2013-04-07T10:17:31Z</time>
      </trkpt>
      <trkpt lat="43.53161" lon="5.47111">
        <ele>261</ele>
        <time>2013-04-07T10:17:41Z</time>
      </trkpt>
      <trkpt lat="43.53156" lon="5.47119">
        <ele>260</ele>
        <time>2013-04-07T10:17:51Z</time>
      </trkpt>
      <trkpt lat="43.53157" lon="5.47126">
        <ele>259</ele>
        <time>2013-04-07T10:18:00Z</time>
      </trkpt>
      <trkpt lat="43.53159" lon="5.47137">
        <ele>258</ele>
        <time>2013-04-07T10:18:10Z</time>
      </trkpt>
      <trkpt lat="43.53159" lon="5.47149">
        <ele>258</ele>
        <time>2013-04-07T10:18:19Z</time>
      </trkpt>
      <trkpt lat="43.53159" lon="5.47157">
        <ele>260</ele>
        <time>2013-04-07T10:18:29Z</time>
      </trkpt>
      <trkpt lat="43.53156" lon="5.47167">
        <ele>264</ele>
        <time>2013-04-07T10:18:40Z</time>
      </trkpt>
      <trkpt lat="43.53154" lon="5.47174">
        <ele>267</ele>
        <time>2013-04-07T10:18:50Z</time>
      </trkpt>
      <trkpt lat="43.53153" lon="5.47179">
        <ele>268</ele>
        <time>2013-04-07T10:18:59Z</time>
      </trkpt>
      <trkpt lat="43.53151" lon="5.47182">
        <ele>268</ele>
        <time>2013-04-07T10:19:08Z</time>
      </trkpt>
      <trkpt lat="43.53148" lon="5.47191">
        <ele>268</ele>
        <time>2013-04-07T10:19:18Z</time>
      </trkpt>
      <trkpt lat="43.53145" lon="5.47202">
        <ele>268</ele>
        <time>2013-04-07T10:19:28Z</time>
      </trkpt>
      <trkpt lat="43.53143" lon="5.47214">
        <ele>268</ele>
        <time>2013-04-07T10:19:37Z</time>
      </trkpt>
      <trkpt lat="43.53141" lon="5.47224">
        <ele>268</ele>
        <time>2013-04-07T10:19:46Z</time>
      </trkpt>
      <trkpt lat="43.53142" lon="5.47237">
        <ele>271</ele>
        <time>2013-04-07T10:19:56Z</time>
      </trkpt>
      <trkpt lat="43.53141" lon="5.47249">
        <ele>271</ele>
        <time>2013-04-07T10:20:06Z</time>
      </trkpt>
      <trkpt lat="43.5314" lon="5.4726">
        <ele>271</ele>
        <time>2013-04-07T10:20:16Z</time>
      </trkpt>
      <trkpt lat="43.53138" lon="5.47271">
        <ele>271</ele>
        <time>2013-04-07T10:20:25Z</time>
      </trkpt>
      <trkpt lat="43.53137" lon="5.47282">
        <ele>272</ele>
        <time>2013-04-07T10:20:34Z</time>
      </trkpt>
      <trkpt lat="43.53134" lon="5.47294">
        <ele>272</ele>
        <time>2013-04-07T10:20:43Z</time>
      </trkpt>
      <trkpt lat="43.53134" lon="5.47306">
        <ele>275</ele>
        <time>2013-04-07T10:20:53Z</time>
      </trkpt>
      <trkpt lat="43.53136" lon="5.47316">
        <ele>278</ele>
        <time>2013-04-07T10:21:02Z</time>
      </trkpt>
      <trkpt lat="43.5314" lon="5.47325">
        <ele>281</ele>
        <time>2013-04-07T10:21:13Z</time>
      </trkpt>
      <trkpt lat="43.53143" lon="5.47337">
        <ele>283</ele>
        <time>2013-04-07T10:21:23Z</time>
      </trkpt>
      <trkpt lat="43.53143" lon="5.47345">
        <ele>285</ele>
        <time>2013-04-07T10:21:33Z</time>
      </trkpt>
      <trkpt lat="43.53145" lon="5.47353">
        <ele>285</ele>
        <time>2013-04-07T10:21:43Z</time>
      </trkpt>
      <trkpt lat="43.53144" lon="5.47364">
        <ele>286</ele>
        <time>2013-04-07T10:21:54Z</time>
      </trkpt>
      <trkpt lat="43.5314" lon="5.47367">
        <ele>286</ele>
        <time>2013-04-07T10:22:04Z</time>
      </trkpt>
      <trkpt lat="43.53139" lon="5.47369">
        <ele>286</ele>
        <time>2013-04-07T10:22:17Z</time>
      </trkpt>
      <trkpt lat="43.53136" lon="5.4738">
        <ele>286</ele>
        <time>2013-04-07T10:22:27Z</time>
      </trkpt>
      <trkpt lat="43.53131" lon="5.47392">
        <ele>286</ele>
        <time>2013-04-07T10:22:36Z</time>
      </trkpt>
      <trkpt lat="43.53125" lon="5.47403">
        <ele>286</ele>
        <time>2013-04-07T10:22:46Z</time>
      </trkpt>
      <trkpt lat="43.53121" lon="5.47414">
        <ele>286</ele>
        <time>2013-04-07T10:22:55Z</time>
      </trkpt>
      <trkpt lat="43.53122" lon="5.47426">
        <ele>286</ele>
        <time>2013-04-07T10:23:04Z</time>
      </trkpt>
      <trkpt lat="43.53132" lon="5.47431">
        <ele>286</ele>
        <time>2013-04-07T10:23:14Z</time>
      </trkpt>
      <trkpt lat="43.53143" lon="5.47434">
        <ele>286</ele>
        <time>2013-04-07T10:23:25Z</time>
      </trkpt>
      <trkpt lat="43.53152" lon="5.47433">
        <ele>287</ele>
        <time>2013-04-07T10:23:34Z</time>
      </trkpt>
      <trkpt lat="43.53161" lon="5.47434">
        <ele>291</ele>
        <time>2013-04-07T10:23:43Z</time>
      </trkpt>
      <trkpt lat="43.53175" lon="5.47435">
        <ele>293</ele>
        <time>2013-04-07T10:23:54Z</time>
      </trkpt>
      <trkpt lat="43.53185" lon="5.47442">
        <ele>293</ele>
        <time>2013-04-07T10:24:04Z</time>
      </trkpt>
      <trkpt lat="43.5319" lon="5.47453">
        <ele>293</ele>
        <time>2013-04-07T10:24:14Z</time>
      </trkpt>
      <trkpt lat="43.53188" lon="5.47466">
        <ele>293</ele>
        <time>2013-04-07T10:24:24Z</time>
      </trkpt>
      <trkpt lat="43.53186" lon="5.47479">
        <ele>294</ele>
        <time>2013-04-07T10:24:34Z</time>
      </trkpt>
      <trkpt lat="43.53182" lon="5.47495">
        <ele>294</ele>
        <time>2013-04-07T10:24:44Z</time>
      </trkpt>
      <trkpt lat="43.53179" lon="5.4751">
        <ele>294</ele>
        <time>2013-04-07T10:24:54Z</time>
      </trkpt>
      <trkpt lat="43.53175" lon="5.47524">
        <ele>294</ele>
        <time>2013-04-07T10:25:05Z</time>
      </trkpt>
      <trkpt lat="43.53171" lon="5.47541">
        <ele>294</ele>
        <time>2013-04-07T10:25:14Z</time>
      </trkpt>
      <trkpt lat="43.53168" lon="5.47553">
        <ele>294</ele>
        <time>2013-04-07T10:25:23Z</time>
      </trkpt>
      <trkpt lat="43.53164" lon="5.47571">
        <ele>297</ele>
        <time>2013-04-07T10:25:34Z</time>
      </trkpt>
      <trkpt lat="43.53162" lon="5.47587">
        <ele>300</ele>
        <time>2013-04-07T10:25:44Z</time>
      </trkpt>
      <trkpt lat="43.53163" lon="5.47602">
        <ele>300</ele>
        <time>2013-04-07T10:25:54Z</time>
      </trkpt>
      <trkpt lat="43.53164" lon="5.47616">
        <ele>300</ele>
        <time>2013-04-07T10:26:03Z</time>
      </trkpt>
      <trkpt lat="43.53167" lon="5.47629">
        <ele>299</ele>
        <time>2013-04-07T10:26:13Z</time>
      </trkpt>
      <trkpt lat="43.53163" lon="5.47646">
        <ele>299</ele>
        <time>2013-04-07T10:26:22Z</time>
      </trkpt>
      <trkpt lat="43.53159" lon="5.47661">
        <ele>300</ele>
        <time>2013-04-07T10:26:31Z</time>
      </trkpt>
      <trkpt lat="43.53154" lon="5.47673">
        <ele>300</ele>
        <time>2013-04-07T10:26:41Z</time>
      </trkpt>
      <trkpt lat="43.53146" lon="5.47683">
        <ele>300</ele>
        <time>2013-04-07T10:26:51Z</time>
      </trkpt>
      <trkpt lat="43.53138" lon="5.47694">
        <ele>300</ele>
        <time>2013-04-07T10:27:00Z</time>
      </trkpt>
      <trkpt lat="43.5313" lon="5.47706">
        <ele>300</ele>
        <time>2013-04-07T10:27:09Z</time>
      </trkpt>
      <trkpt lat="43.5312" lon="5.47718">
        <ele>301</ele>
        <time>2013-04-07T10:27:20Z</time>
      </trkpt>
      <trkpt lat="43.53111" lon="5.47727">
        <ele>303</ele>
        <time>2013-04-07T10:27:29Z</time>
      </trkpt>
      <trkpt lat="43.531" lon="5.47736">
        <ele>303</ele>
        <time>2013-04-07T10:27:39Z</time>
      </trkpt>
      <trkpt lat="43.53093" lon="5.47748">
        <ele>303</ele>
        <time>2013-04-07T10:27:49Z</time>
      </trkpt>
      <trkpt lat="43.53092" lon="5.47762">
        <ele>303</ele>
        <time>2013-04-07T10:27:59Z</time>
      </trkpt>
      <trkpt lat="43.53099" lon="5.47776">
        <ele>303</ele>
        <time>2013-04-07T10:28:09Z</time>
      </trkpt>
      <trkpt lat="43.53103" lon="5.47791">
        <ele>303</ele>
        <time>2013-04-07T10:28:19Z</time>
      </trkpt>
      <trkpt lat="43.53104" lon="5.47807">
        <ele>303</ele>
        <time>2013-04-07T10:28:30Z</time>
      </trkpt>
      <trkpt lat="43.53105" lon="5.4782">
        <ele>303</ele>
        <time>2013-04-07T10:28:39Z</time>
      </trkpt>
      <trkpt lat="43.53107" lon="5.47833">
        <ele>303</ele>
        <time>2013-04-07T10:28:48Z</time>
      </trkpt>
      <trkpt lat="43.53111" lon="5.47847">
        <ele>303</ele>
        <time>2013-04-07T10:28:59Z</time>
      </trkpt>
      <trkpt lat="43.53116" lon="5.47862">
        <ele>303</ele>
        <time>2013-04-07T10:29:09Z</time>
      </trkpt>
      <trkpt lat="43.53115" lon="5.47877">
        <ele>303</ele>
        <time>2013-04-07T10:29:19Z</time>
      </trkpt>
      <trkpt lat="43.53112" lon="5.47892">
        <ele>303</ele>
        <time>2013-04-07T10:29:29Z</time>
      </trkpt>
      <trkpt lat="43.53108" lon="5.47906">
        <ele>302</ele>
        <time>2013-04-07T10:29:39Z</time>
      </trkpt>
      <trkpt lat="43.53104" lon="5.47922">
        <ele>301</ele>
        <time>2013-04-07T10:29:49Z</time>
      </trkpt>
      <trkpt lat="43.53106" lon="5.47938">
        <ele>301</ele>
        <time>2013-04-07T10:29:59Z</time>
      </trkpt>
      <trkpt lat="43.53107" lon="5.47954">
        <ele>301</ele>
        <time>2013-04-07T10:30:10Z</time>
      </trkpt>
      <trkpt lat="43.53104" lon="5.47966">
        <ele>301</ele>
        <time>2013-04-07T10:30:20Z</time>
      </trkpt>
      <trkpt lat="43.53099" lon="5.47979">
        <ele>301</ele>
        <time>2013-04-07T10:30:30Z</time>
      </trkpt>
      <trkpt lat="43.53094" lon="5.4799">
        <ele>301</ele>
        <time>2013-04-07T10:30:40Z</time>
      </trkpt>
      <trkpt lat="43.53086" lon="5.48">
        <ele>301</ele>
        <time>2013-04-07T10:30:50Z</time>
      </trkpt>
      <trkpt lat="43.53077" lon="5.48009">
        <ele>303</ele>
        <time>2013-04-07T10:31:00Z</time>
      </trkpt>
      <trkpt lat="43.5307" lon="5.48021">
        <ele>303</ele>
        <time>2013-04-07T10:31:09Z</time>
      </trkpt>
      <trkpt lat="43.53065" lon="5.48034">
        <ele>304</ele>
        <time>2013-04-07T10:31:20Z</time>
      </trkpt>
      <trkpt lat="43.53062" lon="5.48047">
        <ele>304</ele>
        <time>2013-04-07T10:31:30Z</time>
      </trkpt>
      <trkpt lat="43.53059" lon="5.48061">
        <ele>304</ele>
        <time>2013-04-07T10:31:39Z</time>
      </trkpt>
      <trkpt lat="43.53056" lon="5.48077">
        <ele>304</ele>
        <time>2013-04-07T10:31:49Z</time>
      </trkpt>
      <trkpt lat="43.53052" lon="5.48093">
        <ele>304</ele>
        <time>2013-04-07T10:31:59Z</time>
      </trkpt>
      <trkpt lat="43.53049" lon="5.48106">
        <ele>306</ele>
        <time>2013-04-07T10:32:09Z</time>
      </trkpt>
      <trkpt lat="43.53047" lon="5.48121">
        <ele>306</ele>
        <time>2013-04-07T10:32:19Z</time>
      </trkpt>
      <trkpt lat="43.53048" lon="5.48135">
        <ele>306</ele>
        <time>2013-04-07T10:32:28Z</time>
      </trkpt>
      <trkpt lat="43.53048" lon="5.48153">
        <ele>306</ele>
        <time>2013-04-07T10:32:38Z</time>
      </trkpt>
      <trkpt lat="43.53046" lon="5.48166">
        <ele>306</ele>
        <time>2013-04-07T10:32:47Z</time>
      </trkpt>
      <trkpt lat="43.53042" lon="5.48182">
        <ele>306</ele>
        <time>2013-04-07T10:32:57Z</time>
      </trkpt>
      <trkpt lat="43.53044" lon="5.48196">
        <ele>306</ele>
        <time>2013-04-07T10:33:06Z</time>
      </trkpt>
      <trkpt lat="43.53039" lon="5.48212">
        <ele>307</ele>
        <time>2013-04-07T10:33:15Z</time>
      </trkpt>
      <trkpt lat="43.53034" lon="5.48223">
        <ele>308</ele>
        <time>2013-04-07T10:33:24Z</time>
      </trkpt>
      <trkpt lat="43.53028" lon="5.48238">
        <ele>311</ele>
        <time>2013-04-07T10:33:34Z</time>
      </trkpt>
      <trkpt lat="43.53022" lon="5.48251">
        <ele>312</ele>
        <time>2013-04-07T10:33:44Z</time>
      </trkpt>
      <trkpt lat="43.53017" lon="5.48266">
        <ele>312</ele>
        <time>2013-04-07T10:33:54Z</time>
      </trkpt>
      <trkpt lat="43.53013" lon="5.48281">
        <ele>312</ele>
        <time>2013-04-07T10:34:04Z</time>
      </trkpt>
      <trkpt lat="43.53009" lon="5.483">
        <ele>312</ele>
        <time>2013-04-07T10:34:15Z</time>
      </trkpt>
      <trkpt lat="43.53003" lon="5.48315">
        <ele>313</ele>
        <time>2013-04-07T10:34:25Z</time>
      </trkpt>
      <trkpt lat="43.52995" lon="5.48326">
        <ele>314</ele>
        <time>2013-04-07T10:34:34Z</time>
      </trkpt>
      <trkpt lat="43.52986" lon="5.48343">
        <ele>316</ele>
        <time>2013-04-07T10:34:45Z</time>
      </trkpt>
      <trkpt lat="43.52982" lon="5.48354">
        <ele>317</ele>
        <time>2013-04-07T10:34:54Z</time>
      </trkpt>
      <trkpt lat="43.52976" lon="5.4837">
        <ele>317</ele>
        <time>2013-04-07T10:35:04Z</time>
      </trkpt>
      <trkpt lat="43.52968" lon="5.48379">
        <ele>317</ele>
        <time>2013-04-07T10:35:13Z</time>
      </trkpt>
      <trkpt lat="43.52957" lon="5.48387">
        <ele>316</ele>
        <time>2013-04-07T10:35:24Z</time>
      </trkpt>
      <trkpt lat="43.52947" lon="5.48394">
        <ele>314</ele>
        <time>2013-04-07T10:35:34Z</time>
      </trkpt>
      <trkpt lat="43.52937" lon="5.48403">
        <ele>314</ele>
        <time>2013-04-07T10:35:45Z</time>
      </trkpt>
      <trkpt lat="43.52925" lon="5.48412">
        <ele>314</ele>
        <time>2013-04-07T10:35:55Z</time>
      </trkpt>
      <trkpt lat="43.52916" lon="5.48419">
        <ele>314</ele>
        <time>2013-04-07T10:36:04Z</time>
      </trkpt>
      <trkpt lat="43.52908" lon="5.48428">
        <ele>314</ele>
        <time>2013-04-07T10:36:14Z</time>
      </trkpt>
      <trkpt lat="43.52904" lon="5.48441">
        <ele>311</ele>
        <time>2013-04-07T10:36:24Z</time>
      </trkpt>
      <trkpt lat="43.529" lon="5.48458">
        <ele>311</ele>
        <time>2013-04-07T10:36:34Z</time>
      </trkpt>
      <trkpt lat="43.52899" lon="5.48477">
        <ele>314</ele>
        <time>2013-04-07T10:36:44Z</time>
      </trkpt>
      <trkpt lat="43.52899" lon="5.48494">
        <ele>319</ele>
        <time>2013-04-07T10:36:54Z</time>
      </trkpt>
      <trkpt lat="43.52901" lon="5.48515">
        <ele>324</ele>
        <time>2013-04-07T10:37:04Z</time>
      </trkpt>
      <trkpt lat="43.529" lon="5.4853">
        <ele>324</ele>
        <time>2013-04-07T10:37:14Z</time>
      </trkpt>
      <trkpt lat="43.52902" lon="5.48547">
        <ele>324</ele>
        <time>2013-04-07T10:37:24Z</time>
      </trkpt>
      <trkpt lat="43.52902" lon="5.48565">
        <ele>324</ele>
        <time>2013-04-07T10:37:34Z</time>
      </trkpt>
      <trkpt lat="43.52902" lon="5.4858">
        <ele>324</ele>
        <time>2013-04-07T10:37:44Z</time>
      </trkpt>
      <trkpt lat="43.52903" lon="5.48595">
        <ele>324</ele>
        <time>2013-04-07T10:37:55Z</time>
      </trkpt>
      <trkpt lat="43.52904" lon="5.48608">
        <ele>324</ele>
        <time>2013-04-07T10:38:04Z</time>
      </trkpt>
      <trkpt lat="43.52904" lon="5.48625">
        <ele>324</ele>
        <time>2013-04-07T10:38:14Z</time>
      </trkpt>
      <trkpt lat="43.52905" lon="5.48642">
        <ele>326</ele>
        <time>2013-04-07T10:38:24Z</time>
      </trkpt>
      <trkpt lat="43.52906" lon="5.48658">
        <ele>327</ele>
        <time>2013-04-07T10:38:34Z</time>
      </trkpt>
      <trkpt lat="43.52909" lon="5.48673">
        <ele>328</ele>
        <time>2013-04-07T10:38:44Z</time>
      </trkpt>
      <trkpt lat="43.52914" lon="5.48688">
        <ele>329</ele>
        <time>2013-04-07T10:38:54Z</time>
      </trkpt>
      <trkpt lat="43.5292" lon="5.48703">
        <ele>329</ele>
        <time>2013-04-07T10:39:04Z</time>
      </trkpt>
      <trkpt lat="43.52925" lon="5.48719">
        <ele>329</ele>
        <time>2013-04-07T10:39:14Z</time>
      </trkpt>
      <trkpt lat="43.5293" lon="5.48734">
        <ele>329</ele>
        <time>2013-04-07T10:39:24Z</time>
      </trkpt>
      <trkpt lat="43.52934" lon="5.4875">
        <ele>329</ele>
        <time>2013-04-07T10:39:34Z</time>
      </trkpt>
      <trkpt lat="43.52937" lon="5.48768">
        <ele>329</ele>
        <time>2013-04-07T10:39:44Z</time>
      </trkpt>
      <trkpt lat="43.52942" lon="5.48783">
        <ele>329</ele>
        <time>2013-04-07T10:39:54Z</time>
      </trkpt>
      <trkpt lat="43.52945" lon="5.48798">
        <ele>329</ele>
        <time>2013-04-07T10:40:04Z</time>
      </trkpt>
      <trkpt lat="43.52948" lon="5.48814">
        <ele>329</ele>
        <time>2013-04-07T10:40:14Z</time>
      </trkpt>
      <trkpt lat="43.52951" lon="5.48829">
        <ele>329</ele>
        <time>2013-04-07T10:40:24Z</time>
      </trkpt>
      <trkpt lat="43.52953" lon="5.48845">
        <ele>329</ele>
        <time>2013-04-07T10:40:34Z</time>
      </trkpt>
      <trkpt lat="43.52956" lon="5.48861">
        <ele>329</ele>
        <time>2013-04-07T10:40:44Z</time>
      </trkpt>
      <trkpt lat="43.52955" lon="5.48877">
        <ele>328</ele>
        <time>2013-04-07T10:40:54Z</time>
      </trkpt>
      <trkpt lat="43.52953" lon="5.48886">
        <ele>325</ele>
        <time>2013-04-07T10:41:04Z</time>
      </trkpt>
      <trkpt lat="43.52945" lon="5.48904">
        <ele>325</ele>
        <time>2013-04-07T10:41:15Z</time>
      </trkpt>
      <trkpt lat="43.52938" lon="5.48918">
        <ele>325</ele>
        <time>2013-04-07T10:41:24Z</time>
      </trkpt>
      <trkpt lat="43.52931" lon="5.48935">
        <ele>325</ele>
        <time>2013-04-07T10:41:34Z</time>
      </trkpt>
      <trkpt lat="43.52925" lon="5.48951">
        <ele>325</ele>
        <time>2013-04-07T10:41:44Z</time>
      </trkpt>
      <trkpt lat="43.52916" lon="5.48967">
        <ele>327</ele>
        <time>2013-04-07T10:41:54Z</time>
      </trkpt>
      <trkpt lat="43.52907" lon="5.48982">
        <ele>327</ele>
        <time>2013-04-07T10:42:05Z</time>
      </trkpt>
      <trkpt lat="43.52902" lon="5.48996">
        <ele>327</ele>
        <time>2013-04-07T10:42:14Z</time>
      </trkpt>
      <trkpt lat="43.52896" lon="5.49012">
        <ele>327</ele>
        <time>2013-04-07T10:42:24Z</time>
      </trkpt>
      <trkpt lat="43.52889" lon="5.49026">
        <ele>327</ele>
        <time>2013-04-07T10:42:34Z</time>
      </trkpt>
      <trkpt lat="43.52883" lon="5.49043">
        <ele>328</ele>
        <time>2013-04-07T10:42:44Z</time>
      </trkpt>
      <trkpt lat="43.52876" lon="5.4906">
        <ele>328</ele>
        <time>2013-04-07T10:42:54Z</time>
      </trkpt>
      <trkpt lat="43.52869" lon="5.49075">
        <ele>330</ele>
        <time>2013-04-07T10:43:04Z</time>
      </trkpt>
      <trkpt lat="43.52863" lon="5.49094">
        <ele>333</ele>
        <time>2013-04-07T10:43:14Z</time>
      </trkpt>
      <trkpt lat="43.52856" lon="5.49104">
        <ele>336</ele>
        <time>2013-04-07T10:43:25Z</time>
      </trkpt>
      <trkpt lat="43.5285" lon="5.49117">
        <ele>337</ele>
        <time>2013-04-07T10:43:34Z</time>
      </trkpt>
      <trkpt lat="43.52845" lon="5.49133">
        <ele>337</ele>
        <time>2013-04-07T10:43:44Z</time>
      </trkpt>
      <trkpt lat="43.5285" lon="5.49147">
        <ele>335</ele>
        <time>2013-04-07T10:43:54Z</time>
      </trkpt>
      <trkpt lat="43.52857" lon="5.49159">
        <ele>334</ele>
        <time>2013-04-07T10:44:04Z</time>
      </trkpt>
      <trkpt lat="43.52862" lon="5.49174">
        <ele>332</ele>
        <time>2013-04-07T10:44:14Z</time>
      </trkpt>
      <trkpt lat="43.52866" lon="5.49188">
        <ele>331</ele>
        <time>2013-04-07T10:44:24Z</time>
      </trkpt>
      <trkpt lat="43.52873" lon="5.49202">
        <ele>331</ele>
        <time>2013-04-07T10:44:34Z</time>
      </trkpt>
      <trkpt lat="43.52877" lon="5.49217">
        <ele>331</ele>
        <time>2013-04-07T10:44:44Z</time>
      </trkpt>
      <trkpt lat="43.52882" lon="5.49232">
        <ele>331</ele>
        <time>2013-04-07T10:44:55Z</time>
      </trkpt>
      <trkpt lat="43.52887" lon="5.49243">
        <ele>331</ele>
        <time>2013-04-07T10:45:05Z</time>
      </trkpt>
      <trkpt lat="43.52895" lon="5.4925">
        <ele>331</ele>
        <time>2013-04-07T10:45:14Z</time>
      </trkpt>
      <trkpt lat="43.52905" lon="5.49263">
        <ele>331</ele>
        <time>2013-04-07T10:45:24Z</time>
      </trkpt>
      <trkpt lat="43.52911" lon="5.49277">
        <ele>331</ele>
        <time>2013-04-07T10:45:34Z</time>
      </trkpt>
      <trkpt lat="43.52919" lon="5.49289">
        <ele>331</ele>
        <time>2013-04-07T10:45:45Z</time>
      </trkpt>
      <trkpt lat="43.52929" lon="5.49298">
        <ele>331</ele>
        <time>2013-04-07T10:45:54Z</time>
      </trkpt>
      <trkpt lat="43.52937" lon="5.49307">
        <ele>331</ele>
        <time>2013-04-07T10:46:04Z</time>
      </trkpt>
      <trkpt lat="43.52946" lon="5.49317">
        <ele>331</ele>
        <time>2013-04-07T10:46:15Z</time>
      </trkpt>
      <trkpt lat="43.52953" lon="5.49327">
        <ele>331</ele>
        <time>2013-04-07T10:46:25Z</time>
      </trkpt>
      <trkpt lat="43.52961" lon="5.49337">
        <ele>331</ele>
        <time>2013-04-07T10:46:35Z</time>
      </trkpt>
      <trkpt lat="43.52971" lon="5.49346">
        <ele>331</ele>
        <time>2013-04-07T10:46:45Z</time>
      </trkpt>
      <trkpt lat="43.52979" lon="5.49356">
        <ele>331</ele>
        <time>2013-04-07T10:46:55Z</time>
      </trkpt>
      <trkpt lat="43.52984" lon="5.49368">
        <ele>331</ele>
        <time>2013-04-07T10:47:04Z</time>
      </trkpt>
      <trkpt lat="43.52993" lon="5.49378">
        <ele>331</ele>
        <time>2013-04-07T10:47:14Z</time>
      </trkpt>
      <trkpt lat="43.53003" lon="5.49391">
        <ele>331</ele>
        <time>2013-04-07T10:47:25Z</time>
      </trkpt>
      <trkpt lat="43.53008" lon="5.49402">
        <ele>331</ele>
        <time>2013-04-07T10:47:34Z</time>
      </trkpt>
      <trkpt lat="43.53013" lon="5.49417">
        <ele>332</ele>
        <time>2013-04-07T10:47:45Z</time>
      </trkpt>
      <trkpt lat="43.53017" lon="5.49431">
        <ele>332</ele>
        <time>2013-04-07T10:47:55Z</time>
      </trkpt>
      <trkpt lat="43.53021" lon="5.49445">
        <ele>332</ele>
        <time>2013-04-07T10:48:04Z</time>
      </trkpt>
      <trkpt lat="43.53028" lon="5.49458">
        <ele>332</ele>
        <time>2013-04-07T10:48:15Z</time>
      </trkpt>
      <trkpt lat="43.53032" lon="5.49471">
        <ele>333</ele>
        <time>2013-04-07T10:48:25Z</time>
      </trkpt>
      <trkpt lat="43.53037" lon="5.49489">
        <ele>335</ele>
        <time>2013-04-07T10:48:35Z</time>
      </trkpt>
      <trkpt lat="43.53041" lon="5.49506">
        <ele>335</ele>
        <time>2013-04-07T10:48:45Z</time>
      </trkpt>
      <trkpt lat="43.53041" lon="5.49522">
        <ele>335</ele>
        <time>2013-04-07T10:48:54Z</time>
      </trkpt>
      <trkpt lat="43.53044" lon="5.49539">
        <ele>335</ele>
        <time>2013-04-07T10:49:04Z</time>
      </trkpt>
      <trkpt lat="43.53046" lon="5.49556">
        <ele>335</ele>
        <time>2013-04-07T10:49:14Z</time>
      </trkpt>
      <trkpt lat="43.53049" lon="5.49572">
        <ele>334</ele>
        <time>2013-04-07T10:49:23Z</time>
      </trkpt>
      <trkpt lat="43.53053" lon="5.49589">
        <ele>334</ele>
        <time>2013-04-07T10:49:33Z</time>
      </trkpt>
      <trkpt lat="43.53056" lon="5.49604">
        <ele>334</ele>
        <time>2013-04-07T10:49:42Z</time>
      </trkpt>
      <trkpt lat="43.53059" lon="5.49618">
        <ele>334</ele>
        <time>2013-04-07T10:49:51Z</time>
      </trkpt>
      <trkpt lat="43.53061" lon="5.49632">
        <ele>334</ele>
        <time>2013-04-07T10:50:01Z</time>
      </trkpt>
      <trkpt lat="43.53067" lon="5.49646">
        <ele>334</ele>
        <time>2013-04-07T10:50:11Z</time>
      </trkpt>
      <trkpt lat="43.53072" lon="5.4966">
        <ele>334</ele>
        <time>2013-04-07T10:50:20Z</time>
      </trkpt>
      <trkpt lat="43.53075" lon="5.49674">
        <ele>338</ele>
        <time>2013-04-07T10:50:29Z</time>
      </trkpt>
      <trkpt lat="43.53076" lon="5.49692">
        <ele>339</ele>
        <time>2013-04-07T10:50:39Z</time>
      </trkpt>
      <trkpt lat="43.53069" lon="5.49711">
        <ele>341</ele>
        <time>2013-04-07T10:50:49Z</time>
      </trkpt>
      <trkpt lat="43.53063" lon="5.49726">
        <ele>341</ele>
        <time>2013-04-07T10:50:59Z</time>
      </trkpt>
      <trkpt lat="43.53062" lon="5.49741">
        <ele>341</ele>
        <time>2013-04-07T10:51:09Z</time>
      </trkpt>
      <trkpt lat="43.5306" lon="5.49758">
        <ele>341</ele>
        <time>2013-04-07T10:51:20Z</time>
      </trkpt>
      <trkpt lat="43.53066" lon="5.49768">
        <ele>341</ele>
        <time>2013-04-07T10:51:29Z</time>
      </trkpt>
      <trkpt lat="43.53066" lon="5.49785">
        <ele>341</ele>
        <time>2013-04-07T10:51:39Z</time>
      </trkpt>
      <trkpt lat="43.53065" lon="5.498">
        <ele>341</ele>
        <time>2013-04-07T10:51:49Z</time>
      </trkpt>
      <trkpt lat="43.53065" lon="5.49817">
        <ele>341</ele>
        <time>2013-04-07T10:51:59Z</time>
      </trkpt>
      <trkpt lat="43.53067" lon="5.49834">
        <ele>340</ele>
        <time>2013-04-07T10:52:09Z</time>
      </trkpt>
      <trkpt lat="43.53068" lon="5.4985">
        <ele>338</ele>
        <time>2013-04-07T10:52:19Z</time>
      </trkpt>
      <trkpt lat="43.53068" lon="5.49868">
        <ele>337</ele>
        <time>2013-04-07T10:52:29Z</time>
      </trkpt>
      <trkpt lat="43.53067" lon="5.49882">
        <ele>334</ele>
        <time>2013-04-07T10:52:39Z</time>
      </trkpt>
      <trkpt lat="43.53064" lon="5.49898">
        <ele>332</ele>
        <time>2013-04-07T10:52:49Z</time>
      </trkpt>
      <trkpt lat="43.53062" lon="5.49917">
        <ele>331</ele>
        <time>2013-04-07T10:52:59Z</time>
      </trkpt>
      <trkpt lat="43.53058" lon="5.49934">
        <ele>331</ele>
        <time>2013-04-07T10:53:09Z</time>
      </trkpt>
      <trkpt lat="43.53062" lon="5.49952">
        <ele>335</ele>
        <time>2013-04-07T10:53:20Z</time>
      </trkpt>
      <trkpt lat="43.53065" lon="5.49965">
        <ele>337</ele>
        <time>2013-04-07T10:53:29Z</time>
      </trkpt>
      <trkpt lat="43.53074" lon="5.49978">
        <ele>338</ele>
        <time>2013-04-07T10:53:40Z</time>
      </trkpt>
      <trkpt lat="43.53081" lon="5.4999">
        <ele>338</ele>
        <time>2013-04-07T10:53:49Z</time>
      </trkpt>
      <trkpt lat="43.53088" lon="5.50005">
        <ele>338</ele>
        <time>2013-04-07T10:53:59Z</time>
      </trkpt>
      <trkpt lat="43.53097" lon="5.50018">
        <ele>336</ele>
        <time>2013-04-07T10:54:10Z</time>
      </trkpt>
      <trkpt lat="43.53102" lon="5.50031">
        <ele>336</ele>
        <time>2013-04-07T10:54:19Z</time>
      </trkpt>
      <trkpt lat="43.5311" lon="5.50046">
        <ele>336</ele>
        <time>2013-04-07T10:54:29Z</time>
      </trkpt>
      <trkpt lat="43.53118" lon="5.50056">
        <ele>336</ele>
        <time>2013-04-07T10:54:40Z</time>
      </trkpt>
      <trkpt lat="43.53125" lon="5.50072">
        <ele>336</ele>
        <time>2013-04-07T10:54:50Z</time>
      </trkpt>
      <trkpt lat="43.53133" lon="5.50084">
        <ele>336</ele>
        <time>2013-04-07T10:54:59Z</time>
      </trkpt>
      <trkpt lat="43.53142" lon="5.50099">
        <ele>336</ele>
        <time>2013-04-07T10:55:10Z</time>
      </trkpt>
      <trkpt lat="43.53149" lon="5.50111">
        <ele>336</ele>
        <time>2013-04-07T10:55:20Z</time>
      </trkpt>
      <trkpt lat="43.53148" lon="5.50127">
        <ele>337</ele>
        <time>2013-04-07T10:55:29Z</time>
      </trkpt>
      <trkpt lat="43.53142" lon="5.50141">
        <ele>339</ele>
        <time>2013-04-07T10:55:39Z</time>
      </trkpt>
      <trkpt lat="43.53145" lon="5.50151">
        <ele>340</ele>
        <time>2013-04-07T10:55:49Z</time>
      </trkpt>
      <trkpt lat="43.53144" lon="5.50159">
        <ele>340</ele>
        <time>2013-04-07T10:56:00Z</time>
      </trkpt>
      <trkpt lat="43.53146" lon="5.50168">
        <ele>340</ele>
        <time>2013-04-07T10:56:10Z</time>
      </trkpt>
      <trkpt lat="43.53151" lon="5.5018">
        <ele>340</ele>
        <time>2013-04-07T10:56:19Z</time>
      </trkpt>
      <trkpt lat="43.53152" lon="5.50194">
        <ele>340</ele>
        <time>2013-04-07T10:56:29Z</time>
      </trkpt>
      <trkpt lat="43.53151" lon="5.50206">
        <ele>341</ele>
        <time>2013-04-07T10:56:39Z</time>
      </trkpt>
      <trkpt lat="43.53152" lon="5.50223">
        <ele>341</ele>
        <time>2013-04-07T10:56:49Z</time>
      </trkpt>
      <trkpt lat="43.53152" lon="5.50237">
        <ele>341</ele>
        <time>2013-04-07T10:57:00Z</time>
      </trkpt>
      <trkpt lat="43.5315" lon="5.50247">
        <ele>340</ele>
        <time>2013-04-07T10:57:09Z</time>
      </trkpt>
      <trkpt lat="43.53143" lon="5.50252">
        <ele>340</ele>
        <time>2013-04-07T10:57:20Z</time>
      </trkpt>
      <trkpt lat="43.53133" lon="5.50257">
        <ele>337</ele>
        <time>2013-04-07T10:57:30Z</time>
      </trkpt>
      <trkpt lat="43.53131" lon="5.50268">
        <ele>336</ele>
        <time>2013-04-07T10:57:40Z</time>
      </trkpt>
      <trkpt lat="43.53131" lon="5.50272">
        <ele>336</ele>
        <time>2013-04-07T10:57:49Z</time>
      </trkpt>
      <trkpt lat="43.5313" lon="5.50286">
        <ele>336</ele>
        <time>2013-04-07T10:57:59Z</time>
      </trkpt>
      <trkpt lat="43.53122" lon="5.50287">
        <ele>336</ele>
        <time>2013-04-07T10:58:09Z</time>
      </trkpt>
      <trkpt lat="43.5312" lon="5.50288">
        <ele>335</ele>
        <time>2013-04-07T10:58:20Z</time>
      </trkpt>
      <trkpt lat="43.53127" lon="5.50291">
        <ele>335</ele>
        <time>2013-04-07T10:58:29Z</time>
      </trkpt>
      <trkpt lat="43.53137" lon="5.50292">
        <ele>335</ele>
        <time>2013-04-07T10:58:40Z</time>
      </trkpt>
      <trkpt lat="43.53143" lon="5.50303">
        <ele>335</ele>
        <time>2013-04-07T10:58:49Z</time>
      </trkpt>
      <trkpt lat="43.53151" lon="5.50309">
        <ele>338</ele>
        <time>2013-04-07T10:58:59Z</time>
      </trkpt>
      <trkpt lat="43.53161" lon="5.5031">
        <ele>337</ele>
        <time>2013-04-07T10:59:09Z</time>
      </trkpt>
      <trkpt lat="43.53172" lon="5.5031">
        <ele>335</ele>
        <time>2013-04-07T10:59:20Z</time>
      </trkpt>
      <trkpt lat="43.53176" lon="5.50315">
        <ele>335</ele>
        <time>2013-04-07T10:59:30Z</time>
      </trkpt>
      <trkpt lat="43.53188" lon="5.50321">
        <ele>335</ele>
        <time>2013-04-07T10:59:39Z</time>
      </trkpt>
      <trkpt lat="43.53199" lon="5.50332">
        <ele>335</ele>
        <time>2013-04-07T10:59:50Z</time>
      </trkpt>
      <trkpt lat="43.53207" lon="5.50341">
        <ele>335</ele>
        <time>2013-04-07T11:00:00Z</time>
      </trkpt>
      <trkpt lat="43.53215" lon="5.50353">
        <ele>335</ele>
        <time>2013-04-07T11:00:09Z</time>
      </trkpt>
      <trkpt lat="43.5322" lon="5.50366">
        <ele>335</ele>
        <time>2013-04-07T11:00:19Z</time>
      </trkpt>
      <trkpt lat="43.53227" lon="5.50378">
        <ele>334</ele>
        <time>2013-04-07T11:00:29Z</time>
      </trkpt>
      <trkpt lat="43.53236" lon="5.50395">
        <ele>334</ele>
        <time>2013-04-07T11:00:40Z</time>
      </trkpt>
      <trkpt lat="43.5324" lon="5.50407">
        <ele>332</ele>
        <time>2013-04-07T11:00:49Z</time>
      </trkpt>
      <trkpt lat="43.53244" lon="5.50421">
        <ele>329</ele>
        <time>2013-04-07T11:00:59Z</time>
      </trkpt>
      <trkpt lat="43.53244" lon="5.50435">
        <ele>326</ele>
        <time>2013-04-07T11:01:10Z</time>
      </trkpt>
      <trkpt lat="43.53241" lon="5.50448">
        <ele>324</ele>
        <time>2013-04-07T11:01:19Z</time>
      </trkpt>
      <trkpt lat="43.53239" lon="5.50465">
        <ele>323</ele>
        <time>2013-04-07T11:01:30Z</time>
      </trkpt>
      <trkpt lat="43.53239" lon="5.50481">
        <ele>323</ele>
        <time>2013-04-07T11:01:39Z</time>
      </trkpt>
      <trkpt lat="43.53243" lon="5.50496">
        <ele>323</ele>
        <time>2013-04-07T11:01:49Z</time>
      </trkpt>
      <trkpt lat="43.53242" lon="5.50512">
        <ele>323</ele>
        <time>2013-04-07T11:01:59Z</time>
      </trkpt>
      <trkpt lat="43.53242" lon="5.50526">
        <ele>323</ele>
        <time>2013-04-07T11:02:09Z</time>
      </trkpt>
      <trkpt lat="43.53242" lon="5.50537">
        <ele>323</ele>
        <time>2013-04-07T11:02:19Z</time>
      </trkpt>
      <trkpt lat="43.5324" lon="5.50551">
        <ele>321</ele>
        <time>2013-04-07T11:02:29Z</time>
      </trkpt>
      <trkpt lat="43.5323" lon="5.50561">
        <ele>321</ele>
        <time>2013-04-07T11:02:40Z</time>
      </trkpt>
      <trkpt lat="43.53224" lon="5.50575">
        <ele>321</ele>
        <time>2013-04-07T11:02:49Z</time>
      </trkpt>
      <trkpt lat="43.53221" lon="5.50591">
        <ele>321</ele>
        <time>2013-04-07T11:02:59Z</time>
      </trkpt>
      <trkpt lat="43.53221" lon="5.5061">
        <ele>321</ele>
        <time>2013-04-07T11:03:09Z</time>
      </trkpt>
      <trkpt lat="43.53216" lon="5.50623">
        <ele>321</ele>
        <time>2013-04-07T11:03:19Z</time>
      </trkpt>
      <trkpt lat="43.53215" lon="5.50634">
        <ele>320</ele>
        <time>2013-04-07T11:03:29Z</time>
      </trkpt>
      <trkpt lat="43.53207" lon="5.50637">
        <ele>317</ele>
        <time>2013-04-07T11:03:39Z</time>
      </trkpt>
      <trkpt lat="43.53207" lon="5.50644">
        <ele>316</ele>
        <time>2013-04-07T11:03:50Z</time>
      </trkpt>
      <trkpt lat="43.53208" lon="5.50651">
        <ele>316</ele>
        <time>2013-04-07T11:03:59Z</time>
      </trkpt>
      <trkpt lat="43.53207" lon="5.50658">
        <ele>316</ele>
        <time>2013-04-07T11:04:09Z</time>
      </trkpt>
      <trkpt lat="43.53209" lon="5.50658">
        <ele>314</ele>
        <time>2013-04-07T11:04:19Z</time>
      </trkpt>
      <trkpt lat="43.5321" lon="5.50656">
        <ele>313</ele>
        <time>2013-04-07T11:04:34Z</time>
      </trkpt>
      <trkpt lat="43.5321" lon="5.50656">
        <ele>313</ele>
        <time>2013-04-07T11:04:51Z</time>
      </trkpt>
      <trkpt lat="43.5321" lon="5.50658">
        <ele>313</ele>
        <time>2013-04-07T11:05:02Z</time>
      </trkpt>
      <trkpt lat="43.5321" lon="5.50656">
        <ele>313</ele>
        <time>2013-04-07T11:05:27Z</time>
      </trkpt>
      <trkpt lat="43.53206" lon="5.50656">
        <ele>313</ele>
        <time>2013-04-07T11:05:39Z</time>
      </trkpt>
      <trkpt lat="43.53199" lon="5.50651">
        <ele>313</ele>
        <time>2013-04-07T11:05:50Z</time>
      </trkpt>
      <trkpt lat="43.53192" lon="5.50646">
        <ele>313</ele>
        <time>2013-04-07T11:06:00Z</time>
      </trkpt>
      <trkpt lat="43.53183" lon="5.50646">
        <ele>313</ele>
        <time>2013-04-07T11:06:09Z</time>
      </trkpt>
      <trkpt lat="43.53173" lon="5.50643">
        <ele>313</ele>
        <time>2013-04-07T11:06:20Z</time>
      </trkpt>
      <trkpt lat="43.53168" lon="5.50637">
        <ele>313</ele>
        <time>2013-04-07T11:06:30Z</time>
      </trkpt>
      <trkpt lat="43.53162" lon="5.50635">
        <ele>313</ele>
        <time>2013-04-07T11:06:40Z</time>
      </trkpt>
      <trkpt lat="43.53157" lon="5.50628">
        <ele>313</ele>
        <time>2013-04-07T11:06:50Z</time>
      </trkpt>
      <trkpt lat="43.53149" lon="5.50622">
        <ele>313</ele>
        <time>2013-04-07T11:06:59Z</time>
      </trkpt>
      <trkpt lat="43.53139" lon="5.50615">
        <ele>313</ele>
        <time>2013-04-07T11:07:10Z</time>
      </trkpt>
      <trkpt lat="43.53136" lon="5.50614">
        <ele>313</ele>
        <time>2013-04-07T11:07:21Z</time>
      </trkpt>
      <trkpt lat="43.5313" lon="5.50608">
        <ele>313</ele>
        <time>2013-04-07T11:07:30Z</time>
      </trkpt>
      <trkpt lat="43.53125" lon="5.50604">
        <ele>313</ele>
        <time>2013-04-07T11:07:41Z</time>
      </trkpt>
      <trkpt lat="43.53122" lon="5.50603">
        <ele>313</ele>
        <time>2013-04-07T11:07:50Z</time>
      </trkpt>
      <trkpt lat="43.53124" lon="5.50597">
        <ele>312</ele>
        <time>2013-04-07T11:08:01Z</time>
      </trkpt>
      <trkpt lat="43.53118" lon="5.50596">
        <ele>310</ele>
        <time>2013-04-07T11:08:10Z</time>
      </trkpt>
      <trkpt lat="43.53108" lon="5.50594">
        <ele>310</ele>
        <time>2013-04-07T11:08:20Z</time>
      </trkpt>
      <trkpt lat="43.531" lon="5.5059">
        <ele>311</ele>
        <time>2013-04-07T11:08:29Z</time>
      </trkpt>
      <trkpt lat="43.53092" lon="5.50591">
        <ele>311</ele>
        <time>2013-04-07T11:08:40Z</time>
      </trkpt>
      <trkpt lat="43.53083" lon="5.50591">
        <ele>311</ele>
        <time>2013-04-07T11:08:49Z</time>
      </trkpt>
      <trkpt lat="43.53069" lon="5.5059">
        <ele>311</ele>
        <time>2013-04-07T11:09:00Z</time>
      </trkpt>
      <trkpt lat="43.53064" lon="5.50588">
        <ele>311</ele>
        <time>2013-04-07T11:09:11Z</time>
      </trkpt>
      <trkpt lat="43.53058" lon="5.50588">
        <ele>311</ele>
        <time>2013-04-07T11:09:20Z</time>
      </trkpt>
      <trkpt lat="43.53059" lon="5.50595">
        <ele>308</ele>
        <time>2013-04-07T11:09:30Z</time>
      </trkpt>
      <trkpt lat="43.53067" lon="5.50598">
        <ele>304</ele>
        <time>2013-04-07T11:09:40Z</time>
      </trkpt>
      <trkpt lat="43.53064" lon="5.50605">
        <ele>299</ele>
        <time>2013-04-07T11:09:49Z</time>
      </trkpt>
      <trkpt lat="43.53054" lon="5.50606">
        <ele>298</ele>
        <time>2013-04-07T11:10:00Z</time>
      </trkpt>
      <trkpt lat="43.53044" lon="5.50605">
        <ele>298</ele>
        <time>2013-04-07T11:10:09Z</time>
      </trkpt>
      <trkpt lat="43.53035" lon="5.50605">
        <ele>297</ele>
        <time>2013-04-07T11:10:19Z</time>
      </trkpt>
      <trkpt lat="43.53024" lon="5.50604">
        <ele>297</ele>
        <time>2013-04-07T11:10:30Z</time>
      </trkpt>
      <trkpt lat="43.53013" lon="5.50601">
        <ele>297</ele>
        <time>2013-04-07T11:10:39Z</time>
      </trkpt>
      <trkpt lat="43.53001" lon="5.50599">
        <ele>295</ele>
        <time>2013-04-07T11:10:49Z</time>
      </trkpt>
      <trkpt lat="43.52991" lon="5.50597">
        <ele>293</ele>
        <time>2013-04-07T11:10:59Z</time>
      </trkpt>
      <trkpt lat="43.5298" lon="5.50599">
        <ele>291</ele>
        <time>2013-04-07T11:11:09Z</time>
      </trkpt>
      <trkpt lat="43.5297" lon="5.506">
        <ele>287</ele>
        <time>2013-04-07T11:11:19Z</time>
      </trkpt>
      <trkpt lat="43.52959" lon="5.50601">
        <ele>285</ele>
        <time>2013-04-07T11:11:29Z</time>
      </trkpt>
      <trkpt lat="43.52947" lon="5.50605">
        <ele>283</ele>
        <time>2013-04-07T11:11:39Z</time>
      </trkpt>
      <trkpt lat="43.52935" lon="5.50611">
        <ele>283</ele>
        <time>2013-04-07T11:11:50Z</time>
      </trkpt>
      <trkpt lat="43.52927" lon="5.50616">
        <ele>282</ele>
        <time>2013-04-07T11:12:00Z</time>
      </trkpt>
      <trkpt lat="43.52919" lon="5.50624">
        <ele>282</ele>
        <time>2013-04-07T11:12:09Z</time>
      </trkpt>
      <trkpt lat="43.52908" lon="5.50634">
        <ele>281</ele>
        <time>2013-04-07T11:12:20Z</time>
      </trkpt>
      <trkpt lat="43.52898" lon="5.50641">
        <ele>281</ele>
        <time>2013-04-07T11:12:30Z</time>
      </trkpt>
      <trkpt lat="43.5289" lon="5.50648">
        <ele>280</ele>
        <time>2013-04-07T11:12:39Z</time>
      </trkpt>
      <trkpt lat="43.52884" lon="5.50652">
        <ele>279</ele>
        <time>2013-04-07T11:12:50Z</time>
      </trkpt>
      <trkpt lat="43.52879" lon="5.50662">
        <ele>278</ele>
        <time>2013-04-07T11:12:59Z</time>
      </trkpt>
      <trkpt lat="43.52884" lon="5.50675">
        <ele>277</ele>
        <time>2013-04-07T11:13:10Z</time>
      </trkpt>
      <trkpt lat="43.52894" lon="5.50685">
        <ele>277</ele>
        <time>2013-04-07T11:13:20Z</time>
      </trkpt>
      <trkpt lat="43.52902" lon="5.50696">
        <ele>277</ele>
        <time>2013-04-07T11:13:29Z</time>
      </trkpt>
      <trkpt lat="43.52911" lon="5.50706">
        <ele>276</ele>
        <time>2013-04-07T11:13:39Z</time>
      </trkpt>
      <trkpt lat="43.52921" lon="5.50716">
        <ele>276</ele>
        <time>2013-04-07T11:13:49Z</time>
      </trkpt>
      <trkpt lat="43.52931" lon="5.50724">
        <ele>275</ele>
        <time>2013-04-07T11:14:00Z</time>
      </trkpt>
      <trkpt lat="43.5294" lon="5.50727">
        <ele>273</ele>
        <time>2013-04-07T11:14:10Z</time>
      </trkpt>
      <trkpt lat="43.52949" lon="5.50726">
        <ele>268</ele>
        <time>2013-04-07T11:14:20Z</time>
      </trkpt>
      <trkpt lat="43.52959" lon="5.5072">
        <ele>267</ele>
        <time>2013-04-07T11:14:29Z</time>
      </trkpt>
      <trkpt lat="43.52971" lon="5.50719">
        <ele>266</ele>
        <time>2013-04-07T11:14:40Z</time>
      </trkpt>
      <trkpt lat="43.52982" lon="5.50726">
        <ele>266</ele>
        <time>2013-04-07T11:14:49Z</time>
      </trkpt>
      <trkpt lat="43.52992" lon="5.50734">
        <ele>266</ele>
        <time>2013-04-07T11:14:59Z</time>
      </trkpt>
      <trkpt lat="43.53003" lon="5.50739">
        <ele>266</ele>
        <time>2013-04-07T11:15:09Z</time>
      </trkpt>
      <trkpt lat="43.53015" lon="5.50742">
        <ele>265</ele>
        <time>2013-04-07T11:15:19Z</time>
      </trkpt>
      <trkpt lat="43.53026" lon="5.50743">
        <ele>265</ele>
        <time>2013-04-07T11:15:29Z</time>
      </trkpt>
      <trkpt lat="43.53038" lon="5.50744">
        <ele>264</ele>
        <time>2013-04-07T11:15:39Z</time>
      </trkpt>
      <trkpt lat="43.53047" lon="5.50746">
        <ele>262</ele>
        <time>2013-04-07T11:15:49Z</time>
      </trkpt>
      <trkpt lat="43.53057" lon="5.50752">
        <ele>261</ele>
        <time>2013-04-07T11:16:00Z</time>
      </trkpt>
      <trkpt lat="43.53064" lon="5.50762">
        <ele>259</ele>
        <time>2013-04-07T11:16:10Z</time>
      </trkpt>
      <trkpt lat="43.53073" lon="5.50771">
        <ele>256</ele>
        <time>2013-04-07T11:16:20Z</time>
      </trkpt>
      <trkpt lat="43.53079" lon="5.50782">
        <ele>253</ele>
        <time>2013-04-07T11:16:29Z</time>
      </trkpt>
      <trkpt lat="43.53087" lon="5.50793">
        <ele>251</ele>
        <time>2013-04-07T11:16:39Z</time>
      </trkpt>
      <trkpt lat="43.53096" lon="5.50804">
        <ele>249</ele>
        <time>2013-04-07T11:16:50Z</time>
      </trkpt>
      <trkpt lat="43.53104" lon="5.50812">
        <ele>247</ele>
        <time>2013-04-07T11:16:59Z</time>
      </trkpt>
      <trkpt lat="43.53113" lon="5.50821">
        <ele>245</ele>
        <time>2013-04-07T11:17:09Z</time>
      </trkpt>
      <trkpt lat="43.53123" lon="5.50829">
        <ele>242</ele>
        <time>2013-04-07T11:17:20Z</time>
      </trkpt>
      <trkpt lat="43.53132" lon="5.50834">
        <ele>240</ele>
        <time>2013-04-07T11:17:29Z</time>
      </trkpt>
      <trkpt lat="43.53141" lon="5.50841">
        <ele>239</ele>
        <time>2013-04-07T11:17:39Z</time>
      </trkpt>
      <trkpt lat="43.5315" lon="5.50849">
        <ele>237</ele>
        <time>2013-04-07T11:17:50Z</time>
      </trkpt>
      <trkpt lat="43.53158" lon="5.50856">
        <ele>235</ele>
        <time>2013-04-07T11:17:59Z</time>
      </trkpt>
      <trkpt lat="43.5317" lon="5.50861">
        <ele>234</ele>
        <time>2013-04-07T11:18:09Z</time>
      </trkpt>
      <trkpt lat="43.5318" lon="5.50866">
        <ele>232</ele>
        <time>2013-04-07T11:18:20Z</time>
      </trkpt>
      <trkpt lat="43.53189" lon="5.50865">
        <ele>229</ele>
        <time>2013-04-07T11:18:29Z</time>
      </trkpt>
      <trkpt lat="43.53199" lon="5.50862">
        <ele>229</ele>
        <time>2013-04-07T11:18:39Z</time>
      </trkpt>
      <trkpt lat="43.53208" lon="5.50862">
        <ele>227</ele>
        <time>2013-04-07T11:18:49Z</time>
      </trkpt>
      <trkpt lat="43.53218" lon="5.50865">
        <ele>224</ele>
        <time>2013-04-07T11:18:59Z</time>
      </trkpt>
      <trkpt lat="43.53225" lon="5.50863">
        <ele>223</ele>
        <time>2013-04-07T11:19:09Z</time>
      </trkpt>
      <trkpt lat="43.53236" lon="5.50861">
        <ele>220</ele>
        <time>2013-04-07T11:19:19Z</time>
      </trkpt>
      <trkpt lat="43.53244" lon="5.5086">
        <ele>218</ele>
        <time>2013-04-07T11:19:29Z</time>
      </trkpt>
      <trkpt lat="43.53253" lon="5.50855">
        <ele>218</ele>
        <time>2013-04-07T11:19:40Z</time>
      </trkpt>
      <trkpt lat="43.53261" lon="5.50852">
        <ele>215</ele>
        <time>2013-04-07T11:19:49Z</time>
      </trkpt>
      <trkpt lat="43.53272" lon="5.50861">
        <ele>211</ele>
        <time>2013-04-07T11:20:00Z</time>
      </trkpt>
      <trkpt lat="43.53283" lon="5.50871">
        <ele>211</ele>
        <time>2013-04-07T11:20:09Z</time>
      </trkpt>
      <trkpt lat="43.53291" lon="5.50881">
        <ele>211</ele>
        <time>2013-04-07T11:20:19Z</time>
      </trkpt>
      <trkpt lat="43.53297" lon="5.50894">
        <ele>212</ele>
        <time>2013-04-07T11:20:29Z</time>
      </trkpt>
      <trkpt lat="43.53303" lon="5.50909">
        <ele>214</ele>
        <time>2013-04-07T11:20:40Z</time>
      </trkpt>
      <trkpt lat="43.53308" lon="5.5092">
        <ele>214</ele>
        <time>2013-04-07T11:20:49Z</time>
      </trkpt>
      <trkpt lat="43.53309" lon="5.50933">
        <ele>215</ele>
        <time>2013-04-07T11:20:59Z</time>
      </trkpt>
      <trkpt lat="43.53312" lon="5.50949">
        <ele>216</ele>
        <time>2013-04-07T11:21:09Z</time>
      </trkpt>
      <trkpt lat="43.53315" lon="5.50964">
        <ele>216</ele>
        <time>2013-04-07T11:21:19Z</time>
      </trkpt>
      <trkpt lat="43.53316" lon="5.50979">
        <ele>218</ele>
        <time>2013-04-07T11:21:29Z</time>
      </trkpt>
      <trkpt lat="43.5332" lon="5.50992">
        <ele>218</ele>
        <time>2013-04-07T11:21:39Z</time>
      </trkpt>
      <trkpt lat="43.53321" lon="5.51007">
        <ele>220</ele>
        <time>2013-04-07T11:21:49Z</time>
      </trkpt>
      <trkpt lat="43.53324" lon="5.51018">
        <ele>223</ele>
        <time>2013-04-07T11:21:59Z</time>
      </trkpt>
      <trkpt lat="43.53329" lon="5.5103">
        <ele>224</ele>
        <time>2013-04-07T11:22:10Z</time>
      </trkpt>
      <trkpt lat="43.53332" lon="5.51043">
        <ele>226</ele>
        <time>2013-04-07T11:22:19Z</time>
      </trkpt>
      <trkpt lat="43.53329" lon="5.51058">
        <ele>226</ele>
        <time>2013-04-07T11:22:29Z</time>
      </trkpt>
      <trkpt lat="43.53323" lon="5.51074">
        <ele>229</ele>
        <time>2013-04-07T11:22:40Z</time>
      </trkpt>
      <trkpt lat="43.53315" lon="5.51081">
        <ele>231</ele>
        <time>2013-04-07T11:22:50Z</time>
      </trkpt>
      <trkpt lat="43.53308" lon="5.5109">
        <ele>232</ele>
        <time>2013-04-07T11:22:59Z</time>
      </trkpt>
      <trkpt lat="43.53308" lon="5.51104">
        <ele>234</ele>
        <time>2013-04-07T11:23:09Z</time>
      </trkpt>
      <trkpt lat="43.5331" lon="5.51119">
        <ele>234</ele>
        <time>2013-04-07T11:23:20Z</time>
      </trkpt>
      <trkpt lat="43.5331" lon="5.5113">
        <ele>234</ele>
        <time>2013-04-07T11:23:29Z</time>
      </trkpt>
      <trkpt lat="43.53312" lon="5.51146">
        <ele>234</ele>
        <time>2013-04-07T11:23:39Z</time>
      </trkpt>
      <trkpt lat="43.5331" lon="5.5116">
        <ele>234</ele>
        <time>2013-04-07T11:23:48Z</time>
      </trkpt>
      <trkpt lat="43.53307" lon="5.51171">
        <ele>234</ele>
        <time>2013-04-07T11:23:57Z</time>
      </trkpt>
      <trkpt lat="43.53299" lon="5.51179">
        <ele>234</ele>
        <time>2013-04-07T11:24:07Z</time>
      </trkpt>
      <trkpt lat="43.53288" lon="5.51179">
        <ele>235</ele>
        <time>2013-04-07T11:24:17Z</time>
      </trkpt>
      <trkpt lat="43.53284" lon="5.5118">
        <ele>237</ele>
        <time>2013-04-07T11:24:26Z</time>
      </trkpt>
      <trkpt lat="43.53283" lon="5.51182">
        <ele>238</ele>
        <time>2013-04-07T11:24:49Z</time>
      </trkpt>
      <trkpt lat="43.53285" lon="5.51181">
        <ele>240</ele>
        <time>2013-04-07T11:24:59Z</time>
      </trkpt>
      <trkpt lat="43.53285" lon="5.51181">
        <ele>243</ele>
        <time>2013-04-07T11:25:15Z</time>
      </trkpt>
      <trkpt lat="43.53284" lon="5.51181">
        <ele>243</ele>
        <time>2013-04-07T11:25:40Z</time>
      </trkpt>
      <trkpt lat="43.5328" lon="5.5118">
        <ele>240</ele>
        <time>2013-04-07T11:25:51Z</time>
      </trkpt>
      <trkpt lat="43.53277" lon="5.51177">
        <ele>236</ele>
        <time>2013-04-07T11:26:00Z</time>
      </trkpt>
      <trkpt lat="43.53276" lon="5.51171">
        <ele>233</ele>
        <time>2013-04-07T11:26:17Z</time>
      </trkpt>
      <trkpt lat="43.5327" lon="5.51163">
        <ele>233</ele>
        <time>2013-04-07T11:26:26Z</time>
      </trkpt>
      <trkpt lat="43.53265" lon="5.51158">
        <ele>233</ele>
        <time>2013-04-07T11:26:35Z</time>
      </trkpt>
      <trkpt lat="43.53258" lon="5.51155">
        <ele>233</ele>
        <time>2013-04-07T11:26:44Z</time>
      </trkpt>
      <trkpt lat="43.53254" lon="5.51153">
        <ele>233</ele>
        <time>2013-04-07T11:27:09Z</time>
      </trkpt>
      <trkpt lat="43.53254" lon="5.51151">
        <ele>236</ele>
        <time>2013-04-07T11:27:47Z</time>
      </trkpt>
      <trkpt lat="43.53257" lon="5.5114">
        <ele>236</ele>
        <time>2013-04-07T11:27:56Z</time>
      </trkpt>
      <trkpt lat="43.53251" lon="5.51137">
        <ele>236</ele>
        <time>2013-04-07T11:28:05Z</time>
      </trkpt>
      <trkpt lat="43.53251" lon="5.51138">
        <ele>236</ele>
        <time>2013-04-07T11:28:20Z</time>
      </trkpt>
      <trkpt lat="43.53244" lon="5.51138">
        <ele>236</ele>
        <time>2013-04-07T11:28:29Z</time>
      </trkpt>
      <trkpt lat="43.53238" lon="5.51141">
        <ele>236</ele>
        <time>2013-04-07T11:28:39Z</time>
      </trkpt>
      <trkpt lat="43.5323" lon="5.5114">
        <ele>238</ele>
        <time>2013-04-07T11:29:04Z</time>
      </trkpt>
      <trkpt lat="43.53221" lon="5.51138">
        <ele>238</ele>
        <time>2013-04-07T11:29:14Z</time>
      </trkpt>
      <trkpt lat="43.53214" lon="5.51133">
        <ele>238</ele>
        <time>2013-04-07T11:29:23Z</time>
      </trkpt>
      <trkpt lat="43.53207" lon="5.51126">
        <ele>238</ele>
        <time>2013-04-07T11:29:33Z</time>
      </trkpt>
      <trkpt lat="43.532" lon="5.51121">
        <ele>238</ele>
        <time>2013-04-07T11:29:42Z</time>
      </trkpt>
      <trkpt lat="43.53196" lon="5.51116">
        <ele>238</ele>
        <time>2013-04-07T11:29:52Z</time>
      </trkpt>
      <trkpt lat="43.53197" lon="5.51106">
        <ele>236</ele>
        <time>2013-04-07T11:30:02Z</time>
      </trkpt>
      <trkpt lat="43.53196" lon="5.51099">
        <ele>234</ele>
        <time>2013-04-07T11:30:12Z</time>
      </trkpt>
      <trkpt lat="43.53193" lon="5.51089">
        <ele>234</ele>
        <time>2013-04-07T11:30:22Z</time>
      </trkpt>
      <trkpt lat="43.53191" lon="5.51079">
        <ele>234</ele>
        <time>2013-04-07T11:30:38Z</time>
      </trkpt>
      <trkpt lat="43.53185" lon="5.51076">
        <ele>234</ele>
        <time>2013-04-07T11:30:47Z</time>
      </trkpt>
      <trkpt lat="43.5318" lon="5.51074">
        <ele>235</ele>
        <time>2013-04-07T11:30:56Z</time>
      </trkpt>
      <trkpt lat="43.53172" lon="5.51075">
        <ele>237</ele>
        <time>2013-04-07T11:31:06Z</time>
      </trkpt>
      <trkpt lat="43.53172" lon="5.51082">
        <ele>238</ele>
        <time>2013-04-07T11:31:15Z</time>
      </trkpt>
      <trkpt lat="43.53166" lon="5.51089">
        <ele>242</ele>
        <time>2013-04-07T11:31:24Z</time>
      </trkpt>
      <trkpt lat="43.53158" lon="5.51097">
        <ele>245</ele>
        <time>2013-04-07T11:31:34Z</time>
      </trkpt>
      <trkpt lat="43.53151" lon="5.51106">
        <ele>247</ele>
        <time>2013-04-07T11:31:44Z</time>
      </trkpt>
      <trkpt lat="43.53145" lon="5.51117">
        <ele>249</ele>
        <time>2013-04-07T11:31:54Z</time>
      </trkpt>
      <trkpt lat="43.53142" lon="5.51128">
        <ele>250</ele>
        <time>2013-04-07T11:32:04Z</time>
      </trkpt>
      <trkpt lat="43.5314" lon="5.51139">
        <ele>251</ele>
        <time>2013-04-07T11:32:14Z</time>
      </trkpt>
      <trkpt lat="43.53141" lon="5.5115">
        <ele>252</ele>
        <time>2013-04-07T11:32:23Z</time>
      </trkpt>
      <trkpt lat="43.53143" lon="5.5116">
        <ele>254</ele>
        <time>2013-04-07T11:32:33Z</time>
      </trkpt>
      <trkpt lat="43.53144" lon="5.51171">
        <ele>256</ele>
        <time>2013-04-07T11:32:42Z</time>
      </trkpt>
      <trkpt lat="43.53146" lon="5.5118">
        <ele>256</ele>
        <time>2013-04-07T11:32:52Z</time>
      </trkpt>
      <trkpt lat="43.53146" lon="5.51191">
        <ele>256</ele>
        <time>2013-04-07T11:33:01Z</time>
      </trkpt>
      <trkpt lat="43.53143" lon="5.51201">
        <ele>257</ele>
        <time>2013-04-07T11:33:10Z</time>
      </trkpt>
      <trkpt lat="43.5314" lon="5.51212">
        <ele>257</ele>
        <time>2013-04-07T11:33:19Z</time>
      </trkpt>
      <trkpt lat="43.53139" lon="5.51223">
        <ele>259</ele>
        <time>2013-04-07T11:33:29Z</time>
      </trkpt>
      <trkpt lat="43.53136" lon="5.51236">
        <ele>260</ele>
        <time>2013-04-07T11:33:38Z</time>
      </trkpt>
      <trkpt lat="43.53134" lon="5.51249">
        <ele>260</ele>
        <time>2013-04-07T11:33:47Z</time>
      </trkpt>
      <trkpt lat="43.53131" lon="5.51262">
        <ele>262</ele>
        <time>2013-04-07T11:33:57Z</time>
      </trkpt>
      <trkpt lat="43.53128" lon="5.51274">
        <ele>263</ele>
        <time>2013-04-07T11:34:06Z</time>
      </trkpt>
      <trkpt lat="43.53128" lon="5.51286">
        <ele>265</ele>
        <time>2013-04-07T11:34:15Z</time>
      </trkpt>
      <trkpt lat="43.53127" lon="5.51297">
        <ele>267</ele>
        <time>2013-04-07T11:34:25Z</time>
      </trkpt>
      <trkpt lat="43.53125" lon="5.51308">
        <ele>270</ele>
        <time>2013-04-07T11:34:35Z</time>
      </trkpt>
      <trkpt lat="43.53123" lon="5.5132">
        <ele>272</ele>
        <time>2013-04-07T11:34:44Z</time>
      </trkpt>
      <trkpt lat="43.53121" lon="5.51332">
        <ele>274</ele>
        <time>2013-04-07T11:34:54Z</time>
      </trkpt>
      <trkpt lat="43.53118" lon="5.51345">
        <ele>275</ele>
        <time>2013-04-07T11:35:05Z</time>
      </trkpt>
      <trkpt lat="43.53115" lon="5.51356">
        <ele>276</ele>
        <time>2013-04-07T11:35:14Z</time>
      </trkpt>
      <trkpt lat="43.53109" lon="5.51366">
        <ele>277</ele>
        <time>2013-04-07T11:35:25Z</time>
      </trkpt>
      <trkpt lat="43.53104" lon="5.51375">
        <ele>278</ele>
        <time>2013-04-07T11:35:35Z</time>
      </trkpt>
      <trkpt lat="43.53106" lon="5.51382">
        <ele>278</ele>
        <time>2013-04-07T11:35:44Z</time>
      </trkpt>
      <trkpt lat="43.53107" lon="5.51386">
        <ele>278</ele>
        <time>2013-04-07T11:35:53Z</time>
      </trkpt>
      <trkpt lat="43.53113" lon="5.5139">
        <ele>278</ele>
        <time>2013-04-07T11:36:07Z</time>
      </trkpt>
      <trkpt lat="43.53111" lon="5.51385">
        <ele>278</ele>
        <time>2013-04-07T11:36:21Z</time>
      </trkpt>
      <trkpt lat="43.53108" lon="5.51374">
        <ele>279</ele>
        <time>2013-04-07T11:36:30Z</time>
      </trkpt>
      <trkpt lat="43.53101" lon="5.51371">
        <ele>279</ele>
        <time>2013-04-07T11:36:40Z</time>
      </trkpt>
      <trkpt lat="43.53096" lon="5.51374">
        <ele>279</ele>
        <time>2013-04-07T11:36:49Z</time>
      </trkpt>
      <trkpt lat="43.53093" lon="5.51371">
        <ele>279</ele>
        <time>2013-04-07T11:37:00Z</time>
      </trkpt>
      <trkpt lat="43.53085" lon="5.5137">
        <ele>279</ele>
        <time>2013-04-07T11:37:09Z</time>
      </trkpt>
      <trkpt lat="43.53075" lon="5.5137">
        <ele>279</ele>
        <time>2013-04-07T11:37:19Z</time>
      </trkpt>
      <trkpt lat="43.53063" lon="5.51373">
        <ele>279</ele>
        <time>2013-04-07T11:37:28Z</time>
      </trkpt>
      <trkpt lat="43.53052" lon="5.51373">
        <ele>279</ele>
        <time>2013-04-07T11:37:37Z</time>
      </trkpt>
      <trkpt lat="43.53043" lon="5.51372">
        <ele>279</ele>
        <time>2013-04-07T11:37:46Z</time>
      </trkpt>
      <trkpt lat="43.5303" lon="5.51372">
        <ele>277</ele>
        <time>2013-04-07T11:37:56Z</time>
      </trkpt>
      <trkpt lat="43.5302" lon="5.51372">
        <ele>273</ele>
        <time>2013-04-07T11:38:06Z</time>
      </trkpt>
      <trkpt lat="43.53012" lon="5.51376">
        <ele>271</ele>
        <time>2013-04-07T11:38:18Z</time>
      </trkpt>
      <trkpt lat="43.53001" lon="5.51384">
        <ele>267</ele>
        <time>2013-04-07T11:38:27Z</time>
      </trkpt>
      <trkpt lat="43.52991" lon="5.51387">
        <ele>266</ele>
        <time>2013-04-07T11:38:36Z</time>
      </trkpt>
      <trkpt lat="43.52979" lon="5.51391">
        <ele>265</ele>
        <time>2013-04-07T11:38:46Z</time>
      </trkpt>
      <trkpt lat="43.52965" lon="5.51394">
        <ele>264</ele>
        <time>2013-04-07T11:38:56Z</time>
      </trkpt>
      <trkpt lat="43.52953" lon="5.51396">
        <ele>264</ele>
        <time>2013-04-07T11:39:06Z</time>
      </trkpt>
      <trkpt lat="43.5294" lon="5.51398">
        <ele>264</ele>
        <time>2013-04-07T11:39:16Z</time>
      </trkpt>
      <trkpt lat="43.52928" lon="5.51401">
        <ele>264</ele>
        <time>2013-04-07T11:39:26Z</time>
      </trkpt>
      <trkpt lat="43.52915" lon="5.51404">
        <ele>264</ele>
        <time>2013-04-07T11:39:37Z</time>
      </trkpt>
      <trkpt lat="43.52907" lon="5.51408">
        <ele>267</ele>
        <time>2013-04-07T11:39:46Z</time>
      </trkpt>
      <trkpt lat="43.52902" lon="5.51413">
        <ele>271</ele>
        <time>2013-04-07T11:39:56Z</time>
      </trkpt>
      <trkpt lat="43.52893" lon="5.51422">
        <ele>275</ele>
        <time>2013-04-07T11:40:08Z</time>
      </trkpt>
      <trkpt lat="43.52881" lon="5.51431">
        <ele>278</ele>
        <time>2013-04-07T11:40:17Z</time>
      </trkpt>
      <trkpt lat="43.5287" lon="5.51436">
        <ele>280</ele>
        <time>2013-04-07T11:40:27Z</time>
      </trkpt>
      <trkpt lat="43.52857" lon="5.51439">
        <ele>280</ele>
        <time>2013-04-07T11:40:37Z</time>
      </trkpt>
      <trkpt lat="43.52847" lon="5.5144">
        <ele>284</ele>
        <time>2013-04-07T11:40:46Z</time>
      </trkpt>
      <trkpt lat="43.52834" lon="5.51442">
        <ele>285</ele>
        <time>2013-04-07T11:40:56Z</time>
      </trkpt>
      <trkpt lat="43.52822" lon="5.51443">
        <ele>285</ele>
        <time>2013-04-07T11:41:07Z</time>
      </trkpt>
      <trkpt lat="43.52811" lon="5.51445">
        <ele>285</ele>
        <time>2013-04-07T11:41:18Z</time>
      </trkpt>
      <trkpt lat="43.52803" lon="5.51447">
        <ele>285</ele>
        <time>2013-04-07T11:41:28Z</time>
      </trkpt>
      <trkpt lat="43.52792" lon="5.51453">
        <ele>285</ele>
        <time>2013-04-07T11:41:38Z</time>
      </trkpt>
      <trkpt lat="43.52782" lon="5.51458">
        <ele>286</ele>
        <time>2013-04-07T11:41:47Z</time>
      </trkpt>
      <trkpt lat="43.52771" lon="5.51464">
        <ele>286</ele>
        <time>2013-04-07T11:41:56Z</time>
      </trkpt>
      <trkpt lat="43.52763" lon="5.51469">
        <ele>289</ele>
        <time>2013-04-07T11:42:06Z</time>
      </trkpt>
      <trkpt lat="43.52752" lon="5.51475">
        <ele>290</ele>
        <time>2013-04-07T11:42:18Z</time>
      </trkpt>
      <trkpt lat="43.52743" lon="5.5148">
        <ele>292</ele>
        <time>2013-04-07T11:42:28Z</time>
      </trkpt>
      <trkpt lat="43.52736" lon="5.51484">
        <ele>293</ele>
        <time>2013-04-07T11:42:37Z</time>
      </trkpt>
      <trkpt lat="43.5273" lon="5.51489">
        <ele>294</ele>
        <time>2013-04-07T11:42:47Z</time>
      </trkpt>
      <trkpt lat="43.52723" lon="5.51496">
        <ele>295</ele>
        <time>2013-04-07T11:42:56Z</time>
      </trkpt>
      <trkpt lat="43.52717" lon="5.51504">
        <ele>295</ele>
        <time>2013-04-07T11:43:06Z</time>
      </trkpt>
      <trkpt lat="43.52714" lon="5.51515">
        <ele>294</ele>
        <time>2013-04-07T11:43:16Z</time>
      </trkpt>
      <trkpt lat="43.5271" lon="5.51528">
        <ele>290</ele>
        <time>2013-04-07T11:43:27Z</time>
      </trkpt>
      <trkpt lat="43.52709" lon="5.51541">
        <ele>286</ele>
        <time>2013-04-07T11:43:36Z</time>
      </trkpt>
      <trkpt lat="43.5271" lon="5.51555">
        <ele>286</ele>
        <time>2013-04-07T11:43:46Z</time>
      </trkpt>
      <trkpt lat="43.52708" lon="5.51572">
        <ele>286</ele>
        <time>2013-04-07T11:43:56Z</time>
      </trkpt>
      <trkpt lat="43.52708" lon="5.51589">
        <ele>287</ele>
        <time>2013-04-07T11:44:06Z</time>
      </trkpt>
      <trkpt lat="43.52712" lon="5.51603">
        <ele>287</ele>
        <time>2013-04-07T11:44:16Z</time>
      </trkpt>
      <trkpt lat="43.52711" lon="5.51617">
        <ele>287</ele>
        <time>2013-04-07T11:44:26Z</time>
      </trkpt>
      <trkpt lat="43.5271" lon="5.51628">
        <ele>288</ele>
        <time>2013-04-07T11:44:40Z</time>
      </trkpt>
      <trkpt lat="43.52711" lon="5.5164">
        <ele>288</ele>
        <time>2013-04-07T11:44:49Z</time>
      </trkpt>
      <trkpt lat="43.52706" lon="5.51656">
        <ele>288</ele>
        <time>2013-04-07T11:44:58Z</time>
      </trkpt>
      <trkpt lat="43.52705" lon="5.51666">
        <ele>292</ele>
        <time>2013-04-07T11:45:07Z</time>
      </trkpt>
      <trkpt lat="43.52701" lon="5.51672">
        <ele>295</ele>
        <time>2013-04-07T11:45:17Z</time>
      </trkpt>
      <trkpt lat="43.52699" lon="5.51688">
        <ele>298</ele>
        <time>2013-04-07T11:45:26Z</time>
      </trkpt>
      <trkpt lat="43.527" lon="5.51702">
        <ele>298</ele>
        <time>2013-04-07T11:45:35Z</time>
      </trkpt>
      <trkpt lat="43.527" lon="5.51717">
        <ele>298</ele>
        <time>2013-04-07T11:45:44Z</time>
      </trkpt>
      <trkpt lat="43.52695" lon="5.5173">
        <ele>298</ele>
        <time>2013-04-07T11:45:53Z</time>
      </trkpt>
      <trkpt lat="43.52696" lon="5.51741">
        <ele>296</ele>
        <time>2013-04-07T11:46:02Z</time>
      </trkpt>
      <trkpt lat="43.52692" lon="5.5176">
        <ele>294</ele>
        <time>2013-04-07T11:46:12Z</time>
      </trkpt>
      <trkpt lat="43.52693" lon="5.51775">
        <ele>290</ele>
        <time>2013-04-07T11:46:21Z</time>
      </trkpt>
      <trkpt lat="43.52689" lon="5.51793">
        <ele>290</ele>
        <time>2013-04-07T11:46:31Z</time>
      </trkpt>
      <trkpt lat="43.52685" lon="5.5181">
        <ele>291</ele>
        <time>2013-04-07T11:46:41Z</time>
      </trkpt>
      <trkpt lat="43.52681" lon="5.51824">
        <ele>291</ele>
        <time>2013-04-07T11:46:51Z</time>
      </trkpt>
      <trkpt lat="43.52673" lon="5.51838">
        <ele>291</ele>
        <time>2013-04-07T11:47:01Z</time>
      </trkpt>
      <trkpt lat="43.52667" lon="5.51852">
        <ele>291</ele>
        <time>2013-04-07T11:47:11Z</time>
      </trkpt>
      <trkpt lat="43.5266" lon="5.51869">
        <ele>294</ele>
        <time>2013-04-07T11:47:22Z</time>
      </trkpt>
      <trkpt lat="43.52656" lon="5.51882">
        <ele>295</ele>
        <time>2013-04-07T11:47:31Z</time>
      </trkpt>
      <trkpt lat="43.52652" lon="5.519">
        <ele>295</ele>
        <time>2013-04-07T11:47:41Z</time>
      </trkpt>
      <trkpt lat="43.52646" lon="5.51915">
        <ele>295</ele>
        <time>2013-04-07T11:47:51Z</time>
      </trkpt>
      <trkpt lat="43.52642" lon="5.51931">
        <ele>294</ele>
        <time>2013-04-07T11:48:01Z</time>
      </trkpt>
      <trkpt lat="43.5264" lon="5.51948">
        <ele>292</ele>
        <time>2013-04-07T11:48:11Z</time>
      </trkpt>
      <trkpt lat="43.52637" lon="5.51962">
        <ele>292</ele>
        <time>2013-04-07T11:48:20Z</time>
      </trkpt>
      <trkpt lat="43.52636" lon="5.51976">
        <ele>292</ele>
        <time>2013-04-07T11:48:30Z</time>
      </trkpt>
      <trkpt lat="43.52627" lon="5.51992">
        <ele>291</ele>
        <time>2013-04-07T11:48:40Z</time>
      </trkpt>
      <trkpt lat="43.52622" lon="5.52">
        <ele>291</ele>
        <time>2013-04-07T11:48:49Z</time>
      </trkpt>
      <trkpt lat="43.52613" lon="5.52009">
        <ele>291</ele>
        <time>2013-04-07T11:48:58Z</time>
      </trkpt>
      <trkpt lat="43.52603" lon="5.52021">
        <ele>289</ele>
        <time>2013-04-07T11:49:08Z</time>
      </trkpt>
      <trkpt lat="43.52602" lon="5.52034">
        <ele>289</ele>
        <time>2013-04-07T11:49:18Z</time>
      </trkpt>
      <trkpt lat="43.52602" lon="5.52047">
        <ele>289</ele>
        <time>2013-04-07T11:49:27Z</time>
      </trkpt>
      <trkpt lat="43.52598" lon="5.5206">
        <ele>288</ele>
        <time>2013-04-07T11:49:36Z</time>
      </trkpt>
      <trkpt lat="43.52596" lon="5.52076">
        <ele>287</ele>
        <time>2013-04-07T11:49:47Z</time>
      </trkpt>
      <trkpt lat="43.52593" lon="5.52087">
        <ele>287</ele>
        <time>2013-04-07T11:49:56Z</time>
      </trkpt>
      <trkpt lat="43.52591" lon="5.52099">
        <ele>287</ele>
        <time>2013-04-07T11:50:06Z</time>
      </trkpt>
      <trkpt lat="43.52587" lon="5.52114">
        <ele>286</ele>
        <time>2013-04-07T11:50:16Z</time>
      </trkpt>
      <trkpt lat="43.52584" lon="5.52129">
        <ele>285</ele>
        <time>2013-04-07T11:50:27Z</time>
      </trkpt>
      <trkpt lat="43.52583" lon="5.52143">
        <ele>282</ele>
        <time>2013-04-07T11:50:36Z</time>
      </trkpt>
      <trkpt lat="43.52581" lon="5.52156">
        <ele>282</ele>
        <time>2013-04-07T11:50:45Z</time>
      </trkpt>
      <trkpt lat="43.52578" lon="5.52171">
        <ele>282</ele>
        <time>2013-04-07T11:50:54Z</time>
      </trkpt>
      <trkpt lat="43.52581" lon="5.52186">
        <ele>282</ele>
        <time>2013-04-07T11:51:03Z</time>
      </trkpt>
      <trkpt lat="43.52585" lon="5.52201">
        <ele>282</ele>
        <time>2013-04-07T11:51:12Z</time>
      </trkpt>
      <trkpt lat="43.52586" lon="5.52212">
        <ele>282</ele>
        <time>2013-04-07T11:51:21Z</time>
      </trkpt>
      <trkpt lat="43.52588" lon="5.52224">
        <ele>282</ele>
        <time>2013-04-07T11:51:31Z</time>
      </trkpt>
      <trkpt lat="43.52594" lon="5.52236">
        <ele>280</ele>
        <time>2013-04-07T11:51:40Z</time>
      </trkpt>
      <trkpt lat="43.52599" lon="5.52247">
        <ele>280</ele>
        <time>2013-04-07T11:51:49Z</time>
      </trkpt>
      <trkpt lat="43.52604" lon="5.52261">
        <ele>280</ele>
        <time>2013-04-07T11:51:59Z</time>
      </trkpt>
      <trkpt lat="43.52601" lon="5.52276">
        <ele>280</ele>
        <time>2013-04-07T11:52:08Z</time>
      </trkpt>
      <trkpt lat="43.52598" lon="5.52292">
        <ele>280</ele>
        <time>2013-04-07T11:52:18Z</time>
      </trkpt>
      <trkpt lat="43.52594" lon="5.52306">
        <ele>279</ele>
        <time>2013-04-07T11:52:27Z</time>
      </trkpt>
      <trkpt lat="43.52591" lon="5.52314">
        <ele>279</ele>
        <time>2013-04-07T11:52:37Z</time>
      </trkpt>
      <trkpt lat="43.52591" lon="5.52331">
        <ele>279</ele>
        <time>2013-04-07T11:52:46Z</time>
      </trkpt>
      <trkpt lat="43.52586" lon="5.52347">
        <ele>274</ele>
        <time>2013-04-07T11:52:55Z</time>
      </trkpt>
      <trkpt lat="43.5258" lon="5.52358">
        <ele>274</ele>
        <time>2013-04-07T11:53:04Z</time>
      </trkpt>
      <trkpt lat="43.52576" lon="5.52375">
        <ele>274</ele>
        <time>2013-04-07T11:53:13Z</time>
      </trkpt>
      <trkpt lat="43.5257" lon="5.52387">
        <ele>274</ele>
        <time>2013-04-07T11:53:22Z</time>
      </trkpt>
      <trkpt lat="43.5256" lon="5.52395">
        <ele>274</ele>
        <time>2013-04-07T11:53:32Z</time>
      </trkpt>
      <trkpt lat="43.52553" lon="5.52405">
        <ele>274</ele>
        <time>2013-04-07T11:53:42Z</time>
      </trkpt>
      <trkpt lat="43.52547" lon="5.52416">
        <ele>272</ele>
        <time>2013-04-07T11:53:52Z</time>
      </trkpt>
      <trkpt lat="43.52541" lon="5.52428">
        <ele>271</ele>
        <time>2013-04-07T11:54:01Z</time>
      </trkpt>
      <trkpt lat="43.52538" lon="5.52441">
        <ele>270</ele>
        <time>2013-04-07T11:54:10Z</time>
      </trkpt>
      <trkpt lat="43.52531" lon="5.52454">
        <ele>269</ele>
        <time>2013-04-07T11:54:20Z</time>
      </trkpt>
      <trkpt lat="43.52529" lon="5.52466">
        <ele>267</ele>
        <time>2013-04-07T11:54:29Z</time>
      </trkpt>
      <trkpt lat="43.52526" lon="5.5248">
        <ele>267</ele>
        <time>2013-04-07T11:54:38Z</time>
      </trkpt>
      <trkpt lat="43.52522" lon="5.52494">
        <ele>266</ele>
        <time>2013-04-07T11:54:47Z</time>
      </trkpt>
      <trkpt lat="43.52519" lon="5.52507">
        <ele>265</ele>
        <time>2013-04-07T11:54:56Z</time>
      </trkpt>
      <trkpt lat="43.52516" lon="5.52516">
        <ele>264</ele>
        <time>2013-04-07T11:55:10Z</time>
      </trkpt>
      <trkpt lat="43.52514" lon="5.5252">
        <ele>266</ele>
        <time>2013-04-07T11:55:19Z</time>
      </trkpt>
      <trkpt lat="43.52509" lon="5.5253">
        <ele>266</ele>
        <time>2013-04-07T11:55:28Z</time>
      </trkpt>
      <trkpt lat="43.52511" lon="5.52542">
        <ele>266</ele>
        <time>2013-04-07T11:55:38Z</time>
      </trkpt>
      <trkpt lat="43.52507" lon="5.52555">
        <ele>266</ele>
        <time>2013-04-07T11:55:48Z</time>
      </trkpt>
      <trkpt lat="43.52504" lon="5.52569">
        <ele>266</ele>
        <time>2013-04-07T11:55:57Z</time>
      </trkpt>
      <trkpt lat="43.52496" lon="5.52584">
        <ele>266</ele>
        <time>2013-04-07T11:56:06Z</time>
      </trkpt>
      <trkpt lat="43.52495" lon="5.52596">
        <ele>266</ele>
        <time>2013-04-07T11:56:15Z</time>
      </trkpt>
      <trkpt lat="43.52488" lon="5.52605">
        <ele>266</ele>
        <time>2013-04-07T11:56:24Z</time>
      </trkpt>
      <trkpt lat="43.5248" lon="5.52618">
        <ele>266</ele>
        <time>2013-04-07T11:56:34Z</time>
      </trkpt>
      <trkpt lat="43.52474" lon="5.52628">
        <ele>266</ele>
        <time>2013-04-07T11:56:43Z</time>
      </trkpt>
      <trkpt lat="43.52468" lon="5.52639">
        <ele>267</ele>
        <time>2013-04-07T11:56:53Z</time>
      </trkpt>
      <trkpt lat="43.52458" lon="5.52653">
        <ele>267</ele>
        <time>2013-04-07T11:57:03Z</time>
      </trkpt>
      <trkpt lat="43.52454" lon="5.52666">
        <ele>267</ele>
        <time>2013-04-07T11:57:13Z</time>
      </trkpt>
      <trkpt lat="43.52451" lon="5.52677">
        <ele>267</ele>
        <time>2013-04-07T11:57:22Z</time>
      </trkpt>
      <trkpt lat="43.5245" lon="5.52691">
        <ele>267</ele>
        <time>2013-04-07T11:57:31Z</time>
      </trkpt>
      <trkpt lat="43.52446" lon="5.52704">
        <ele>267</ele>
        <time>2013-04-07T11:57:41Z</time>
      </trkpt>
      <trkpt lat="43.52443" lon="5.52717">
        <ele>267</ele>
        <time>2013-04-07T11:57:50Z</time>
      </trkpt>
      <trkpt lat="43.52442" lon="5.52732">
        <ele>267</ele>
        <time>2013-04-07T11:58:00Z</time>
      </trkpt>
      <trkpt lat="43.52444" lon="5.52748">
        <ele>267</ele>
        <time>2013-04-07T11:58:10Z</time>
      </trkpt>
      <trkpt lat="43.52445" lon="5.5276">
        <ele>265</ele>
        <time>2013-04-07T11:58:19Z</time>
      </trkpt>
      <trkpt lat="43.52444" lon="5.52773">
        <ele>263</ele>
        <time>2013-04-07T11:58:28Z</time>
      </trkpt>
      <trkpt lat="43.52442" lon="5.52788">
        <ele>263</ele>
        <time>2013-04-07T11:58:37Z</time>
      </trkpt>
      <trkpt lat="43.52441" lon="5.52801">
        <ele>261</ele>
        <time>2013-04-07T11:58:46Z</time>
      </trkpt>
      <trkpt lat="43.52442" lon="5.52815">
        <ele>258</ele>
        <time>2013-04-07T11:58:55Z</time>
      </trkpt>
      <trkpt lat="43.52443" lon="5.5283">
        <ele>256</ele>
        <time>2013-04-07T11:59:04Z</time>
      </trkpt>
      <trkpt lat="43.52441" lon="5.52844">
        <ele>254</ele>
        <time>2013-04-07T11:59:13Z</time>
      </trkpt>
      <trkpt lat="43.52439" lon="5.52858">
        <ele>254</ele>
        <time>2013-04-07T11:59:22Z</time>
      </trkpt>
      <trkpt lat="43.5244" lon="5.52877">
        <ele>254</ele>
        <time>2013-04-07T11:59:32Z</time>
      </trkpt>
      <trkpt lat="43.52437" lon="5.5289">
        <ele>254</ele>
        <time>2013-04-07T11:59:41Z</time>
      </trkpt>
      <trkpt lat="43.52431" lon="5.52902">
        <ele>254</ele>
        <time>2013-04-07T11:59:50Z</time>
      </trkpt>
      <trkpt lat="43.52428" lon="5.52913">
        <ele>252</ele>
        <time>2013-04-07T11:59:59Z</time>
      </trkpt>
      <trkpt lat="43.52422" lon="5.52928">
        <ele>252</ele>
        <time>2013-04-07T12:00:08Z</time>
      </trkpt>
      <trkpt lat="43.5242" lon="5.52942">
        <ele>252</ele>
        <time>2013-04-07T12:00:17Z</time>
      </trkpt>
      <trkpt lat="43.52415" lon="5.52955">
        <ele>252</ele>
        <time>2013-04-07T12:00:26Z</time>
      </trkpt>
      <trkpt lat="43.52413" lon="5.52968">
        <ele>252</ele>
        <time>2013-04-07T12:00:35Z</time>
      </trkpt>
      <trkpt lat="43.52411" lon="5.52978">
        <ele>252</ele>
        <time>2013-04-07T12:00:44Z</time>
      </trkpt>
      <trkpt lat="43.52409" lon="5.52991">
        <ele>252</ele>
        <time>2013-04-07T12:00:53Z</time>
      </trkpt>
      <trkpt lat="43.52406" lon="5.53009">
        <ele>252</ele>
        <time>2013-04-07T12:01:02Z</time>
      </trkpt>
      <trkpt lat="43.52405" lon="5.53024">
        <ele>252</ele>
        <time>2013-04-07T12:01:11Z</time>
      </trkpt>
      <trkpt lat="43.52402" lon="5.53042">
        <ele>255</ele>
        <time>2013-04-07T12:01:20Z</time>
      </trkpt>
      <trkpt lat="43.52401" lon="5.53055">
        <ele>256</ele>
        <time>2013-04-07T12:01:29Z</time>
      </trkpt>
      <trkpt lat="43.52402" lon="5.53068">
        <ele>256</ele>
        <time>2013-04-07T12:01:38Z</time>
      </trkpt>
      <trkpt lat="43.52401" lon="5.53082">
        <ele>256</ele>
        <time>2013-04-07T12:01:47Z</time>
      </trkpt>
      <trkpt lat="43.52403" lon="5.53088">
        <ele>256</ele>
        <time>2013-04-07T12:02:00Z</time>
      </trkpt>
      <trkpt lat="43.52403" lon="5.5309">
        <ele>257</ele>
        <time>2013-04-07T12:02:15Z</time>
      </trkpt>
      <trkpt lat="43.52404" lon="5.53104">
        <ele>257</ele>
        <time>2013-04-07T12:02:24Z</time>
      </trkpt>
      <trkpt lat="43.52405" lon="5.5312">
        <ele>257</ele>
        <time>2013-04-07T12:02:33Z</time>
      </trkpt>
      <trkpt lat="43.52404" lon="5.53135">
        <ele>257</ele>
        <time>2013-04-07T12:02:42Z</time>
      </trkpt>
      <trkpt lat="43.52399" lon="5.53147">
        <ele>257</ele>
        <time>2013-04-07T12:02:51Z</time>
      </trkpt>
      <trkpt lat="43.52392" lon="5.53158">
        <ele>257</ele>
        <time>2013-04-07T12:03:01Z</time>
      </trkpt>
      <trkpt lat="43.52384" lon="5.53165">
        <ele>257</ele>
        <time>2013-04-07T12:03:11Z</time>
      </trkpt>
      <trkpt lat="43.52383" lon="5.53177">
        <ele>257</ele>
        <time>2013-04-07T12:03:20Z</time>
      </trkpt>
      <trkpt lat="43.52389" lon="5.53191">
        <ele>257</ele>
        <time>2013-04-07T12:03:30Z</time>
      </trkpt>
      <trkpt lat="43.52398" lon="5.532">
        <ele>259</ele>
        <time>2013-04-07T12:03:39Z</time>
      </trkpt>
      <trkpt lat="43.52404" lon="5.53207">
        <ele>262</ele>
        <time>2013-04-07T12:03:48Z</time>
      </trkpt>
      <trkpt lat="43.52415" lon="5.53212">
        <ele>263</ele>
        <time>2013-04-07T12:03:57Z</time>
      </trkpt>
      <trkpt lat="43.52425" lon="5.53217">
        <ele>265</ele>
        <time>2013-04-07T12:04:06Z</time>
      </trkpt>
      <trkpt lat="43.52432" lon="5.53218">
        <ele>269</ele>
        <time>2013-04-07T12:04:15Z</time>
      </trkpt>
      <trkpt lat="43.52438" lon="5.5322">
        <ele>273</ele>
        <time>2013-04-07T12:04:25Z</time>
      </trkpt>
      <trkpt lat="43.52446" lon="5.53226">
        <ele>274</ele>
        <time>2013-04-07T12:04:35Z</time>
      </trkpt>
      <trkpt lat="43.52454" lon="5.53236">
        <ele>274</ele>
        <time>2013-04-07T12:04:44Z</time>
      </trkpt>
      <trkpt lat="43.52465" lon="5.53244">
        <ele>271</ele>
        <time>2013-04-07T12:04:53Z</time>
      </trkpt>
      <trkpt lat="43.52471" lon="5.5325">
        <ele>271</ele>
        <time>2013-04-07T12:05:02Z</time>
      </trkpt>
      <trkpt lat="43.5248" lon="5.53258">
        <ele>271</ele>
        <time>2013-04-07T12:05:11Z</time>
      </trkpt>
      <trkpt lat="43.52484" lon="5.53271">
        <ele>271</ele>
        <time>2013-04-07T12:05:20Z</time>
      </trkpt>
      <trkpt lat="43.52489" lon="5.53285">
        <ele>271</ele>
        <time>2013-04-07T12:05:30Z</time>
      </trkpt>
      <trkpt lat="43.52493" lon="5.53297">
        <ele>273</ele>
        <time>2013-04-07T12:05:40Z</time>
      </trkpt>
      <trkpt lat="43.52493" lon="5.53311">
        <ele>274</ele>
        <time>2013-04-07T12:05:50Z</time>
      </trkpt>
      <trkpt lat="43.52494" lon="5.53328">
        <ele>274</ele>
        <time>2013-04-07T12:06:00Z</time>
      </trkpt>
      <trkpt lat="43.52494" lon="5.53341">
        <ele>275</ele>
        <time>2013-04-07T12:06:09Z</time>
      </trkpt>
      <trkpt lat="43.52493" lon="5.53355">
        <ele>276</ele>
        <time>2013-04-07T12:06:18Z</time>
      </trkpt>
      <trkpt lat="43.52493" lon="5.53369">
        <ele>277</ele>
        <time>2013-04-07T12:06:27Z</time>
      </trkpt>
      <trkpt lat="43.52493" lon="5.53384">
        <ele>278</ele>
        <time>2013-04-07T12:06:36Z</time>
      </trkpt>
      <trkpt lat="43.52492" lon="5.53399">
        <ele>279</ele>
        <time>2013-04-07T12:06:45Z</time>
      </trkpt>
      <trkpt lat="43.52491" lon="5.53413">
        <ele>279</ele>
        <time>2013-04-07T12:06:55Z</time>
      </trkpt>
      <trkpt lat="43.52488" lon="5.53428">
        <ele>281</ele>
        <time>2013-04-07T12:07:05Z</time>
      </trkpt>
      <trkpt lat="43.5249" lon="5.53443">
        <ele>283</ele>
        <time>2013-04-07T12:07:14Z</time>
      </trkpt>
      <trkpt lat="43.52489" lon="5.53459">
        <ele>284</ele>
        <time>2013-04-07T12:07:23Z</time>
      </trkpt>
      <trkpt lat="43.52489" lon="5.53473">
        <ele>284</ele>
        <time>2013-04-07T12:07:32Z</time>
      </trkpt>
      <trkpt lat="43.52488" lon="5.53487">
        <ele>284</ele>
        <time>2013-04-07T12:07:41Z</time>
      </trkpt>
      <trkpt lat="43.52488" lon="5.53503">
        <ele>284</ele>
        <time>2013-04-07T12:07:50Z</time>
      </trkpt>
      <trkpt lat="43.52487" lon="5.53517">
        <ele>286</ele>
        <time>2013-04-07T12:07:59Z</time>
      </trkpt>
      <trkpt lat="43.52488" lon="5.53531">
        <ele>288</ele>
        <time>2013-04-07T12:08:08Z</time>
      </trkpt>
      <trkpt lat="43.5249" lon="5.53545">
        <ele>290</ele>
        <time>2013-04-07T12:08:17Z</time>
      </trkpt>
      <trkpt lat="43.52492" lon="5.53559">
        <ele>292</ele>
        <time>2013-04-07T12:08:26Z</time>
      </trkpt>
      <trkpt lat="43.52499" lon="5.53573">
        <ele>294</ele>
        <time>2013-04-07T12:08:36Z</time>
      </trkpt>
      <trkpt lat="43.52508" lon="5.53584">
        <ele>295</ele>
        <time>2013-04-07T12:08:46Z</time>
      </trkpt>
      <trkpt lat="43.52515" lon="5.53597">
        <ele>295</ele>
        <time>2013-04-07T12:08:56Z</time>
      </trkpt>
      <trkpt lat="43.52517" lon="5.53614">
        <ele>295</ele>
        <time>2013-04-07T12:09:06Z</time>
      </trkpt>
      <trkpt lat="43.52517" lon="5.5363">
        <ele>295</ele>
        <time>2013-04-07T12:09:15Z</time>
      </trkpt>
      <trkpt lat="43.52517" lon="5.53645">
        <ele>297</ele>
        <time>2013-04-07T12:09:24Z</time>
      </trkpt>
      <trkpt lat="43.52511" lon="5.5366">
        <ele>300</ele>
        <time>2013-04-07T12:09:34Z</time>
      </trkpt>
      <trkpt lat="43.52507" lon="5.53674">
        <ele>300</ele>
        <time>2013-04-07T12:09:43Z</time>
      </trkpt>
      <trkpt lat="43.52505" lon="5.53688">
        <ele>300</ele>
        <time>2013-04-07T12:09:52Z</time>
      </trkpt>
      <trkpt lat="43.52503" lon="5.53704">
        <ele>300</ele>
        <time>2013-04-07T12:10:02Z</time>
      </trkpt>
      <trkpt lat="43.52502" lon="5.53718">
        <ele>303</ele>
        <time>2013-04-07T12:10:12Z</time>
      </trkpt>
      <trkpt lat="43.52505" lon="5.53733">
        <ele>307</ele>
        <time>2013-04-07T12:10:22Z</time>
      </trkpt>
      <trkpt lat="43.5251" lon="5.53742">
        <ele>309</ele>
        <time>2013-04-07T12:10:32Z</time>
      </trkpt>
      <trkpt lat="43.52518" lon="5.53737">
        <ele>309</ele>
        <time>2013-04-07T12:10:42Z</time>
      </trkpt>
      <trkpt lat="43.52524" lon="5.53728">
        <ele>309</ele>
        <time>2013-04-07T12:10:52Z</time>
      </trkpt>
      <trkpt lat="43.5253" lon="5.53717">
        <ele>310</ele>
        <time>2013-04-07T12:11:02Z</time>
      </trkpt>
      <trkpt lat="43.52536" lon="5.53704">
        <ele>310</ele>
        <time>2013-04-07T12:11:12Z</time>
      </trkpt>
      <trkpt lat="43.52542" lon="5.5369">
        <ele>310</ele>
        <time>2013-04-07T12:11:22Z</time>
      </trkpt>
      <trkpt lat="43.52549" lon="5.53694">
        <ele>313</ele>
        <time>2013-04-07T12:11:32Z</time>
      </trkpt>
      <trkpt lat="43.52547" lon="5.53709">
        <ele>315</ele>
        <time>2013-04-07T12:11:43Z</time>
      </trkpt>
      <trkpt lat="43.52548" lon="5.53723">
        <ele>316</ele>
        <time>2013-04-07T12:11:53Z</time>
      </trkpt>
      <trkpt lat="43.52551" lon="5.53737">
        <ele>316</ele>
        <time>2013-04-07T12:12:02Z</time>
      </trkpt>
      <trkpt lat="43.52556" lon="5.53751">
        <ele>318</ele>
        <time>2013-04-07T12:12:12Z</time>
      </trkpt>
      <trkpt lat="43.52562" lon="5.53766">
        <ele>318</ele>
        <time>2013-04-07T12:12:22Z</time>
      </trkpt>
      <trkpt lat="43.52568" lon="5.53782">
        <ele>318</ele>
        <time>2013-04-07T12:12:33Z</time>
      </trkpt>
      <trkpt lat="43.52573" lon="5.53798">
        <ele>318</ele>
        <time>2013-04-07T12:12:42Z</time>
      </trkpt>
      <trkpt lat="43.52574" lon="5.53813">
        <ele>318</ele>
        <time>2013-04-07T12:12:52Z</time>
      </trkpt>
      <trkpt lat="43.52575" lon="5.5383">
        <ele>318</ele>
        <time>2013-04-07T12:13:02Z</time>
      </trkpt>
      <trkpt lat="43.52578" lon="5.53848">
        <ele>320</ele>
        <time>2013-04-07T12:13:12Z</time>
      </trkpt>
      <trkpt lat="43.52578" lon="5.53865">
        <ele>321</ele>
        <time>2013-04-07T12:13:23Z</time>
      </trkpt>
      <trkpt lat="43.52579" lon="5.53878">
        <ele>321</ele>
        <time>2013-04-07T12:13:32Z</time>
      </trkpt>
      <trkpt lat="43.5258" lon="5.53892">
        <ele>321</ele>
        <time>2013-04-07T12:13:42Z</time>
      </trkpt>
      <trkpt lat="43.5258" lon="5.53907">
        <ele>321</ele>
        <time>2013-04-07T12:13:51Z</time>
      </trkpt>
      <trkpt lat="43.5258" lon="5.53922">
        <ele>319</ele>
        <time>2013-04-07T12:14:01Z</time>
      </trkpt>
      <trkpt lat="43.52578" lon="5.53938">
        <ele>315</ele>
        <time>2013-04-07T12:14:11Z</time>
      </trkpt>
      <trkpt lat="43.52576" lon="5.53953">
        <ele>313</ele>
        <time>2013-04-07T12:14:21Z</time>
      </trkpt>
      <trkpt lat="43.52575" lon="5.53969">
        <ele>311</ele>
        <time>2013-04-07T12:14:31Z</time>
      </trkpt>
      <trkpt lat="43.52576" lon="5.53985">
        <ele>309</ele>
        <time>2013-04-07T12:14:41Z</time>
      </trkpt>
      <trkpt lat="43.52576" lon="5.54">
        <ele>308</ele>
        <time>2013-04-07T12:14:51Z</time>
      </trkpt>
      <trkpt lat="43.52573" lon="5.54017">
        <ele>306</ele>
        <time>2013-04-07T12:15:02Z</time>
      </trkpt>
      <trkpt lat="43.52568" lon="5.54032">
        <ele>304</ele>
        <time>2013-04-07T12:15:12Z</time>
      </trkpt>
      <trkpt lat="43.52563" lon="5.54046">
        <ele>303</ele>
        <time>2013-04-07T12:15:22Z</time>
      </trkpt>
      <trkpt lat="43.52556" lon="5.54061">
        <ele>301</ele>
        <time>2013-04-07T12:15:32Z</time>
      </trkpt>
      <trkpt lat="43.52554" lon="5.54074">
        <ele>300</ele>
        <time>2013-04-07T12:15:43Z</time>
      </trkpt>
      <trkpt lat="43.52557" lon="5.5409">
        <ele>297</ele>
        <time>2013-04-07T12:15:53Z</time>
      </trkpt>
      <trkpt lat="43.52567" lon="5.54103">
        <ele>294</ele>
        <time>2013-04-07T12:16:03Z</time>
      </trkpt>
      <trkpt lat="43.52575" lon="5.54115">
        <ele>294</ele>
        <time>2013-04-07T12:16:13Z</time>
      </trkpt>
      <trkpt lat="43.52584" lon="5.54112">
        <ele>294</ele>
        <time>2013-04-07T12:16:23Z</time>
      </trkpt>
      <trkpt lat="43.52592" lon="5.54111">
        <ele>295</ele>
        <time>2013-04-07T12:16:33Z</time>
      </trkpt>
      <trkpt lat="43.52601" lon="5.54112">
        <ele>297</ele>
        <time>2013-04-07T12:16:42Z</time>
      </trkpt>
      <trkpt lat="43.52605" lon="5.54109">
        <ele>307</ele>
        <time>2013-04-07T12:16:52Z</time>
      </trkpt>
      <trkpt lat="43.526" lon="5.54108">
        <ele>320</ele>
        <time>2013-04-07T12:17:02Z</time>
      </trkpt>
      <trkpt lat="43.52588" lon="5.5411">
        <ele>339</ele>
        <time>2013-04-07T12:17:12Z</time>
      </trkpt>
      <trkpt lat="43.52578" lon="5.54108">
        <ele>359</ele>
        <time>2013-04-07T12:17:24Z</time>
      </trkpt>
      <trkpt lat="43.52576" lon="5.5411">
        <ele>372</ele>
        <time>2013-04-07T12:17:39Z</time>
      </trkpt>
      <trkpt lat="43.52581" lon="5.54103">
        <ele>366</ele>
        <time>2013-04-07T12:17:50Z</time>
      </trkpt>
      <trkpt lat="43.52599" lon="5.54108">
        <ele>345</ele>
        <time>2013-04-07T12:18:00Z</time>
      </trkpt>
      <trkpt lat="43.52604" lon="5.54119">
        <ele>329</ele>
        <time>2013-04-07T12:18:09Z</time>
      </trkpt>
      <trkpt lat="43.5261" lon="5.54119">
        <ele>320</ele>
        <time>2013-04-07T12:18:18Z</time>
      </trkpt>
      <trkpt lat="43.52598" lon="5.54114">
        <ele>319</ele>
        <time>2013-04-07T12:18:28Z</time>
      </trkpt>
      <trkpt lat="43.52596" lon="5.54114">
        <ele>319</ele>
        <time>2013-04-07T12:18:37Z</time>
      </trkpt>
      <trkpt lat="43.52585" lon="5.54112">
        <ele>318</ele>
        <time>2013-04-07T12:18:48Z</time>
      </trkpt>
      <trkpt lat="43.52577" lon="5.54113">
        <ele>311</ele>
        <time>2013-04-07T12:18:58Z</time>
      </trkpt>
      <trkpt lat="43.52568" lon="5.5412">
        <ele>305</ele>
        <time>2013-04-07T12:19:08Z</time>
      </trkpt>
      <trkpt lat="43.52568" lon="5.5413">
        <ele>302</ele>
        <time>2013-04-07T12:19:17Z</time>
      </trkpt>
      <trkpt lat="43.52562" lon="5.54143">
        <ele>300</ele>
        <time>2013-04-07T12:19:27Z</time>
      </trkpt>
      <trkpt lat="43.52556" lon="5.54159">
        <ele>300</ele>
        <time>2013-04-07T12:19:38Z</time>
      </trkpt>
      <trkpt lat="43.52557" lon="5.54173">
        <ele>299</ele>
        <time>2013-04-07T12:19:47Z</time>
      </trkpt>
      <trkpt lat="43.52559" lon="5.54187">
        <ele>298</ele>
        <time>2013-04-07T12:19:57Z</time>
      </trkpt>
      <trkpt lat="43.52558" lon="5.54203">
        <ele>298</ele>
        <time>2013-04-07T12:20:07Z</time>
      </trkpt>
      <trkpt lat="43.52555" lon="5.54216">
        <ele>296</ele>
        <time>2013-04-07T12:20:16Z</time>
      </trkpt>
      <trkpt lat="43.52553" lon="5.54231">
        <ele>295</ele>
        <time>2013-04-07T12:20:26Z</time>
      </trkpt>
      <trkpt lat="43.52552" lon="5.54247">
        <ele>293</ele>
        <time>2013-04-07T12:20:35Z</time>
      </trkpt>
      <trkpt lat="43.52549" lon="5.54263">
        <ele>291</ele>
        <time>2013-04-07T12:20:46Z</time>
      </trkpt>
      <trkpt lat="43.52544" lon="5.5428">
        <ele>291</ele>
        <time>2013-04-07T12:20:56Z</time>
      </trkpt>
      <trkpt lat="43.52542" lon="5.54291">
        <ele>291</ele>
        <time>2013-04-07T12:21:05Z</time>
      </trkpt>
      <trkpt lat="43.52539" lon="5.54303">
        <ele>289</ele>
        <time>2013-04-07T12:21:14Z</time>
      </trkpt>
      <trkpt lat="43.52536" lon="5.5432">
        <ele>287</ele>
        <time>2013-04-07T12:21:24Z</time>
      </trkpt>
      <trkpt lat="43.52537" lon="5.54335">
        <ele>283</ele>
        <time>2013-04-07T12:21:33Z</time>
      </trkpt>
      <trkpt lat="43.52538" lon="5.54349">
        <ele>281</ele>
        <time>2013-04-07T12:21:42Z</time>
      </trkpt>
      <trkpt lat="43.52541" lon="5.54364">
        <ele>278</ele>
        <time>2013-04-07T12:21:52Z</time>
      </trkpt>
      <trkpt lat="43.52542" lon="5.54378">
        <ele>276</ele>
        <time>2013-04-07T12:22:02Z</time>
      </trkpt>
      <trkpt lat="43.52545" lon="5.54392">
        <ele>275</ele>
        <time>2013-04-07T12:22:11Z</time>
      </trkpt>
      <trkpt lat="43.52548" lon="5.54405">
        <ele>272</ele>
        <time>2013-04-07T12:22:21Z</time>
      </trkpt>
      <trkpt lat="43.52557" lon="5.54419">
        <ele>271</ele>
        <time>2013-04-07T12:22:32Z</time>
      </trkpt>
      <trkpt lat="43.52559" lon="5.54433">
        <ele>271</ele>
        <time>2013-04-07T12:22:42Z</time>
      </trkpt>
      <trkpt lat="43.5256" lon="5.54449">
        <ele>271</ele>
        <time>2013-04-07T12:22:52Z</time>
      </trkpt>
      <trkpt lat="43.52563" lon="5.54464">
        <ele>271</ele>
        <time>2013-04-07T12:23:02Z</time>
      </trkpt>
      <trkpt lat="43.52562" lon="5.54476">
        <ele>271</ele>
        <time>2013-04-07T12:23:12Z</time>
      </trkpt>
      <trkpt lat="43.52565" lon="5.54493">
        <ele>271</ele>
        <time>2013-04-07T12:23:22Z</time>
      </trkpt>
      <trkpt lat="43.52568" lon="5.54507">
        <ele>267</ele>
        <time>2013-04-07T12:23:32Z</time>
      </trkpt>
      <trkpt lat="43.52564" lon="5.54522">
        <ele>266</ele>
        <time>2013-04-07T12:23:42Z</time>
      </trkpt>
      <trkpt lat="43.52553" lon="5.54535">
        <ele>264</ele>
        <time>2013-04-07T12:23:53Z</time>
      </trkpt>
      <trkpt lat="43.52548" lon="5.54548">
        <ele>262</ele>
        <time>2013-04-07T12:24:02Z</time>
      </trkpt>
      <trkpt lat="43.52543" lon="5.54564">
        <ele>261</ele>
        <time>2013-04-07T12:24:12Z</time>
      </trkpt>
      <trkpt lat="43.52536" lon="5.54576">
        <ele>261</ele>
        <time>2013-04-07T12:24:22Z</time>
      </trkpt>
      <trkpt lat="43.5253" lon="5.54588">
        <ele>261</ele>
        <time>2013-04-07T12:24:32Z</time>
      </trkpt>
      <trkpt lat="43.52522" lon="5.546">
        <ele>259</ele>
        <time>2013-04-07T12:24:43Z</time>
      </trkpt>
      <trkpt lat="43.52515" lon="5.54612">
        <ele>258</ele>
        <time>2013-04-07T12:24:52Z</time>
      </trkpt>
      <trkpt lat="43.52509" lon="5.54624">
        <ele>256</ele>
        <time>2013-04-07T12:25:02Z</time>
      </trkpt>
      <trkpt lat="43.52503" lon="5.54638">
        <ele>256</ele>
        <time>2013-04-07T12:25:13Z</time>
      </trkpt>
      <trkpt lat="43.52497" lon="5.54647">
        <ele>256</ele>
        <time>2013-04-07T12:25:22Z</time>
      </trkpt>
      <trkpt lat="43.52488" lon="5.54656">
        <ele>258</ele>
        <time>2013-04-07T12:25:32Z</time>
      </trkpt>
      <trkpt lat="43.52486" lon="5.54666">
        <ele>266</ele>
        <time>2013-04-07T12:25:42Z</time>
      </trkpt>
      <trkpt lat="43.5248" lon="5.54683">
        <ele>264</ele>
        <time>2013-04-07T12:25:52Z</time>
      </trkpt>
      <trkpt lat="43.52472" lon="5.54699">
        <ele>263</ele>
        <time>2013-04-07T12:26:02Z</time>
      </trkpt>
      <trkpt lat="43.52464" lon="5.54708">
        <ele>262</ele>
        <time>2013-04-07T12:26:12Z</time>
      </trkpt>
      <trkpt lat="43.52452" lon="5.54712">
        <ele>259</ele>
        <time>2013-04-07T12:26:22Z</time>
      </trkpt>
      <trkpt lat="43.5244" lon="5.54711">
        <ele>253</ele>
        <time>2013-04-07T12:26:32Z</time>
      </trkpt>
      <trkpt lat="43.52427" lon="5.5471">
        <ele>251</ele>
        <time>2013-04-07T12:26:43Z</time>
      </trkpt>
      <trkpt lat="43.52414" lon="5.54713">
        <ele>251</ele>
        <time>2013-04-07T12:26:52Z</time>
      </trkpt>
      <trkpt lat="43.52401" lon="5.54717">
        <ele>251</ele>
        <time>2013-04-07T12:27:03Z</time>
      </trkpt>
      <trkpt lat="43.52398" lon="5.54729">
        <ele>251</ele>
        <time>2013-04-07T12:27:12Z</time>
      </trkpt>
      <trkpt lat="43.52386" lon="5.54735">
        <ele>251</ele>
        <time>2013-04-07T12:27:23Z</time>
      </trkpt>
      <trkpt lat="43.52375" lon="5.5474">
        <ele>251</ele>
        <time>2013-04-07T12:27:32Z</time>
      </trkpt>
      <trkpt lat="43.52366" lon="5.54747">
        <ele>251</ele>
        <time>2013-04-07T12:27:43Z</time>
      </trkpt>
      <trkpt lat="43.52354" lon="5.54751">
        <ele>251</ele>
        <time>2013-04-07T12:27:53Z</time>
      </trkpt>
      <trkpt lat="43.52347" lon="5.54755">
        <ele>251</ele>
        <time>2013-04-07T12:28:03Z</time>
      </trkpt>
      <trkpt lat="43.52357" lon="5.54752">
        <ele>251</ele>
        <time>2013-04-07T12:28:12Z</time>
      </trkpt>
      <trkpt lat="43.52362" lon="5.5475">
        <ele>251</ele>
        <time>2013-04-07T12:28:23Z</time>
      </trkpt>
      <trkpt lat="43.52363" lon="5.5475">
        <ele>251</ele>
        <time>2013-04-07T12:28:32Z</time>
      </trkpt>
      <trkpt lat="43.52362" lon="5.54749">
        <ele>251</ele>
        <time>2013-04-07T12:28:47Z</time>
      </trkpt>
      <trkpt lat="43.52363" lon="5.54748">
        <ele>251</ele>
        <time>2013-04-07T12:29:06Z</time>
      </trkpt>
      <trkpt lat="43.52364" lon="5.54751">
        <ele>251</ele>
        <time>2013-04-07T12:29:20Z</time>
      </trkpt>
      <trkpt lat="43.52366" lon="5.54752">
        <ele>251</ele>
        <time>2013-04-07T12:29:30Z</time>
      </trkpt>
      <trkpt lat="43.52367" lon="5.54751">
        <ele>250</ele>
        <time>2013-04-07T12:29:35Z</time>
      </trkpt>
    </trkseg>
  </trk>
</gpx>